<?xml version="1.0" encoding="UTF-8" standalone="no" ?>
<gpx xmlns="http://www.topografix.com/GPX/1/1" xmlns:xsi="http://www.w3.org/2001/XMLSchema-instance" xsi:schemaLocation="http://www.topografix.com/GPX/1/1 http://www.topografix.com/GPX/1/1/gpx.xsd" version="1.1" creator="VisuGPX - https://www.visugpx.com">
  <metadata>
    <name>Voie Pagès - St Guilhem</name>
    <desc><![CDATA[A tester rapidement]]></desc>
  </metadata>
  <trk>
    <name><![CDATA[11-FEV-15 16:02:22]]></name>
    <trkseg>
      <trkpt lat="43.74424" lon="3.56356">
        <ele>22.73</ele>
        <time>2015-02-11T08:41:02Z</time>
      </trkpt>
      <trkpt lat="43.74431" lon="3.56354">
        <ele>24.65</ele>
        <time>2015-02-11T08:41:27Z</time>
      </trkpt>
      <trkpt lat="43.74431" lon="3.56355">
        <ele>28.02</ele>
        <time>2015-02-11T08:41:28Z</time>
      </trkpt>
      <trkpt lat="43.7443" lon="3.56355">
        <ele>28.02</ele>
        <time>2015-02-11T08:41:29Z</time>
      </trkpt>
      <trkpt lat="43.7443" lon="3.56355">
        <ele>30.9</ele>
        <time>2015-02-11T08:41:31Z</time>
      </trkpt>
      <trkpt lat="43.74429" lon="3.56354">
        <ele>38.11</ele>
        <time>2015-02-11T08:41:35Z</time>
      </trkpt>
      <trkpt lat="43.74429" lon="3.56354">
        <ele>38.11</ele>
        <time>2015-02-11T08:41:36Z</time>
      </trkpt>
      <trkpt lat="43.74428" lon="3.56353">
        <ele>40.51</ele>
        <time>2015-02-11T08:41:38Z</time>
      </trkpt>
      <trkpt lat="43.74429" lon="3.56353">
        <ele>44.84</ele>
        <time>2015-02-11T08:41:40Z</time>
      </trkpt>
      <trkpt lat="43.74429" lon="3.56353">
        <ele>45.8</ele>
        <time>2015-02-11T08:41:42Z</time>
      </trkpt>
      <trkpt lat="43.74429" lon="3.56353">
        <ele>49.65</ele>
        <time>2015-02-11T08:41:45Z</time>
      </trkpt>
      <trkpt lat="43.74431" lon="3.56355">
        <ele>52.53</ele>
        <time>2015-02-11T08:41:48Z</time>
      </trkpt>
      <trkpt lat="43.74432" lon="3.56355">
        <ele>55.89</ele>
        <time>2015-02-11T08:41:52Z</time>
      </trkpt>
      <trkpt lat="43.74433" lon="3.56354">
        <ele>59.74</ele>
        <time>2015-02-11T08:41:57Z</time>
      </trkpt>
      <trkpt lat="43.74434" lon="3.56354">
        <ele>62.62</ele>
        <time>2015-02-11T08:42:02Z</time>
      </trkpt>
      <trkpt lat="43.74434" lon="3.56354">
        <ele>65.51</ele>
        <time>2015-02-11T08:42:08Z</time>
      </trkpt>
      <trkpt lat="43.74433" lon="3.56352">
        <ele>68.87</ele>
        <time>2015-02-11T08:42:17Z</time>
      </trkpt>
      <trkpt lat="43.74434" lon="3.56349">
        <ele>22.73</ele>
        <time>2015-02-11T08:42:32Z</time>
      </trkpt>
      <trkpt lat="43.74434" lon="3.56349">
        <ele>71.27</ele>
        <time>2015-02-11T08:42:33Z</time>
      </trkpt>
      <trkpt lat="43.74435" lon="3.56352">
        <ele>71.76</ele>
        <time>2015-02-11T08:42:48Z</time>
      </trkpt>
      <trkpt lat="43.74433" lon="3.56352">
        <ele>71.27</ele>
        <time>2015-02-11T08:43:07Z</time>
      </trkpt>
      <trkpt lat="43.74435" lon="3.56353">
        <ele>70.79</ele>
        <time>2015-02-11T08:43:20Z</time>
      </trkpt>
      <trkpt lat="43.74434" lon="3.56351">
        <ele>71.27</ele>
        <time>2015-02-11T08:43:38Z</time>
      </trkpt>
      <trkpt lat="43.74434" lon="3.56346">
        <ele>71.27</ele>
        <time>2015-02-11T08:43:49Z</time>
      </trkpt>
      <trkpt lat="43.74434" lon="3.56345">
        <ele>71.27</ele>
        <time>2015-02-11T08:44:03Z</time>
      </trkpt>
      <trkpt lat="43.74433" lon="3.56345">
        <ele>71.27</ele>
        <time>2015-02-11T08:44:17Z</time>
      </trkpt>
      <trkpt lat="43.74433" lon="3.56343">
        <ele>71.27</ele>
        <time>2015-02-11T08:44:27Z</time>
      </trkpt>
      <trkpt lat="43.74434" lon="3.56337">
        <ele>71.27</ele>
        <time>2015-02-11T08:44:32Z</time>
      </trkpt>
      <trkpt lat="43.74438" lon="3.56324">
        <ele>70.79</ele>
        <time>2015-02-11T08:44:43Z</time>
      </trkpt>
      <trkpt lat="43.7444" lon="3.56324">
        <ele>70.79</ele>
        <time>2015-02-11T08:44:45Z</time>
      </trkpt>
      <trkpt lat="43.74445" lon="3.56322">
        <ele>70.31</ele>
        <time>2015-02-11T08:44:51Z</time>
      </trkpt>
      <trkpt lat="43.7445" lon="3.56322">
        <ele>69.35</ele>
        <time>2015-02-11T08:44:55Z</time>
      </trkpt>
      <trkpt lat="43.74452" lon="3.56322">
        <ele>69.35</ele>
        <time>2015-02-11T08:44:57Z</time>
      </trkpt>
      <trkpt lat="43.74463" lon="3.56322">
        <ele>69.35</ele>
        <time>2015-02-11T08:45:07Z</time>
      </trkpt>
      <trkpt lat="43.74481" lon="3.56321">
        <ele>69.83</ele>
        <time>2015-02-11T08:45:22Z</time>
      </trkpt>
      <trkpt lat="43.74495" lon="3.56319">
        <ele>70.31</ele>
        <time>2015-02-11T08:45:34Z</time>
      </trkpt>
      <trkpt lat="43.74503" lon="3.56319">
        <ele>70.79</ele>
        <time>2015-02-11T08:45:40Z</time>
      </trkpt>
      <trkpt lat="43.74506" lon="3.56319">
        <ele>70.79</ele>
        <time>2015-02-11T08:45:43Z</time>
      </trkpt>
      <trkpt lat="43.74508" lon="3.56319">
        <ele>71.27</ele>
        <time>2015-02-11T08:45:45Z</time>
      </trkpt>
      <trkpt lat="43.7451" lon="3.56319">
        <ele>71.27</ele>
        <time>2015-02-11T08:45:47Z</time>
      </trkpt>
      <trkpt lat="43.7453" lon="3.56317">
        <ele>73.2</ele>
        <time>2015-02-11T08:46:04Z</time>
      </trkpt>
      <trkpt lat="43.74547" lon="3.56313">
        <ele>73.68</ele>
        <time>2015-02-11T08:46:18Z</time>
      </trkpt>
      <trkpt lat="43.74562" lon="3.56308">
        <ele>74.16</ele>
        <time>2015-02-11T08:46:31Z</time>
      </trkpt>
      <trkpt lat="43.74581" lon="3.56305">
        <ele>75.6</ele>
        <time>2015-02-11T08:46:47Z</time>
      </trkpt>
      <trkpt lat="43.7459" lon="3.5631">
        <ele>75.6</ele>
        <time>2015-02-11T08:46:55Z</time>
      </trkpt>
      <trkpt lat="43.74603" lon="3.5632">
        <ele>75.6</ele>
        <time>2015-02-11T08:47:08Z</time>
      </trkpt>
      <trkpt lat="43.74621" lon="3.56335">
        <ele>76.56</ele>
        <time>2015-02-11T08:47:24Z</time>
      </trkpt>
      <trkpt lat="43.74644" lon="3.56336">
        <ele>78</ele>
        <time>2015-02-11T08:47:40Z</time>
      </trkpt>
      <trkpt lat="43.74653" lon="3.5632">
        <ele>77.52</ele>
        <time>2015-02-11T08:47:53Z</time>
      </trkpt>
      <trkpt lat="43.74648" lon="3.56291">
        <ele>78</ele>
        <time>2015-02-11T08:48:10Z</time>
      </trkpt>
      <trkpt lat="43.74639" lon="3.56267">
        <ele>78.48</ele>
        <time>2015-02-11T08:48:25Z</time>
      </trkpt>
      <trkpt lat="43.74637" lon="3.56252">
        <ele>78.97</ele>
        <time>2015-02-11T08:48:33Z</time>
      </trkpt>
      <trkpt lat="43.74637" lon="3.56228">
        <ele>79.45</ele>
        <time>2015-02-11T08:48:46Z</time>
      </trkpt>
      <trkpt lat="43.74645" lon="3.56206">
        <ele>80.41</ele>
        <time>2015-02-11T08:49:00Z</time>
      </trkpt>
      <trkpt lat="43.74657" lon="3.56194">
        <ele>80.41</ele>
        <time>2015-02-11T08:49:12Z</time>
      </trkpt>
      <trkpt lat="43.74667" lon="3.56184">
        <ele>80.41</ele>
        <time>2015-02-11T08:49:26Z</time>
      </trkpt>
      <trkpt lat="43.74667" lon="3.56182">
        <ele>80.41</ele>
        <time>2015-02-11T08:49:36Z</time>
      </trkpt>
      <trkpt lat="43.74669" lon="3.56182">
        <ele>80.41</ele>
        <time>2015-02-11T08:49:38Z</time>
      </trkpt>
      <trkpt lat="43.74681" lon="3.56167">
        <ele>80.89</ele>
        <time>2015-02-11T08:49:52Z</time>
      </trkpt>
      <trkpt lat="43.74691" lon="3.56152">
        <ele>81.37</ele>
        <time>2015-02-11T08:50:05Z</time>
      </trkpt>
      <trkpt lat="43.74701" lon="3.56138">
        <ele>82.81</ele>
        <time>2015-02-11T08:50:19Z</time>
      </trkpt>
      <trkpt lat="43.74704" lon="3.56133">
        <ele>82.81</ele>
        <time>2015-02-11T08:50:23Z</time>
      </trkpt>
      <trkpt lat="43.74706" lon="3.5613">
        <ele>83.29</ele>
        <time>2015-02-11T08:50:26Z</time>
      </trkpt>
      <trkpt lat="43.74716" lon="3.5612">
        <ele>83.77</ele>
        <time>2015-02-11T08:50:43Z</time>
      </trkpt>
      <trkpt lat="43.74726" lon="3.56109">
        <ele>84.73</ele>
        <time>2015-02-11T08:50:58Z</time>
      </trkpt>
      <trkpt lat="43.74734" lon="3.56104">
        <ele>84.73</ele>
        <time>2015-02-11T08:51:05Z</time>
      </trkpt>
      <trkpt lat="43.74751" lon="3.56092">
        <ele>84.25</ele>
        <time>2015-02-11T08:51:19Z</time>
      </trkpt>
      <trkpt lat="43.74756" lon="3.56089">
        <ele>84.25</ele>
        <time>2015-02-11T08:51:24Z</time>
      </trkpt>
      <trkpt lat="43.74763" lon="3.56088">
        <ele>84.73</ele>
        <time>2015-02-11T08:51:29Z</time>
      </trkpt>
      <trkpt lat="43.74771" lon="3.56079">
        <ele>83.29</ele>
        <time>2015-02-11T08:51:41Z</time>
      </trkpt>
      <trkpt lat="43.74775" lon="3.56066">
        <ele>85.21</ele>
        <time>2015-02-11T08:51:54Z</time>
      </trkpt>
      <trkpt lat="43.74777" lon="3.56053">
        <ele>86.66</ele>
        <time>2015-02-11T08:52:06Z</time>
      </trkpt>
      <trkpt lat="43.74774" lon="3.56042">
        <ele>85.21</ele>
        <time>2015-02-11T08:52:18Z</time>
      </trkpt>
      <trkpt lat="43.74768" lon="3.56024">
        <ele>85.69</ele>
        <time>2015-02-11T08:52:34Z</time>
      </trkpt>
      <trkpt lat="43.74768" lon="3.56023">
        <ele>85.69</ele>
        <time>2015-02-11T08:52:35Z</time>
      </trkpt>
      <trkpt lat="43.74769" lon="3.5601">
        <ele>86.18</ele>
        <time>2015-02-11T08:52:47Z</time>
      </trkpt>
      <trkpt lat="43.7477" lon="3.55996">
        <ele>86.66</ele>
        <time>2015-02-11T08:53:02Z</time>
      </trkpt>
      <trkpt lat="43.74773" lon="3.55991">
        <ele>86.18</ele>
        <time>2015-02-11T08:53:06Z</time>
      </trkpt>
      <trkpt lat="43.74775" lon="3.55987">
        <ele>86.66</ele>
        <time>2015-02-11T08:53:10Z</time>
      </trkpt>
      <trkpt lat="43.74782" lon="3.5598">
        <ele>87.14</ele>
        <time>2015-02-11T08:53:21Z</time>
      </trkpt>
      <trkpt lat="43.74788" lon="3.55974">
        <ele>90.02</ele>
        <time>2015-02-11T08:53:33Z</time>
      </trkpt>
      <trkpt lat="43.74791" lon="3.55974">
        <ele>90.02</ele>
        <time>2015-02-11T08:53:43Z</time>
      </trkpt>
      <trkpt lat="43.74791" lon="3.55974">
        <ele>90.02</ele>
        <time>2015-02-11T08:53:47Z</time>
      </trkpt>
      <trkpt lat="43.74791" lon="3.55974">
        <ele>90.02</ele>
        <time>2015-02-11T08:53:57Z</time>
      </trkpt>
      <trkpt lat="43.74791" lon="3.55972">
        <ele>89.06</ele>
        <time>2015-02-11T08:54:10Z</time>
      </trkpt>
      <trkpt lat="43.7479" lon="3.55972">
        <ele>90.02</ele>
        <time>2015-02-11T08:54:22Z</time>
      </trkpt>
      <trkpt lat="43.7479" lon="3.55972">
        <ele>89.54</ele>
        <time>2015-02-11T08:54:36Z</time>
      </trkpt>
      <trkpt lat="43.7479" lon="3.55972">
        <ele>89.54</ele>
        <time>2015-02-11T08:54:50Z</time>
      </trkpt>
      <trkpt lat="43.74795" lon="3.55968">
        <ele>90.5</ele>
        <time>2015-02-11T08:55:02Z</time>
      </trkpt>
      <trkpt lat="43.74797" lon="3.55963">
        <ele>90.02</ele>
        <time>2015-02-11T08:55:06Z</time>
      </trkpt>
      <trkpt lat="43.74806" lon="3.55944">
        <ele>90.02</ele>
        <time>2015-02-11T08:55:21Z</time>
      </trkpt>
      <trkpt lat="43.74807" lon="3.55943">
        <ele>89.54</ele>
        <time>2015-02-11T08:55:22Z</time>
      </trkpt>
      <trkpt lat="43.7481" lon="3.55938">
        <ele>90.5</ele>
        <time>2015-02-11T08:55:26Z</time>
      </trkpt>
      <trkpt lat="43.74812" lon="3.55935">
        <ele>90.5</ele>
        <time>2015-02-11T08:55:29Z</time>
      </trkpt>
      <trkpt lat="43.74815" lon="3.55926">
        <ele>90.5</ele>
        <time>2015-02-11T08:55:35Z</time>
      </trkpt>
      <trkpt lat="43.74821" lon="3.55915">
        <ele>90.5</ele>
        <time>2015-02-11T08:55:43Z</time>
      </trkpt>
      <trkpt lat="43.74827" lon="3.55905">
        <ele>90.5</ele>
        <time>2015-02-11T08:55:50Z</time>
      </trkpt>
      <trkpt lat="43.74843" lon="3.55888">
        <ele>91.46</ele>
        <time>2015-02-11T08:56:06Z</time>
      </trkpt>
      <trkpt lat="43.74847" lon="3.55878">
        <ele>91.94</ele>
        <time>2015-02-11T08:56:13Z</time>
      </trkpt>
      <trkpt lat="43.74849" lon="3.55871">
        <ele>91.46</ele>
        <time>2015-02-11T08:56:19Z</time>
      </trkpt>
      <trkpt lat="43.74856" lon="3.55869">
        <ele>92.42</ele>
        <time>2015-02-11T08:56:28Z</time>
      </trkpt>
      <trkpt lat="43.74868" lon="3.55864">
        <ele>93.39</ele>
        <time>2015-02-11T08:56:38Z</time>
      </trkpt>
      <trkpt lat="43.74878" lon="3.55855">
        <ele>93.87</ele>
        <time>2015-02-11T08:56:51Z</time>
      </trkpt>
      <trkpt lat="43.7489" lon="3.55847">
        <ele>94.83</ele>
        <time>2015-02-11T08:57:04Z</time>
      </trkpt>
      <trkpt lat="43.74897" lon="3.55844">
        <ele>94.83</ele>
        <time>2015-02-11T08:57:10Z</time>
      </trkpt>
      <trkpt lat="43.74898" lon="3.55843">
        <ele>94.83</ele>
        <time>2015-02-11T08:57:12Z</time>
      </trkpt>
      <trkpt lat="43.7491" lon="3.55842">
        <ele>96.27</ele>
        <time>2015-02-11T08:57:23Z</time>
      </trkpt>
      <trkpt lat="43.74916" lon="3.55837">
        <ele>97.23</ele>
        <time>2015-02-11T08:57:29Z</time>
      </trkpt>
      <trkpt lat="43.74921" lon="3.55828">
        <ele>97.23</ele>
        <time>2015-02-11T08:57:36Z</time>
      </trkpt>
      <trkpt lat="43.74933" lon="3.55828">
        <ele>99.15</ele>
        <time>2015-02-11T08:57:50Z</time>
      </trkpt>
      <trkpt lat="43.74945" lon="3.55827">
        <ele>99.15</ele>
        <time>2015-02-11T08:58:04Z</time>
      </trkpt>
      <trkpt lat="43.74957" lon="3.55833">
        <ele>100.6</ele>
        <time>2015-02-11T08:58:20Z</time>
      </trkpt>
      <trkpt lat="43.74965" lon="3.55836">
        <ele>101.56</ele>
        <time>2015-02-11T08:58:34Z</time>
      </trkpt>
      <trkpt lat="43.74967" lon="3.55834">
        <ele>101.56</ele>
        <time>2015-02-11T08:58:46Z</time>
      </trkpt>
      <trkpt lat="43.74966" lon="3.55833">
        <ele>101.56</ele>
        <time>2015-02-11T08:59:09Z</time>
      </trkpt>
      <trkpt lat="43.74967" lon="3.55835">
        <ele>101.56</ele>
        <time>2015-02-11T08:59:26Z</time>
      </trkpt>
      <trkpt lat="43.74966" lon="3.55835">
        <ele>101.56</ele>
        <time>2015-02-11T08:59:51Z</time>
      </trkpt>
      <trkpt lat="43.7497" lon="3.55837">
        <ele>101.56</ele>
        <time>2015-02-11T09:00:05Z</time>
      </trkpt>
      <trkpt lat="43.74978" lon="3.55849">
        <ele>102.52</ele>
        <time>2015-02-11T09:00:18Z</time>
      </trkpt>
      <trkpt lat="43.74989" lon="3.55859">
        <ele>103.48</ele>
        <time>2015-02-11T09:00:35Z</time>
      </trkpt>
      <trkpt lat="43.74994" lon="3.5586">
        <ele>104.44</ele>
        <time>2015-02-11T09:00:46Z</time>
      </trkpt>
      <trkpt lat="43.75008" lon="3.55863">
        <ele>106.36</ele>
        <time>2015-02-11T09:01:03Z</time>
      </trkpt>
      <trkpt lat="43.75012" lon="3.5586">
        <ele>107.32</ele>
        <time>2015-02-11T09:01:20Z</time>
      </trkpt>
      <trkpt lat="43.75011" lon="3.55868">
        <ele>109.25</ele>
        <time>2015-02-11T09:01:34Z</time>
      </trkpt>
      <trkpt lat="43.75009" lon="3.5587">
        <ele>110.69</ele>
        <time>2015-02-11T09:01:49Z</time>
      </trkpt>
      <trkpt lat="43.75006" lon="3.55878">
        <ele>112.61</ele>
        <time>2015-02-11T09:02:01Z</time>
      </trkpt>
      <trkpt lat="43.75003" lon="3.55884">
        <ele>115.01</ele>
        <time>2015-02-11T09:02:14Z</time>
      </trkpt>
      <trkpt lat="43.74998" lon="3.55885">
        <ele>116.46</ele>
        <time>2015-02-11T09:02:27Z</time>
      </trkpt>
      <trkpt lat="43.74994" lon="3.55889">
        <ele>118.86</ele>
        <time>2015-02-11T09:02:46Z</time>
      </trkpt>
      <trkpt lat="43.74989" lon="3.55889">
        <ele>120.78</ele>
        <time>2015-02-11T09:02:58Z</time>
      </trkpt>
      <trkpt lat="43.74986" lon="3.55894">
        <ele>124.15</ele>
        <time>2015-02-11T09:03:11Z</time>
      </trkpt>
      <trkpt lat="43.7498" lon="3.55901">
        <ele>127.51</ele>
        <time>2015-02-11T09:03:27Z</time>
      </trkpt>
      <trkpt lat="43.74975" lon="3.55911">
        <ele>130.4</ele>
        <time>2015-02-11T09:03:43Z</time>
      </trkpt>
      <trkpt lat="43.74972" lon="3.5592">
        <ele>133.76</ele>
        <time>2015-02-11T09:03:59Z</time>
      </trkpt>
      <trkpt lat="43.7497" lon="3.5592">
        <ele>135.68</ele>
        <time>2015-02-11T09:04:10Z</time>
      </trkpt>
      <trkpt lat="43.74969" lon="3.55918">
        <ele>136.16</ele>
        <time>2015-02-11T09:04:23Z</time>
      </trkpt>
      <trkpt lat="43.74969" lon="3.55918">
        <ele>136.16</ele>
        <time>2015-02-11T09:04:36Z</time>
      </trkpt>
      <trkpt lat="43.74968" lon="3.55914">
        <ele>136.16</ele>
        <time>2015-02-11T09:05:06Z</time>
      </trkpt>
      <trkpt lat="43.74967" lon="3.55914">
        <ele>136.16</ele>
        <time>2015-02-11T09:05:23Z</time>
      </trkpt>
      <trkpt lat="43.74969" lon="3.55917">
        <ele>136.16</ele>
        <time>2015-02-11T09:05:47Z</time>
      </trkpt>
      <trkpt lat="43.74968" lon="3.55916">
        <ele>136.16</ele>
        <time>2015-02-11T09:06:04Z</time>
      </trkpt>
      <trkpt lat="43.74967" lon="3.55919">
        <ele>137.13</ele>
        <time>2015-02-11T09:06:18Z</time>
      </trkpt>
      <trkpt lat="43.74969" lon="3.55922">
        <ele>137.61</ele>
        <time>2015-02-11T09:06:39Z</time>
      </trkpt>
      <trkpt lat="43.74972" lon="3.55924">
        <ele>139.05</ele>
        <time>2015-02-11T09:06:53Z</time>
      </trkpt>
      <trkpt lat="43.74971" lon="3.55927">
        <ele>139.53</ele>
        <time>2015-02-11T09:07:14Z</time>
      </trkpt>
      <trkpt lat="43.74971" lon="3.55925">
        <ele>139.53</ele>
        <time>2015-02-11T09:07:33Z</time>
      </trkpt>
      <trkpt lat="43.7497" lon="3.55929">
        <ele>141.93</ele>
        <time>2015-02-11T09:07:47Z</time>
      </trkpt>
      <trkpt lat="43.74968" lon="3.55937">
        <ele>145.78</ele>
        <time>2015-02-11T09:08:00Z</time>
      </trkpt>
      <trkpt lat="43.74969" lon="3.55938">
        <ele>147.7</ele>
        <time>2015-02-11T09:08:12Z</time>
      </trkpt>
      <trkpt lat="43.74968" lon="3.55944">
        <ele>149.14</ele>
        <time>2015-02-11T09:08:25Z</time>
      </trkpt>
      <trkpt lat="43.74967" lon="3.55946">
        <ele>150.58</ele>
        <time>2015-02-11T09:08:36Z</time>
      </trkpt>
      <trkpt lat="43.74969" lon="3.55948">
        <ele>152.51</ele>
        <time>2015-02-11T09:08:47Z</time>
      </trkpt>
      <trkpt lat="43.7497" lon="3.55948">
        <ele>152.03</ele>
        <time>2015-02-11T09:08:57Z</time>
      </trkpt>
      <trkpt lat="43.74972" lon="3.55947">
        <ele>152.03</ele>
        <time>2015-02-11T09:09:15Z</time>
      </trkpt>
      <trkpt lat="43.74974" lon="3.55946">
        <ele>152.03</ele>
        <time>2015-02-11T09:09:31Z</time>
      </trkpt>
      <trkpt lat="43.74972" lon="3.55947">
        <ele>152.03</ele>
        <time>2015-02-11T09:09:51Z</time>
      </trkpt>
      <trkpt lat="43.74972" lon="3.5595">
        <ele>151.54</ele>
        <time>2015-02-11T09:10:06Z</time>
      </trkpt>
      <trkpt lat="43.74969" lon="3.55958">
        <ele>151.54</ele>
        <time>2015-02-11T09:10:19Z</time>
      </trkpt>
      <trkpt lat="43.74967" lon="3.55961">
        <ele>151.06</ele>
        <time>2015-02-11T09:10:48Z</time>
      </trkpt>
      <trkpt lat="43.74969" lon="3.55962">
        <ele>152.03</ele>
        <time>2015-02-11T09:11:02Z</time>
      </trkpt>
      <trkpt lat="43.74969" lon="3.55961">
        <ele>151.06</ele>
        <time>2015-02-11T09:11:15Z</time>
      </trkpt>
      <trkpt lat="43.74962" lon="3.55961">
        <ele>148.18</ele>
        <time>2015-02-11T09:11:26Z</time>
      </trkpt>
      <trkpt lat="43.7495" lon="3.5596">
        <ele>145.78</ele>
        <time>2015-02-11T09:11:41Z</time>
      </trkpt>
      <trkpt lat="43.74948" lon="3.5596">
        <ele>146.26</ele>
        <time>2015-02-11T09:12:02Z</time>
      </trkpt>
      <trkpt lat="43.74946" lon="3.5596">
        <ele>145.3</ele>
        <time>2015-02-11T09:12:07Z</time>
      </trkpt>
      <trkpt lat="43.74935" lon="3.55956">
        <ele>143.85</ele>
        <time>2015-02-11T09:12:16Z</time>
      </trkpt>
      <trkpt lat="43.7493" lon="3.55964">
        <ele>146.26</ele>
        <time>2015-02-11T09:12:28Z</time>
      </trkpt>
      <trkpt lat="43.74926" lon="3.55971">
        <ele>149.14</ele>
        <time>2015-02-11T09:12:41Z</time>
      </trkpt>
      <trkpt lat="43.74928" lon="3.55968">
        <ele>148.66</ele>
        <time>2015-02-11T09:12:53Z</time>
      </trkpt>
      <trkpt lat="43.74933" lon="3.55974">
        <ele>150.1</ele>
        <time>2015-02-11T09:13:05Z</time>
      </trkpt>
      <trkpt lat="43.74934" lon="3.55978">
        <ele>153.47</ele>
        <time>2015-02-11T09:13:15Z</time>
      </trkpt>
      <trkpt lat="43.74934" lon="3.55977">
        <ele>153.95</ele>
        <time>2015-02-11T09:13:34Z</time>
      </trkpt>
      <trkpt lat="43.74934" lon="3.5598">
        <ele>154.43</ele>
        <time>2015-02-11T09:13:39Z</time>
      </trkpt>
      <trkpt lat="43.74937" lon="3.55982">
        <ele>156.83</ele>
        <time>2015-02-11T09:13:52Z</time>
      </trkpt>
      <trkpt lat="43.7494" lon="3.55982">
        <ele>158.75</ele>
        <time>2015-02-11T09:14:04Z</time>
      </trkpt>
      <trkpt lat="43.7494" lon="3.55982">
        <ele>160.68</ele>
        <time>2015-02-11T09:14:18Z</time>
      </trkpt>
      <trkpt lat="43.74945" lon="3.55985">
        <ele>162.12</ele>
        <time>2015-02-11T09:14:28Z</time>
      </trkpt>
      <trkpt lat="43.74947" lon="3.55983">
        <ele>163.08</ele>
        <time>2015-02-11T09:14:40Z</time>
      </trkpt>
      <trkpt lat="43.74947" lon="3.55983">
        <ele>162.6</ele>
        <time>2015-02-11T09:15:00Z</time>
      </trkpt>
      <trkpt lat="43.74947" lon="3.55984">
        <ele>162.6</ele>
        <time>2015-02-11T09:15:22Z</time>
      </trkpt>
      <trkpt lat="43.74945" lon="3.55984">
        <ele>162.6</ele>
        <time>2015-02-11T09:15:52Z</time>
      </trkpt>
      <trkpt lat="43.74944" lon="3.55984">
        <ele>162.6</ele>
        <time>2015-02-11T09:16:29Z</time>
      </trkpt>
      <trkpt lat="43.74947" lon="3.5599">
        <ele>162.6</ele>
        <time>2015-02-11T09:16:40Z</time>
      </trkpt>
      <trkpt lat="43.74948" lon="3.55996">
        <ele>162.6</ele>
        <time>2015-02-11T09:16:51Z</time>
      </trkpt>
      <trkpt lat="43.74948" lon="3.55997">
        <ele>163.08</ele>
        <time>2015-02-11T09:16:54Z</time>
      </trkpt>
      <trkpt lat="43.74951" lon="3.55999">
        <ele>164.52</ele>
        <time>2015-02-11T09:17:04Z</time>
      </trkpt>
      <trkpt lat="43.74953" lon="3.56003">
        <ele>165.48</ele>
        <time>2015-02-11T09:17:14Z</time>
      </trkpt>
      <trkpt lat="43.74956" lon="3.56005">
        <ele>166.45</ele>
        <time>2015-02-11T09:17:25Z</time>
      </trkpt>
      <trkpt lat="43.74959" lon="3.56005">
        <ele>168.37</ele>
        <time>2015-02-11T09:17:36Z</time>
      </trkpt>
      <trkpt lat="43.7496" lon="3.5601">
        <ele>168.37</ele>
        <time>2015-02-11T09:17:42Z</time>
      </trkpt>
      <trkpt lat="43.74966" lon="3.5601">
        <ele>170.29</ele>
        <time>2015-02-11T09:17:53Z</time>
      </trkpt>
      <trkpt lat="43.74972" lon="3.56007">
        <ele>173.17</ele>
        <time>2015-02-11T09:18:07Z</time>
      </trkpt>
      <trkpt lat="43.74972" lon="3.56006">
        <ele>173.17</ele>
        <time>2015-02-11T09:18:28Z</time>
      </trkpt>
      <trkpt lat="43.74976" lon="3.56008">
        <ele>173.66</ele>
        <time>2015-02-11T09:18:41Z</time>
      </trkpt>
      <trkpt lat="43.7498" lon="3.56003">
        <ele>173.66</ele>
        <time>2015-02-11T09:18:53Z</time>
      </trkpt>
      <trkpt lat="43.74983" lon="3.55999">
        <ele>174.62</ele>
        <time>2015-02-11T09:19:07Z</time>
      </trkpt>
      <trkpt lat="43.74988" lon="3.55997">
        <ele>176.54</ele>
        <time>2015-02-11T09:19:19Z</time>
      </trkpt>
      <trkpt lat="43.74991" lon="3.55991">
        <ele>176.54</ele>
        <time>2015-02-11T09:19:33Z</time>
      </trkpt>
      <trkpt lat="43.74993" lon="3.5599">
        <ele>176.54</ele>
        <time>2015-02-11T09:19:47Z</time>
      </trkpt>
      <trkpt lat="43.74992" lon="3.5599">
        <ele>175.58</ele>
        <time>2015-02-11T09:20:01Z</time>
      </trkpt>
      <trkpt lat="43.74991" lon="3.5599">
        <ele>174.62</ele>
        <time>2015-02-11T09:20:09Z</time>
      </trkpt>
      <trkpt lat="43.74998" lon="3.55988">
        <ele>173.17</ele>
        <time>2015-02-11T09:20:18Z</time>
      </trkpt>
      <trkpt lat="43.75006" lon="3.55987">
        <ele>174.14</ele>
        <time>2015-02-11T09:20:31Z</time>
      </trkpt>
      <trkpt lat="43.7501" lon="3.55987">
        <ele>173.17</ele>
        <time>2015-02-11T09:20:44Z</time>
      </trkpt>
      <trkpt lat="43.75013" lon="3.55983">
        <ele>174.62</ele>
        <time>2015-02-11T09:20:57Z</time>
      </trkpt>
      <trkpt lat="43.75015" lon="3.55979">
        <ele>175.58</ele>
        <time>2015-02-11T09:21:07Z</time>
      </trkpt>
      <trkpt lat="43.75016" lon="3.55979">
        <ele>175.58</ele>
        <time>2015-02-11T09:21:08Z</time>
      </trkpt>
      <trkpt lat="43.75023" lon="3.55977">
        <ele>178.46</ele>
        <time>2015-02-11T09:21:21Z</time>
      </trkpt>
      <trkpt lat="43.75027" lon="3.55976">
        <ele>180.87</ele>
        <time>2015-02-11T09:21:37Z</time>
      </trkpt>
      <trkpt lat="43.75028" lon="3.55972">
        <ele>180.38</ele>
        <time>2015-02-11T09:21:51Z</time>
      </trkpt>
      <trkpt lat="43.75033" lon="3.55972">
        <ele>181.83</ele>
        <time>2015-02-11T09:22:03Z</time>
      </trkpt>
      <trkpt lat="43.75035" lon="3.55975">
        <ele>182.79</ele>
        <time>2015-02-11T09:22:20Z</time>
      </trkpt>
      <trkpt lat="43.75037" lon="3.55977">
        <ele>183.27</ele>
        <time>2015-02-11T09:22:34Z</time>
      </trkpt>
      <trkpt lat="43.75036" lon="3.55976">
        <ele>183.27</ele>
        <time>2015-02-11T09:22:50Z</time>
      </trkpt>
      <trkpt lat="43.75033" lon="3.55972">
        <ele>182.31</ele>
        <time>2015-02-11T09:23:03Z</time>
      </trkpt>
      <trkpt lat="43.75036" lon="3.55973">
        <ele>183.75</ele>
        <time>2015-02-11T09:23:17Z</time>
      </trkpt>
      <trkpt lat="43.75037" lon="3.55973">
        <ele>183.75</ele>
        <time>2015-02-11T09:23:33Z</time>
      </trkpt>
      <trkpt lat="43.75041" lon="3.55973">
        <ele>181.35</ele>
        <time>2015-02-11T09:23:42Z</time>
      </trkpt>
      <trkpt lat="43.75048" lon="3.55973">
        <ele>179.9</ele>
        <time>2015-02-11T09:23:54Z</time>
      </trkpt>
      <trkpt lat="43.75054" lon="3.55974">
        <ele>181.83</ele>
        <time>2015-02-11T09:24:09Z</time>
      </trkpt>
      <trkpt lat="43.7506" lon="3.55972">
        <ele>184.23</ele>
        <time>2015-02-11T09:24:21Z</time>
      </trkpt>
      <trkpt lat="43.75068" lon="3.55972">
        <ele>186.15</ele>
        <time>2015-02-11T09:24:33Z</time>
      </trkpt>
      <trkpt lat="43.75076" lon="3.55968">
        <ele>189.04</ele>
        <time>2015-02-11T09:24:45Z</time>
      </trkpt>
      <trkpt lat="43.7508" lon="3.55969">
        <ele>189.04</ele>
        <time>2015-02-11T09:24:55Z</time>
      </trkpt>
      <trkpt lat="43.75083" lon="3.5597">
        <ele>191.44</ele>
        <time>2015-02-11T09:25:08Z</time>
      </trkpt>
      <trkpt lat="43.75083" lon="3.55969">
        <ele>191.44</ele>
        <time>2015-02-11T09:25:23Z</time>
      </trkpt>
      <trkpt lat="43.75083" lon="3.55969">
        <ele>190.96</ele>
        <time>2015-02-11T09:25:45Z</time>
      </trkpt>
      <trkpt lat="43.75083" lon="3.5597">
        <ele>190.96</ele>
        <time>2015-02-11T09:26:03Z</time>
      </trkpt>
      <trkpt lat="43.75083" lon="3.5597">
        <ele>191.44</ele>
        <time>2015-02-11T09:26:19Z</time>
      </trkpt>
      <trkpt lat="43.75084" lon="3.55973">
        <ele>192.88</ele>
        <time>2015-02-11T09:26:33Z</time>
      </trkpt>
      <trkpt lat="43.75087" lon="3.5597">
        <ele>192.4</ele>
        <time>2015-02-11T09:26:46Z</time>
      </trkpt>
      <trkpt lat="43.7509" lon="3.55967">
        <ele>190</ele>
        <time>2015-02-11T09:26:57Z</time>
      </trkpt>
      <trkpt lat="43.75092" lon="3.55967">
        <ele>191.44</ele>
        <time>2015-02-11T09:27:12Z</time>
      </trkpt>
      <trkpt lat="43.7509" lon="3.55969">
        <ele>191.92</ele>
        <time>2015-02-11T09:27:32Z</time>
      </trkpt>
      <trkpt lat="43.75091" lon="3.55969">
        <ele>191.92</ele>
        <time>2015-02-11T09:28:00Z</time>
      </trkpt>
      <trkpt lat="43.75094" lon="3.55967">
        <ele>193.36</ele>
        <time>2015-02-11T09:28:12Z</time>
      </trkpt>
      <trkpt lat="43.75096" lon="3.55967">
        <ele>193.84</ele>
        <time>2015-02-11T09:28:28Z</time>
      </trkpt>
      <trkpt lat="43.75098" lon="3.55966">
        <ele>192.4</ele>
        <time>2015-02-11T09:28:42Z</time>
      </trkpt>
      <trkpt lat="43.75101" lon="3.55964">
        <ele>192.4</ele>
        <time>2015-02-11T09:28:59Z</time>
      </trkpt>
      <trkpt lat="43.75105" lon="3.55961">
        <ele>193.36</ele>
        <time>2015-02-11T09:29:15Z</time>
      </trkpt>
      <trkpt lat="43.75112" lon="3.55965">
        <ele>194.8</ele>
        <time>2015-02-11T09:29:28Z</time>
      </trkpt>
      <trkpt lat="43.75117" lon="3.55965">
        <ele>194.32</ele>
        <time>2015-02-11T09:29:40Z</time>
      </trkpt>
      <trkpt lat="43.75125" lon="3.55967">
        <ele>192.88</ele>
        <time>2015-02-11T09:29:55Z</time>
      </trkpt>
      <trkpt lat="43.75127" lon="3.55964">
        <ele>191.92</ele>
        <time>2015-02-11T09:30:07Z</time>
      </trkpt>
      <trkpt lat="43.75133" lon="3.55968">
        <ele>192.4</ele>
        <time>2015-02-11T09:30:19Z</time>
      </trkpt>
      <trkpt lat="43.75137" lon="3.55968">
        <ele>192.88</ele>
        <time>2015-02-11T09:30:32Z</time>
      </trkpt>
      <trkpt lat="43.75142" lon="3.55972">
        <ele>193.84</ele>
        <time>2015-02-11T09:30:46Z</time>
      </trkpt>
      <trkpt lat="43.75146" lon="3.55976">
        <ele>194.32</ele>
        <time>2015-02-11T09:30:58Z</time>
      </trkpt>
      <trkpt lat="43.75148" lon="3.55981">
        <ele>195.28</ele>
        <time>2015-02-11T09:31:13Z</time>
      </trkpt>
      <trkpt lat="43.75149" lon="3.55982">
        <ele>196.25</ele>
        <time>2015-02-11T09:31:29Z</time>
      </trkpt>
      <trkpt lat="43.75152" lon="3.55984">
        <ele>197.21</ele>
        <time>2015-02-11T09:31:44Z</time>
      </trkpt>
      <trkpt lat="43.75151" lon="3.55983">
        <ele>195.28</ele>
        <time>2015-02-11T09:31:58Z</time>
      </trkpt>
      <trkpt lat="43.75148" lon="3.5598">
        <ele>194.32</ele>
        <time>2015-02-11T09:32:16Z</time>
      </trkpt>
      <trkpt lat="43.75147" lon="3.55978">
        <ele>195.77</ele>
        <time>2015-02-11T09:32:37Z</time>
      </trkpt>
      <trkpt lat="43.75147" lon="3.55977">
        <ele>197.21</ele>
        <time>2015-02-11T09:33:00Z</time>
      </trkpt>
      <trkpt lat="43.75149" lon="3.55976">
        <ele>198.65</ele>
        <time>2015-02-11T09:33:21Z</time>
      </trkpt>
      <trkpt lat="43.7515" lon="3.55973">
        <ele>198.65</ele>
        <time>2015-02-11T09:33:42Z</time>
      </trkpt>
      <trkpt lat="43.75151" lon="3.55975">
        <ele>200.09</ele>
        <time>2015-02-11T09:33:55Z</time>
      </trkpt>
      <trkpt lat="43.75149" lon="3.55976">
        <ele>200.09</ele>
        <time>2015-02-11T09:34:12Z</time>
      </trkpt>
      <trkpt lat="43.75153" lon="3.55978">
        <ele>202.49</ele>
        <time>2015-02-11T09:34:26Z</time>
      </trkpt>
      <trkpt lat="43.75153" lon="3.55979">
        <ele>204.42</ele>
        <time>2015-02-11T09:34:41Z</time>
      </trkpt>
      <trkpt lat="43.75152" lon="3.55977">
        <ele>204.42</ele>
        <time>2015-02-11T09:35:05Z</time>
      </trkpt>
      <trkpt lat="43.75159" lon="3.55979">
        <ele>204.42</ele>
        <time>2015-02-11T09:35:18Z</time>
      </trkpt>
      <trkpt lat="43.75164" lon="3.55975">
        <ele>205.86</ele>
        <time>2015-02-11T09:35:30Z</time>
      </trkpt>
      <trkpt lat="43.75172" lon="3.55977">
        <ele>208.26</ele>
        <time>2015-02-11T09:35:44Z</time>
      </trkpt>
      <trkpt lat="43.75175" lon="3.55978">
        <ele>210.19</ele>
        <time>2015-02-11T09:35:57Z</time>
      </trkpt>
      <trkpt lat="43.7518" lon="3.55979">
        <ele>212.11</ele>
        <time>2015-02-11T09:36:13Z</time>
      </trkpt>
      <trkpt lat="43.75181" lon="3.5598">
        <ele>212.59</ele>
        <time>2015-02-11T09:36:28Z</time>
      </trkpt>
      <trkpt lat="43.75184" lon="3.55979">
        <ele>214.03</ele>
        <time>2015-02-11T09:36:42Z</time>
      </trkpt>
      <trkpt lat="43.75188" lon="3.55976">
        <ele>214.99</ele>
        <time>2015-02-11T09:36:55Z</time>
      </trkpt>
      <trkpt lat="43.75193" lon="3.55975">
        <ele>214.51</ele>
        <time>2015-02-11T09:37:05Z</time>
      </trkpt>
      <trkpt lat="43.75194" lon="3.55979">
        <ele>214.99</ele>
        <time>2015-02-11T09:37:21Z</time>
      </trkpt>
      <trkpt lat="43.75196" lon="3.55979">
        <ele>216.91</ele>
        <time>2015-02-11T09:37:40Z</time>
      </trkpt>
      <trkpt lat="43.75197" lon="3.55981">
        <ele>216.91</ele>
        <time>2015-02-11T09:38:05Z</time>
      </trkpt>
      <trkpt lat="43.75198" lon="3.55983">
        <ele>217.4</ele>
        <time>2015-02-11T09:38:27Z</time>
      </trkpt>
      <trkpt lat="43.75197" lon="3.55986">
        <ele>217.4</ele>
        <time>2015-02-11T09:38:45Z</time>
      </trkpt>
      <trkpt lat="43.75197" lon="3.55982">
        <ele>218.84</ele>
        <time>2015-02-11T09:39:00Z</time>
      </trkpt>
      <trkpt lat="43.75196" lon="3.55981">
        <ele>219.32</ele>
        <time>2015-02-11T09:39:15Z</time>
      </trkpt>
      <trkpt lat="43.75196" lon="3.55981">
        <ele>218.84</ele>
        <time>2015-02-11T09:39:34Z</time>
      </trkpt>
      <trkpt lat="43.75195" lon="3.5598">
        <ele>219.32</ele>
        <time>2015-02-11T09:39:49Z</time>
      </trkpt>
      <trkpt lat="43.75197" lon="3.55978">
        <ele>220.28</ele>
        <time>2015-02-11T09:40:01Z</time>
      </trkpt>
      <trkpt lat="43.75198" lon="3.55976">
        <ele>221.72</ele>
        <time>2015-02-11T09:40:12Z</time>
      </trkpt>
      <trkpt lat="43.75202" lon="3.55976">
        <ele>220.28</ele>
        <time>2015-02-11T09:40:26Z</time>
      </trkpt>
      <trkpt lat="43.75204" lon="3.55979">
        <ele>221.72</ele>
        <time>2015-02-11T09:40:43Z</time>
      </trkpt>
      <trkpt lat="43.75205" lon="3.55981">
        <ele>221.24</ele>
        <time>2015-02-11T09:41:07Z</time>
      </trkpt>
      <trkpt lat="43.75207" lon="3.55983">
        <ele>219.32</ele>
        <time>2015-02-11T09:41:16Z</time>
      </trkpt>
      <trkpt lat="43.7521" lon="3.55984">
        <ele>217.88</ele>
        <time>2015-02-11T09:41:29Z</time>
      </trkpt>
      <trkpt lat="43.75216" lon="3.55983">
        <ele>218.84</ele>
        <time>2015-02-11T09:41:43Z</time>
      </trkpt>
      <trkpt lat="43.75221" lon="3.55984">
        <ele>221.72</ele>
        <time>2015-02-11T09:41:55Z</time>
      </trkpt>
      <trkpt lat="43.75223" lon="3.5599">
        <ele>224.61</ele>
        <time>2015-02-11T09:42:09Z</time>
      </trkpt>
      <trkpt lat="43.75224" lon="3.55991">
        <ele>226.05</ele>
        <time>2015-02-11T09:42:21Z</time>
      </trkpt>
      <trkpt lat="43.75224" lon="3.55992">
        <ele>227.49</ele>
        <time>2015-02-11T09:42:32Z</time>
      </trkpt>
      <trkpt lat="43.75228" lon="3.55991">
        <ele>227.01</ele>
        <time>2015-02-11T09:42:43Z</time>
      </trkpt>
      <trkpt lat="43.75233" lon="3.55987">
        <ele>229.89</ele>
        <time>2015-02-11T09:42:55Z</time>
      </trkpt>
      <trkpt lat="43.75235" lon="3.55987">
        <ele>231.33</ele>
        <time>2015-02-11T09:43:06Z</time>
      </trkpt>
      <trkpt lat="43.75236" lon="3.55986">
        <ele>233.26</ele>
        <time>2015-02-11T09:43:17Z</time>
      </trkpt>
      <trkpt lat="43.75237" lon="3.55986">
        <ele>233.74</ele>
        <time>2015-02-11T09:43:35Z</time>
      </trkpt>
      <trkpt lat="43.7524" lon="3.55983">
        <ele>236.14</ele>
        <time>2015-02-11T09:43:51Z</time>
      </trkpt>
      <trkpt lat="43.7524" lon="3.55981">
        <ele>237.58</ele>
        <time>2015-02-11T09:44:07Z</time>
      </trkpt>
      <trkpt lat="43.75243" lon="3.5598">
        <ele>239.02</ele>
        <time>2015-02-11T09:44:28Z</time>
      </trkpt>
      <trkpt lat="43.75245" lon="3.55976">
        <ele>239.51</ele>
        <time>2015-02-11T09:44:43Z</time>
      </trkpt>
      <trkpt lat="43.75251" lon="3.55978">
        <ele>241.43</ele>
        <time>2015-02-11T09:44:55Z</time>
      </trkpt>
      <trkpt lat="43.75256" lon="3.55976">
        <ele>244.31</ele>
        <time>2015-02-11T09:45:10Z</time>
      </trkpt>
      <trkpt lat="43.75261" lon="3.55974">
        <ele>246.72</ele>
        <time>2015-02-11T09:45:24Z</time>
      </trkpt>
      <trkpt lat="43.7526" lon="3.55975">
        <ele>246.72</ele>
        <time>2015-02-11T09:45:37Z</time>
      </trkpt>
      <trkpt lat="43.75259" lon="3.55975">
        <ele>247.2</ele>
        <time>2015-02-11T09:45:50Z</time>
      </trkpt>
      <trkpt lat="43.7526" lon="3.55977">
        <ele>246.72</ele>
        <time>2015-02-11T09:46:06Z</time>
      </trkpt>
      <trkpt lat="43.75261" lon="3.5598">
        <ele>246.23</ele>
        <time>2015-02-11T09:46:29Z</time>
      </trkpt>
      <trkpt lat="43.75262" lon="3.55975">
        <ele>246.23</ele>
        <time>2015-02-11T09:46:50Z</time>
      </trkpt>
      <trkpt lat="43.75259" lon="3.55974">
        <ele>246.23</ele>
        <time>2015-02-11T09:47:20Z</time>
      </trkpt>
      <trkpt lat="43.7526" lon="3.55978">
        <ele>247.2</ele>
        <time>2015-02-11T09:47:43Z</time>
      </trkpt>
      <trkpt lat="43.75259" lon="3.5598">
        <ele>246.23</ele>
        <time>2015-02-11T09:47:58Z</time>
      </trkpt>
      <trkpt lat="43.7526" lon="3.55979">
        <ele>244.79</ele>
        <time>2015-02-11T09:48:08Z</time>
      </trkpt>
      <trkpt lat="43.75262" lon="3.55977">
        <ele>243.83</ele>
        <time>2015-02-11T09:48:23Z</time>
      </trkpt>
      <trkpt lat="43.75261" lon="3.55977">
        <ele>243.83</ele>
        <time>2015-02-11T09:48:38Z</time>
      </trkpt>
      <trkpt lat="43.75261" lon="3.55977">
        <ele>243.35</ele>
        <time>2015-02-11T09:49:02Z</time>
      </trkpt>
      <trkpt lat="43.75263" lon="3.55976">
        <ele>244.31</ele>
        <time>2015-02-11T09:49:16Z</time>
      </trkpt>
      <trkpt lat="43.75266" lon="3.55977">
        <ele>245.75</ele>
        <time>2015-02-11T09:49:28Z</time>
      </trkpt>
      <trkpt lat="43.75268" lon="3.55974">
        <ele>244.79</ele>
        <time>2015-02-11T09:49:47Z</time>
      </trkpt>
      <trkpt lat="43.75271" lon="3.55974">
        <ele>244.79</ele>
        <time>2015-02-11T09:50:06Z</time>
      </trkpt>
      <trkpt lat="43.75272" lon="3.55975">
        <ele>243.83</ele>
        <time>2015-02-11T09:50:23Z</time>
      </trkpt>
      <trkpt lat="43.75273" lon="3.55975">
        <ele>244.31</ele>
        <time>2015-02-11T09:50:35Z</time>
      </trkpt>
      <trkpt lat="43.75271" lon="3.55975">
        <ele>244.79</ele>
        <time>2015-02-11T09:50:50Z</time>
      </trkpt>
      <trkpt lat="43.7527" lon="3.55975">
        <ele>243.83</ele>
        <time>2015-02-11T09:51:07Z</time>
      </trkpt>
      <trkpt lat="43.75269" lon="3.55976">
        <ele>244.31</ele>
        <time>2015-02-11T09:51:21Z</time>
      </trkpt>
      <trkpt lat="43.7527" lon="3.55972">
        <ele>247.2</ele>
        <time>2015-02-11T09:51:37Z</time>
      </trkpt>
      <trkpt lat="43.75273" lon="3.55967">
        <ele>247.2</ele>
        <time>2015-02-11T09:51:47Z</time>
      </trkpt>
      <trkpt lat="43.75278" lon="3.55964">
        <ele>247.68</ele>
        <time>2015-02-11T09:52:00Z</time>
      </trkpt>
      <trkpt lat="43.75283" lon="3.55958">
        <ele>249.6</ele>
        <time>2015-02-11T09:52:13Z</time>
      </trkpt>
      <trkpt lat="43.75286" lon="3.55959">
        <ele>251.04</ele>
        <time>2015-02-11T09:52:31Z</time>
      </trkpt>
      <trkpt lat="43.7529" lon="3.55958">
        <ele>253.44</ele>
        <time>2015-02-11T09:52:43Z</time>
      </trkpt>
      <trkpt lat="43.75294" lon="3.55958">
        <ele>254.41</ele>
        <time>2015-02-11T09:53:05Z</time>
      </trkpt>
      <trkpt lat="43.75298" lon="3.55956">
        <ele>257.29</ele>
        <time>2015-02-11T09:53:19Z</time>
      </trkpt>
      <trkpt lat="43.75302" lon="3.55956">
        <ele>258.25</ele>
        <time>2015-02-11T09:53:32Z</time>
      </trkpt>
      <trkpt lat="43.75304" lon="3.55956">
        <ele>259.69</ele>
        <time>2015-02-11T09:53:44Z</time>
      </trkpt>
      <trkpt lat="43.75307" lon="3.5595">
        <ele>261.14</ele>
        <time>2015-02-11T09:53:54Z</time>
      </trkpt>
      <trkpt lat="43.75308" lon="3.55941">
        <ele>262.1</ele>
        <time>2015-02-11T09:54:07Z</time>
      </trkpt>
      <trkpt lat="43.75308" lon="3.55935">
        <ele>264.02</ele>
        <time>2015-02-11T09:54:25Z</time>
      </trkpt>
      <trkpt lat="43.75311" lon="3.5593">
        <ele>265.46</ele>
        <time>2015-02-11T09:54:38Z</time>
      </trkpt>
      <trkpt lat="43.75313" lon="3.55923">
        <ele>267.38</ele>
        <time>2015-02-11T09:54:50Z</time>
      </trkpt>
      <trkpt lat="43.75315" lon="3.55918">
        <ele>268.35</ele>
        <time>2015-02-11T09:55:02Z</time>
      </trkpt>
      <trkpt lat="43.75317" lon="3.55912">
        <ele>269.79</ele>
        <time>2015-02-11T09:55:15Z</time>
      </trkpt>
      <trkpt lat="43.75317" lon="3.55912">
        <ele>269.79</ele>
        <time>2015-02-11T09:55:16Z</time>
      </trkpt>
      <trkpt lat="43.7532" lon="3.55908">
        <ele>269.79</ele>
        <time>2015-02-11T09:55:28Z</time>
      </trkpt>
      <trkpt lat="43.75323" lon="3.55904">
        <ele>269.79</ele>
        <time>2015-02-11T09:55:39Z</time>
      </trkpt>
      <trkpt lat="43.75327" lon="3.559">
        <ele>270.27</ele>
        <time>2015-02-11T09:55:55Z</time>
      </trkpt>
      <trkpt lat="43.75329" lon="3.55897">
        <ele>273.15</ele>
        <time>2015-02-11T09:56:08Z</time>
      </trkpt>
      <trkpt lat="43.75331" lon="3.55897">
        <ele>273.63</ele>
        <time>2015-02-11T09:56:20Z</time>
      </trkpt>
      <trkpt lat="43.75333" lon="3.55895">
        <ele>274.59</ele>
        <time>2015-02-11T09:56:34Z</time>
      </trkpt>
      <trkpt lat="43.75334" lon="3.55892">
        <ele>277.48</ele>
        <time>2015-02-11T09:56:48Z</time>
      </trkpt>
      <trkpt lat="43.75337" lon="3.55887">
        <ele>279.88</ele>
        <time>2015-02-11T09:57:04Z</time>
      </trkpt>
      <trkpt lat="43.75338" lon="3.55879">
        <ele>279.88</ele>
        <time>2015-02-11T09:57:18Z</time>
      </trkpt>
      <trkpt lat="43.75341" lon="3.55873">
        <ele>279.88</ele>
        <time>2015-02-11T09:57:30Z</time>
      </trkpt>
      <trkpt lat="43.75348" lon="3.55873">
        <ele>280.36</ele>
        <time>2015-02-11T09:57:42Z</time>
      </trkpt>
      <trkpt lat="43.75356" lon="3.55873">
        <ele>283.73</ele>
        <time>2015-02-11T09:57:55Z</time>
      </trkpt>
      <trkpt lat="43.75363" lon="3.55871">
        <ele>285.65</ele>
        <time>2015-02-11T09:58:09Z</time>
      </trkpt>
      <trkpt lat="43.75369" lon="3.55859">
        <ele>287.57</ele>
        <time>2015-02-11T09:58:26Z</time>
      </trkpt>
      <trkpt lat="43.75374" lon="3.55853">
        <ele>289.01</ele>
        <time>2015-02-11T09:58:37Z</time>
      </trkpt>
      <trkpt lat="43.75382" lon="3.55848">
        <ele>291.42</ele>
        <time>2015-02-11T09:58:51Z</time>
      </trkpt>
      <trkpt lat="43.75387" lon="3.55846">
        <ele>292.38</ele>
        <time>2015-02-11T09:59:03Z</time>
      </trkpt>
      <trkpt lat="43.75389" lon="3.55846">
        <ele>292.38</ele>
        <time>2015-02-11T09:59:34Z</time>
      </trkpt>
      <trkpt lat="43.7539" lon="3.55849">
        <ele>293.34</ele>
        <time>2015-02-11T09:59:56Z</time>
      </trkpt>
      <trkpt lat="43.754" lon="3.55849">
        <ele>295.26</ele>
        <time>2015-02-11T10:00:10Z</time>
      </trkpt>
      <trkpt lat="43.7541" lon="3.55849">
        <ele>297.67</ele>
        <time>2015-02-11T10:00:25Z</time>
      </trkpt>
      <trkpt lat="43.75419" lon="3.55849">
        <ele>300.55</ele>
        <time>2015-02-11T10:00:41Z</time>
      </trkpt>
      <trkpt lat="43.75429" lon="3.55849">
        <ele>302.95</ele>
        <time>2015-02-11T10:00:56Z</time>
      </trkpt>
      <trkpt lat="43.75435" lon="3.55841">
        <ele>303.91</ele>
        <time>2015-02-11T10:01:12Z</time>
      </trkpt>
      <trkpt lat="43.75436" lon="3.5584">
        <ele>303.91</ele>
        <time>2015-02-11T10:01:27Z</time>
      </trkpt>
      <trkpt lat="43.75438" lon="3.55839">
        <ele>303.43</ele>
        <time>2015-02-11T10:01:41Z</time>
      </trkpt>
      <trkpt lat="43.75438" lon="3.55839">
        <ele>304.88</ele>
        <time>2015-02-11T10:01:54Z</time>
      </trkpt>
      <trkpt lat="43.7544" lon="3.5584">
        <ele>306.32</ele>
        <time>2015-02-11T10:02:05Z</time>
      </trkpt>
      <trkpt lat="43.7544" lon="3.55841">
        <ele>305.84</ele>
        <time>2015-02-11T10:02:29Z</time>
      </trkpt>
      <trkpt lat="43.75444" lon="3.55841">
        <ele>307.76</ele>
        <time>2015-02-11T10:02:46Z</time>
      </trkpt>
      <trkpt lat="43.75444" lon="3.55839">
        <ele>308.24</ele>
        <time>2015-02-11T10:03:06Z</time>
      </trkpt>
      <trkpt lat="43.75449" lon="3.5584">
        <ele>310.16</ele>
        <time>2015-02-11T10:03:15Z</time>
      </trkpt>
      <trkpt lat="43.75454" lon="3.55843">
        <ele>312.09</ele>
        <time>2015-02-11T10:03:26Z</time>
      </trkpt>
      <trkpt lat="43.75461" lon="3.55841">
        <ele>312.57</ele>
        <time>2015-02-11T10:03:37Z</time>
      </trkpt>
      <trkpt lat="43.75462" lon="3.55841">
        <ele>312.09</ele>
        <time>2015-02-11T10:03:50Z</time>
      </trkpt>
      <trkpt lat="43.75465" lon="3.55831">
        <ele>313.05</ele>
        <time>2015-02-11T10:04:02Z</time>
      </trkpt>
      <trkpt lat="43.75469" lon="3.55823">
        <ele>314.01</ele>
        <time>2015-02-11T10:04:12Z</time>
      </trkpt>
      <trkpt lat="43.7547" lon="3.55821">
        <ele>314.01</ele>
        <time>2015-02-11T10:04:28Z</time>
      </trkpt>
      <trkpt lat="43.75471" lon="3.55819">
        <ele>314.49</ele>
        <time>2015-02-11T10:04:31Z</time>
      </trkpt>
      <trkpt lat="43.75477" lon="3.55813">
        <ele>315.93</ele>
        <time>2015-02-11T10:04:43Z</time>
      </trkpt>
      <trkpt lat="43.75479" lon="3.55809">
        <ele>316.41</ele>
        <time>2015-02-11T10:04:46Z</time>
      </trkpt>
      <trkpt lat="43.75483" lon="3.55804">
        <ele>316.89</ele>
        <time>2015-02-11T10:04:54Z</time>
      </trkpt>
      <trkpt lat="43.75491" lon="3.55797">
        <ele>318.33</ele>
        <time>2015-02-11T10:05:06Z</time>
      </trkpt>
      <trkpt lat="43.75497" lon="3.55797">
        <ele>319.78</ele>
        <time>2015-02-11T10:05:18Z</time>
      </trkpt>
      <trkpt lat="43.75504" lon="3.55793">
        <ele>321.22</ele>
        <time>2015-02-11T10:05:29Z</time>
      </trkpt>
      <trkpt lat="43.7551" lon="3.55784">
        <ele>323.62</ele>
        <time>2015-02-11T10:05:44Z</time>
      </trkpt>
      <trkpt lat="43.75515" lon="3.55782">
        <ele>325.54</ele>
        <time>2015-02-11T10:05:56Z</time>
      </trkpt>
      <trkpt lat="43.75522" lon="3.55777">
        <ele>326.5</ele>
        <time>2015-02-11T10:06:07Z</time>
      </trkpt>
      <trkpt lat="43.75526" lon="3.55773">
        <ele>326.02</ele>
        <time>2015-02-11T10:06:15Z</time>
      </trkpt>
      <trkpt lat="43.75529" lon="3.5576">
        <ele>325.54</ele>
        <time>2015-02-11T10:06:27Z</time>
      </trkpt>
      <trkpt lat="43.75536" lon="3.5575">
        <ele>326.02</ele>
        <time>2015-02-11T10:06:41Z</time>
      </trkpt>
      <trkpt lat="43.75542" lon="3.55737">
        <ele>326.02</ele>
        <time>2015-02-11T10:06:53Z</time>
      </trkpt>
      <trkpt lat="43.75552" lon="3.55728">
        <ele>326.99</ele>
        <time>2015-02-11T10:07:06Z</time>
      </trkpt>
      <trkpt lat="43.75561" lon="3.55733">
        <ele>326.99</ele>
        <time>2015-02-11T10:07:20Z</time>
      </trkpt>
      <trkpt lat="43.75561" lon="3.55733">
        <ele>326.99</ele>
        <time>2015-02-11T10:07:21Z</time>
      </trkpt>
      <trkpt lat="43.7557" lon="3.55732">
        <ele>327.47</ele>
        <time>2015-02-11T10:07:33Z</time>
      </trkpt>
      <trkpt lat="43.75578" lon="3.5573">
        <ele>328.43</ele>
        <time>2015-02-11T10:07:44Z</time>
      </trkpt>
      <trkpt lat="43.75585" lon="3.55723">
        <ele>329.39</ele>
        <time>2015-02-11T10:07:55Z</time>
      </trkpt>
      <trkpt lat="43.75593" lon="3.55715">
        <ele>330.83</ele>
        <time>2015-02-11T10:08:07Z</time>
      </trkpt>
      <trkpt lat="43.75601" lon="3.5571">
        <ele>332.27</ele>
        <time>2015-02-11T10:08:18Z</time>
      </trkpt>
      <trkpt lat="43.75607" lon="3.55705">
        <ele>334.68</ele>
        <time>2015-02-11T10:08:29Z</time>
      </trkpt>
      <trkpt lat="43.7561" lon="3.55699">
        <ele>337.08</ele>
        <time>2015-02-11T10:08:39Z</time>
      </trkpt>
      <trkpt lat="43.75615" lon="3.55695">
        <ele>338.52</ele>
        <time>2015-02-11T10:08:50Z</time>
      </trkpt>
      <trkpt lat="43.75622" lon="3.55688">
        <ele>339.48</ele>
        <time>2015-02-11T10:09:04Z</time>
      </trkpt>
      <trkpt lat="43.75628" lon="3.55689">
        <ele>340.92</ele>
        <time>2015-02-11T10:09:14Z</time>
      </trkpt>
      <trkpt lat="43.75634" lon="3.55691">
        <ele>342.37</ele>
        <time>2015-02-11T10:09:25Z</time>
      </trkpt>
      <trkpt lat="43.75642" lon="3.55686">
        <ele>342.85</ele>
        <time>2015-02-11T10:09:36Z</time>
      </trkpt>
      <trkpt lat="43.75649" lon="3.55678">
        <ele>343.33</ele>
        <time>2015-02-11T10:09:47Z</time>
      </trkpt>
      <trkpt lat="43.75657" lon="3.5567">
        <ele>344.77</ele>
        <time>2015-02-11T10:09:59Z</time>
      </trkpt>
      <trkpt lat="43.75664" lon="3.55665">
        <ele>346.21</ele>
        <time>2015-02-11T10:10:09Z</time>
      </trkpt>
      <trkpt lat="43.75668" lon="3.55659">
        <ele>347.65</ele>
        <time>2015-02-11T10:10:20Z</time>
      </trkpt>
      <trkpt lat="43.75676" lon="3.55658">
        <ele>349.58</ele>
        <time>2015-02-11T10:10:32Z</time>
      </trkpt>
      <trkpt lat="43.75679" lon="3.55658">
        <ele>349.58</ele>
        <time>2015-02-11T10:10:44Z</time>
      </trkpt>
      <trkpt lat="43.75678" lon="3.55656">
        <ele>349.58</ele>
        <time>2015-02-11T10:10:59Z</time>
      </trkpt>
      <trkpt lat="43.75679" lon="3.55657">
        <ele>349.58</ele>
        <time>2015-02-11T10:11:10Z</time>
      </trkpt>
      <trkpt lat="43.75679" lon="3.55655">
        <ele>349.1</ele>
        <time>2015-02-11T10:11:25Z</time>
      </trkpt>
      <trkpt lat="43.75678" lon="3.55657">
        <ele>349.58</ele>
        <time>2015-02-11T10:11:51Z</time>
      </trkpt>
      <trkpt lat="43.75679" lon="3.55656">
        <ele>349.58</ele>
        <time>2015-02-11T10:12:11Z</time>
      </trkpt>
      <trkpt lat="43.75679" lon="3.55657">
        <ele>349.58</ele>
        <time>2015-02-11T10:12:35Z</time>
      </trkpt>
      <trkpt lat="43.75679" lon="3.55656">
        <ele>349.58</ele>
        <time>2015-02-11T10:13:00Z</time>
      </trkpt>
      <trkpt lat="43.75679" lon="3.55653">
        <ele>349.1</ele>
        <time>2015-02-11T10:13:20Z</time>
      </trkpt>
      <trkpt lat="43.7568" lon="3.5565">
        <ele>349.1</ele>
        <time>2015-02-11T10:13:22Z</time>
      </trkpt>
      <trkpt lat="43.75685" lon="3.55634">
        <ele>347.65</ele>
        <time>2015-02-11T10:13:36Z</time>
      </trkpt>
      <trkpt lat="43.75685" lon="3.55633">
        <ele>347.65</ele>
        <time>2015-02-11T10:13:37Z</time>
      </trkpt>
      <trkpt lat="43.75688" lon="3.55612">
        <ele>346.21</ele>
        <time>2015-02-11T10:13:52Z</time>
      </trkpt>
      <trkpt lat="43.75687" lon="3.55607">
        <ele>345.73</ele>
        <time>2015-02-11T10:13:56Z</time>
      </trkpt>
      <trkpt lat="43.75688" lon="3.55603">
        <ele>345.25</ele>
        <time>2015-02-11T10:13:58Z</time>
      </trkpt>
      <trkpt lat="43.75688" lon="3.55586">
        <ele>344.77</ele>
        <time>2015-02-11T10:14:11Z</time>
      </trkpt>
      <trkpt lat="43.75682" lon="3.55584">
        <ele>343.81</ele>
        <time>2015-02-11T10:14:23Z</time>
      </trkpt>
      <trkpt lat="43.75679" lon="3.55584">
        <ele>343.33</ele>
        <time>2015-02-11T10:14:41Z</time>
      </trkpt>
      <trkpt lat="43.75678" lon="3.55583">
        <ele>343.81</ele>
        <time>2015-02-11T10:15:01Z</time>
      </trkpt>
      <trkpt lat="43.7568" lon="3.55581">
        <ele>343.81</ele>
        <time>2015-02-11T10:15:39Z</time>
      </trkpt>
      <trkpt lat="43.7568" lon="3.55577">
        <ele>343.33</ele>
        <time>2015-02-11T10:16:07Z</time>
      </trkpt>
      <trkpt lat="43.75679" lon="3.5558">
        <ele>343.33</ele>
        <time>2015-02-11T10:16:41Z</time>
      </trkpt>
      <trkpt lat="43.75679" lon="3.55583">
        <ele>343.33</ele>
        <time>2015-02-11T10:17:12Z</time>
      </trkpt>
      <trkpt lat="43.75682" lon="3.5558">
        <ele>344.29</ele>
        <time>2015-02-11T10:17:44Z</time>
      </trkpt>
      <trkpt lat="43.75685" lon="3.55573">
        <ele>344.29</ele>
        <time>2015-02-11T10:17:58Z</time>
      </trkpt>
      <trkpt lat="43.75685" lon="3.55561">
        <ele>341.41</ele>
        <time>2015-02-11T10:18:13Z</time>
      </trkpt>
      <trkpt lat="43.75686" lon="3.55546">
        <ele>339</ele>
        <time>2015-02-11T10:18:27Z</time>
      </trkpt>
      <trkpt lat="43.75683" lon="3.55527">
        <ele>338.04</ele>
        <time>2015-02-11T10:18:40Z</time>
      </trkpt>
      <trkpt lat="43.75683" lon="3.55519">
        <ele>338.04</ele>
        <time>2015-02-11T10:18:54Z</time>
      </trkpt>
      <trkpt lat="43.75677" lon="3.55507">
        <ele>339.48</ele>
        <time>2015-02-11T10:19:10Z</time>
      </trkpt>
      <trkpt lat="43.75675" lon="3.55506">
        <ele>338.52</ele>
        <time>2015-02-11T10:19:12Z</time>
      </trkpt>
      <trkpt lat="43.75669" lon="3.55494">
        <ele>338.04</ele>
        <time>2015-02-11T10:19:23Z</time>
      </trkpt>
      <trkpt lat="43.75674" lon="3.55476">
        <ele>336.6</ele>
        <time>2015-02-11T10:19:38Z</time>
      </trkpt>
      <trkpt lat="43.75676" lon="3.55461">
        <ele>333.23</ele>
        <time>2015-02-11T10:19:51Z</time>
      </trkpt>
      <trkpt lat="43.75676" lon="3.55458">
        <ele>332.27</ele>
        <time>2015-02-11T10:19:54Z</time>
      </trkpt>
      <trkpt lat="43.75677" lon="3.55441">
        <ele>329.87</ele>
        <time>2015-02-11T10:20:07Z</time>
      </trkpt>
      <trkpt lat="43.75681" lon="3.55433">
        <ele>328.91</ele>
        <time>2015-02-11T10:20:22Z</time>
      </trkpt>
      <trkpt lat="43.75681" lon="3.55412">
        <ele>327.47</ele>
        <time>2015-02-11T10:20:36Z</time>
      </trkpt>
      <trkpt lat="43.75679" lon="3.55396">
        <ele>326.02</ele>
        <time>2015-02-11T10:20:46Z</time>
      </trkpt>
      <trkpt lat="43.75677" lon="3.55381">
        <ele>324.58</ele>
        <time>2015-02-11T10:20:54Z</time>
      </trkpt>
      <trkpt lat="43.75676" lon="3.55363">
        <ele>323.62</ele>
        <time>2015-02-11T10:21:07Z</time>
      </trkpt>
      <trkpt lat="43.75667" lon="3.55353">
        <ele>324.1</ele>
        <time>2015-02-11T10:21:20Z</time>
      </trkpt>
      <trkpt lat="43.75656" lon="3.55349">
        <ele>326.02</ele>
        <time>2015-02-11T10:21:32Z</time>
      </trkpt>
      <trkpt lat="43.75651" lon="3.55351">
        <ele>326.99</ele>
        <time>2015-02-11T10:21:36Z</time>
      </trkpt>
      <trkpt lat="43.75641" lon="3.55351">
        <ele>326.99</ele>
        <time>2015-02-11T10:21:45Z</time>
      </trkpt>
      <trkpt lat="43.75622" lon="3.55354">
        <ele>326.5</ele>
        <time>2015-02-11T10:21:59Z</time>
      </trkpt>
      <trkpt lat="43.75614" lon="3.55355">
        <ele>325.54</ele>
        <time>2015-02-11T10:22:08Z</time>
      </trkpt>
      <trkpt lat="43.75611" lon="3.55356">
        <ele>325.06</ele>
        <time>2015-02-11T10:22:11Z</time>
      </trkpt>
      <trkpt lat="43.75601" lon="3.55352">
        <ele>326.5</ele>
        <time>2015-02-11T10:22:23Z</time>
      </trkpt>
      <trkpt lat="43.75588" lon="3.55351">
        <ele>327.47</ele>
        <time>2015-02-11T10:22:35Z</time>
      </trkpt>
      <trkpt lat="43.75577" lon="3.55355">
        <ele>329.39</ele>
        <time>2015-02-11T10:22:47Z</time>
      </trkpt>
      <trkpt lat="43.75563" lon="3.55364">
        <ele>330.83</ele>
        <time>2015-02-11T10:23:00Z</time>
      </trkpt>
      <trkpt lat="43.75551" lon="3.55378">
        <ele>331.79</ele>
        <time>2015-02-11T10:23:16Z</time>
      </trkpt>
      <trkpt lat="43.7555" lon="3.55379">
        <ele>331.79</ele>
        <time>2015-02-11T10:23:17Z</time>
      </trkpt>
      <trkpt lat="43.75539" lon="3.55379">
        <ele>332.75</ele>
        <time>2015-02-11T10:23:31Z</time>
      </trkpt>
      <trkpt lat="43.75527" lon="3.55383">
        <ele>335.16</ele>
        <time>2015-02-11T10:23:45Z</time>
      </trkpt>
      <trkpt lat="43.75517" lon="3.55382">
        <ele>334.2</ele>
        <time>2015-02-11T10:23:59Z</time>
      </trkpt>
      <trkpt lat="43.75506" lon="3.55383">
        <ele>335.64</ele>
        <time>2015-02-11T10:24:12Z</time>
      </trkpt>
      <trkpt lat="43.75502" lon="3.55384">
        <ele>335.64</ele>
        <time>2015-02-11T10:24:15Z</time>
      </trkpt>
      <trkpt lat="43.75488" lon="3.55394">
        <ele>335.16</ele>
        <time>2015-02-11T10:24:30Z</time>
      </trkpt>
      <trkpt lat="43.75478" lon="3.55398">
        <ele>334.68</ele>
        <time>2015-02-11T10:24:43Z</time>
      </trkpt>
      <trkpt lat="43.75462" lon="3.55396">
        <ele>334.68</ele>
        <time>2015-02-11T10:24:59Z</time>
      </trkpt>
      <trkpt lat="43.75455" lon="3.55392">
        <ele>334.68</ele>
        <time>2015-02-11T10:25:06Z</time>
      </trkpt>
      <trkpt lat="43.75444" lon="3.55384">
        <ele>334.2</ele>
        <time>2015-02-11T10:25:17Z</time>
      </trkpt>
      <trkpt lat="43.75438" lon="3.55379">
        <ele>333.71</ele>
        <time>2015-02-11T10:25:22Z</time>
      </trkpt>
      <trkpt lat="43.75429" lon="3.55375">
        <ele>332.27</ele>
        <time>2015-02-11T10:25:38Z</time>
      </trkpt>
      <trkpt lat="43.75423" lon="3.55372">
        <ele>332.27</ele>
        <time>2015-02-11T10:25:59Z</time>
      </trkpt>
      <trkpt lat="43.75413" lon="3.55369">
        <ele>330.83</ele>
        <time>2015-02-11T10:26:15Z</time>
      </trkpt>
      <trkpt lat="43.7541" lon="3.55369">
        <ele>330.83</ele>
        <time>2015-02-11T10:26:29Z</time>
      </trkpt>
      <trkpt lat="43.75401" lon="3.55365">
        <ele>330.83</ele>
        <time>2015-02-11T10:26:45Z</time>
      </trkpt>
      <trkpt lat="43.754" lon="3.55365">
        <ele>331.31</ele>
        <time>2015-02-11T10:26:46Z</time>
      </trkpt>
      <trkpt lat="43.75389" lon="3.55363">
        <ele>329.87</ele>
        <time>2015-02-11T10:26:54Z</time>
      </trkpt>
      <trkpt lat="43.75386" lon="3.55364">
        <ele>329.39</ele>
        <time>2015-02-11T10:26:57Z</time>
      </trkpt>
      <trkpt lat="43.75374" lon="3.55356">
        <ele>328.91</ele>
        <time>2015-02-11T10:27:09Z</time>
      </trkpt>
      <trkpt lat="43.75372" lon="3.55353">
        <ele>328.91</ele>
        <time>2015-02-11T10:27:12Z</time>
      </trkpt>
      <trkpt lat="43.75365" lon="3.55336">
        <ele>326.99</ele>
        <time>2015-02-11T10:27:26Z</time>
      </trkpt>
      <trkpt lat="43.75359" lon="3.55319">
        <ele>323.62</ele>
        <time>2015-02-11T10:27:40Z</time>
      </trkpt>
      <trkpt lat="43.75353" lon="3.55313">
        <ele>321.7</ele>
        <time>2015-02-11T10:27:52Z</time>
      </trkpt>
      <trkpt lat="43.75352" lon="3.55307">
        <ele>319.3</ele>
        <time>2015-02-11T10:27:58Z</time>
      </trkpt>
      <trkpt lat="43.75347" lon="3.55295">
        <ele>315.93</ele>
        <time>2015-02-11T10:28:09Z</time>
      </trkpt>
      <trkpt lat="43.75341" lon="3.55281">
        <ele>313.05</ele>
        <time>2015-02-11T10:28:21Z</time>
      </trkpt>
      <trkpt lat="43.75335" lon="3.5526">
        <ele>310.16</ele>
        <time>2015-02-11T10:28:34Z</time>
      </trkpt>
      <trkpt lat="43.75331" lon="3.55252">
        <ele>309.2</ele>
        <time>2015-02-11T10:28:41Z</time>
      </trkpt>
      <trkpt lat="43.75327" lon="3.55247">
        <ele>307.76</ele>
        <time>2015-02-11T10:28:45Z</time>
      </trkpt>
      <trkpt lat="43.75324" lon="3.55239">
        <ele>307.28</ele>
        <time>2015-02-11T10:28:51Z</time>
      </trkpt>
      <trkpt lat="43.75324" lon="3.55233">
        <ele>307.28</ele>
        <time>2015-02-11T10:28:55Z</time>
      </trkpt>
      <trkpt lat="43.75323" lon="3.55229">
        <ele>307.28</ele>
        <time>2015-02-11T10:28:58Z</time>
      </trkpt>
      <trkpt lat="43.75313" lon="3.55219">
        <ele>305.84</ele>
        <time>2015-02-11T10:29:11Z</time>
      </trkpt>
      <trkpt lat="43.75312" lon="3.55217">
        <ele>305.84</ele>
        <time>2015-02-11T10:29:13Z</time>
      </trkpt>
      <trkpt lat="43.75309" lon="3.55216">
        <ele>305.84</ele>
        <time>2015-02-11T10:29:16Z</time>
      </trkpt>
      <trkpt lat="43.75307" lon="3.55215">
        <ele>305.84</ele>
        <time>2015-02-11T10:29:18Z</time>
      </trkpt>
      <trkpt lat="43.75294" lon="3.55213">
        <ele>306.32</ele>
        <time>2015-02-11T10:29:31Z</time>
      </trkpt>
      <trkpt lat="43.75284" lon="3.55208">
        <ele>309.2</ele>
        <time>2015-02-11T10:29:46Z</time>
      </trkpt>
      <trkpt lat="43.75269" lon="3.55213">
        <ele>311.6</ele>
        <time>2015-02-11T10:30:02Z</time>
      </trkpt>
      <trkpt lat="43.75261" lon="3.55223">
        <ele>311.6</ele>
        <time>2015-02-11T10:30:13Z</time>
      </trkpt>
      <trkpt lat="43.75255" lon="3.55234">
        <ele>311.12</ele>
        <time>2015-02-11T10:30:24Z</time>
      </trkpt>
      <trkpt lat="43.75255" lon="3.55235">
        <ele>311.12</ele>
        <time>2015-02-11T10:30:25Z</time>
      </trkpt>
      <trkpt lat="43.75247" lon="3.55242">
        <ele>311.6</ele>
        <time>2015-02-11T10:30:33Z</time>
      </trkpt>
      <trkpt lat="43.75239" lon="3.55245">
        <ele>311.12</ele>
        <time>2015-02-11T10:30:40Z</time>
      </trkpt>
      <trkpt lat="43.75236" lon="3.55246">
        <ele>311.6</ele>
        <time>2015-02-11T10:30:43Z</time>
      </trkpt>
      <trkpt lat="43.75233" lon="3.55247">
        <ele>311.6</ele>
        <time>2015-02-11T10:30:46Z</time>
      </trkpt>
      <trkpt lat="43.75222" lon="3.55248">
        <ele>311.12</ele>
        <time>2015-02-11T10:30:59Z</time>
      </trkpt>
      <trkpt lat="43.75208" lon="3.55246">
        <ele>312.09</ele>
        <time>2015-02-11T10:31:12Z</time>
      </trkpt>
      <trkpt lat="43.75205" lon="3.55247">
        <ele>311.6</ele>
        <time>2015-02-11T10:31:15Z</time>
      </trkpt>
      <trkpt lat="43.7519" lon="3.55261">
        <ele>308.72</ele>
        <time>2015-02-11T10:31:29Z</time>
      </trkpt>
      <trkpt lat="43.75178" lon="3.55266">
        <ele>311.12</ele>
        <time>2015-02-11T10:31:42Z</time>
      </trkpt>
      <trkpt lat="43.75173" lon="3.55268">
        <ele>311.12</ele>
        <time>2015-02-11T10:31:47Z</time>
      </trkpt>
      <trkpt lat="43.75166" lon="3.55267">
        <ele>312.09</ele>
        <time>2015-02-11T10:31:54Z</time>
      </trkpt>
      <trkpt lat="43.75157" lon="3.55264">
        <ele>312.09</ele>
        <time>2015-02-11T10:32:05Z</time>
      </trkpt>
      <trkpt lat="43.75152" lon="3.55262">
        <ele>311.6</ele>
        <time>2015-02-11T10:32:19Z</time>
      </trkpt>
      <trkpt lat="43.75151" lon="3.55262">
        <ele>311.6</ele>
        <time>2015-02-11T10:32:21Z</time>
      </trkpt>
      <trkpt lat="43.75144" lon="3.5526">
        <ele>311.12</ele>
        <time>2015-02-11T10:32:30Z</time>
      </trkpt>
      <trkpt lat="43.75141" lon="3.55256">
        <ele>311.6</ele>
        <time>2015-02-11T10:32:34Z</time>
      </trkpt>
      <trkpt lat="43.75137" lon="3.55252">
        <ele>311.12</ele>
        <time>2015-02-11T10:32:38Z</time>
      </trkpt>
      <trkpt lat="43.75131" lon="3.5525">
        <ele>310.64</ele>
        <time>2015-02-11T10:32:44Z</time>
      </trkpt>
      <trkpt lat="43.75128" lon="3.55247">
        <ele>310.16</ele>
        <time>2015-02-11T10:32:48Z</time>
      </trkpt>
      <trkpt lat="43.75117" lon="3.55239">
        <ele>309.68</ele>
        <time>2015-02-11T10:32:59Z</time>
      </trkpt>
      <trkpt lat="43.75111" lon="3.55238">
        <ele>310.16</ele>
        <time>2015-02-11T10:33:04Z</time>
      </trkpt>
      <trkpt lat="43.75101" lon="3.55238">
        <ele>310.16</ele>
        <time>2015-02-11T10:33:14Z</time>
      </trkpt>
      <trkpt lat="43.75097" lon="3.55235">
        <ele>309.68</ele>
        <time>2015-02-11T10:33:18Z</time>
      </trkpt>
      <trkpt lat="43.75093" lon="3.55226">
        <ele>309.68</ele>
        <time>2015-02-11T10:33:24Z</time>
      </trkpt>
      <trkpt lat="43.75089" lon="3.55212">
        <ele>307.76</ele>
        <time>2015-02-11T10:33:36Z</time>
      </trkpt>
      <trkpt lat="43.7509" lon="3.55199">
        <ele>305.84</ele>
        <time>2015-02-11T10:33:48Z</time>
      </trkpt>
      <trkpt lat="43.7509" lon="3.55187">
        <ele>302.95</ele>
        <time>2015-02-11T10:34:00Z</time>
      </trkpt>
      <trkpt lat="43.7509" lon="3.55174">
        <ele>302.47</ele>
        <time>2015-02-11T10:34:13Z</time>
      </trkpt>
      <trkpt lat="43.75082" lon="3.55162">
        <ele>301.03</ele>
        <time>2015-02-11T10:34:27Z</time>
      </trkpt>
      <trkpt lat="43.75076" lon="3.5515">
        <ele>299.59</ele>
        <time>2015-02-11T10:34:41Z</time>
      </trkpt>
      <trkpt lat="43.75073" lon="3.55144">
        <ele>298.63</ele>
        <time>2015-02-11T10:34:47Z</time>
      </trkpt>
      <trkpt lat="43.75068" lon="3.55137">
        <ele>298.15</ele>
        <time>2015-02-11T10:34:53Z</time>
      </trkpt>
      <trkpt lat="43.75065" lon="3.55122">
        <ele>296.7</ele>
        <time>2015-02-11T10:35:05Z</time>
      </trkpt>
      <trkpt lat="43.75063" lon="3.55112">
        <ele>294.78</ele>
        <time>2015-02-11T10:35:18Z</time>
      </trkpt>
      <trkpt lat="43.75064" lon="3.55109">
        <ele>294.78</ele>
        <time>2015-02-11T10:35:32Z</time>
      </trkpt>
      <trkpt lat="43.75066" lon="3.55102">
        <ele>292.86</ele>
        <time>2015-02-11T10:35:45Z</time>
      </trkpt>
      <trkpt lat="43.75064" lon="3.55097">
        <ele>292.38</ele>
        <time>2015-02-11T10:35:58Z</time>
      </trkpt>
      <trkpt lat="43.75064" lon="3.5509">
        <ele>290.94</ele>
        <time>2015-02-11T10:36:09Z</time>
      </trkpt>
      <trkpt lat="43.7506" lon="3.55086">
        <ele>290.46</ele>
        <time>2015-02-11T10:36:25Z</time>
      </trkpt>
      <trkpt lat="43.75055" lon="3.55085">
        <ele>290.46</ele>
        <time>2015-02-11T10:36:56Z</time>
      </trkpt>
      <trkpt lat="43.75052" lon="3.55086">
        <ele>289.97</ele>
        <time>2015-02-11T10:37:13Z</time>
      </trkpt>
      <trkpt lat="43.75048" lon="3.5508">
        <ele>290.46</ele>
        <time>2015-02-11T10:37:25Z</time>
      </trkpt>
      <trkpt lat="43.75047" lon="3.55078">
        <ele>290.46</ele>
        <time>2015-02-11T10:37:41Z</time>
      </trkpt>
      <trkpt lat="43.75044" lon="3.55073">
        <ele>289.97</ele>
        <time>2015-02-11T10:38:08Z</time>
      </trkpt>
      <trkpt lat="43.75037" lon="3.55066">
        <ele>291.42</ele>
        <time>2015-02-11T10:38:23Z</time>
      </trkpt>
      <trkpt lat="43.75035" lon="3.55069">
        <ele>291.42</ele>
        <time>2015-02-11T10:38:47Z</time>
      </trkpt>
      <trkpt lat="43.75038" lon="3.5507">
        <ele>291.9</ele>
        <time>2015-02-11T10:39:23Z</time>
      </trkpt>
      <trkpt lat="43.75037" lon="3.5507">
        <ele>291.42</ele>
        <time>2015-02-11T10:39:45Z</time>
      </trkpt>
      <trkpt lat="43.75037" lon="3.55069">
        <ele>291.42</ele>
        <time>2015-02-11T10:40:11Z</time>
      </trkpt>
      <trkpt lat="43.75034" lon="3.55061">
        <ele>289.97</ele>
        <time>2015-02-11T10:40:34Z</time>
      </trkpt>
      <trkpt lat="43.7503" lon="3.55055">
        <ele>288.05</ele>
        <time>2015-02-11T10:40:44Z</time>
      </trkpt>
      <trkpt lat="43.75018" lon="3.55044">
        <ele>289.01</ele>
        <time>2015-02-11T10:41:00Z</time>
      </trkpt>
      <trkpt lat="43.75018" lon="3.55043">
        <ele>289.49</ele>
        <time>2015-02-11T10:41:01Z</time>
      </trkpt>
      <trkpt lat="43.75012" lon="3.55036">
        <ele>288.53</ele>
        <time>2015-02-11T10:41:09Z</time>
      </trkpt>
      <trkpt lat="43.75008" lon="3.55031">
        <ele>288.05</ele>
        <time>2015-02-11T10:41:13Z</time>
      </trkpt>
      <trkpt lat="43.74997" lon="3.55022">
        <ele>287.57</ele>
        <time>2015-02-11T10:41:25Z</time>
      </trkpt>
      <trkpt lat="43.74988" lon="3.55014">
        <ele>285.17</ele>
        <time>2015-02-11T10:41:36Z</time>
      </trkpt>
      <trkpt lat="43.74987" lon="3.55008">
        <ele>284.21</ele>
        <time>2015-02-11T10:41:49Z</time>
      </trkpt>
      <trkpt lat="43.74988" lon="3.55007">
        <ele>284.21</ele>
        <time>2015-02-11T10:41:58Z</time>
      </trkpt>
      <trkpt lat="43.74988" lon="3.55001">
        <ele>283.25</ele>
        <time>2015-02-11T10:42:02Z</time>
      </trkpt>
      <trkpt lat="43.74988" lon="3.54998">
        <ele>282.77</ele>
        <time>2015-02-11T10:42:04Z</time>
      </trkpt>
      <trkpt lat="43.74991" lon="3.54992">
        <ele>283.73</ele>
        <time>2015-02-11T10:42:18Z</time>
      </trkpt>
      <trkpt lat="43.74992" lon="3.54992">
        <ele>284.21</ele>
        <time>2015-02-11T10:42:27Z</time>
      </trkpt>
      <trkpt lat="43.74996" lon="3.54991">
        <ele>285.17</ele>
        <time>2015-02-11T10:42:33Z</time>
      </trkpt>
      <trkpt lat="43.75005" lon="3.54992">
        <ele>287.57</ele>
        <time>2015-02-11T10:42:45Z</time>
      </trkpt>
      <trkpt lat="43.75009" lon="3.5499">
        <ele>289.49</ele>
        <time>2015-02-11T10:42:56Z</time>
      </trkpt>
      <trkpt lat="43.75016" lon="3.54989">
        <ele>290.94</ele>
        <time>2015-02-11T10:43:09Z</time>
      </trkpt>
      <trkpt lat="43.7502" lon="3.54992">
        <ele>292.86</ele>
        <time>2015-02-11T10:43:21Z</time>
      </trkpt>
      <trkpt lat="43.75021" lon="3.55">
        <ele>295.26</ele>
        <time>2015-02-11T10:43:32Z</time>
      </trkpt>
      <trkpt lat="43.75023" lon="3.55005">
        <ele>296.7</ele>
        <time>2015-02-11T10:43:45Z</time>
      </trkpt>
      <trkpt lat="43.75022" lon="3.55008">
        <ele>299.11</ele>
        <time>2015-02-11T10:43:58Z</time>
      </trkpt>
      <trkpt lat="43.75023" lon="3.55009">
        <ele>301.03</ele>
        <time>2015-02-11T10:44:10Z</time>
      </trkpt>
      <trkpt lat="43.75025" lon="3.5501">
        <ele>301.03</ele>
        <time>2015-02-11T10:44:26Z</time>
      </trkpt>
      <trkpt lat="43.7503" lon="3.55009">
        <ele>302.47</ele>
        <time>2015-02-11T10:44:41Z</time>
      </trkpt>
      <trkpt lat="43.75029" lon="3.55012">
        <ele>303.91</ele>
        <time>2015-02-11T10:45:06Z</time>
      </trkpt>
      <trkpt lat="43.75029" lon="3.55018">
        <ele>305.36</ele>
        <time>2015-02-11T10:45:14Z</time>
      </trkpt>
      <trkpt lat="43.75029" lon="3.5502">
        <ele>307.28</ele>
        <time>2015-02-11T10:45:22Z</time>
      </trkpt>
      <trkpt lat="43.7503" lon="3.55024">
        <ele>309.2</ele>
        <time>2015-02-11T10:45:32Z</time>
      </trkpt>
      <trkpt lat="43.75032" lon="3.55027">
        <ele>311.6</ele>
        <time>2015-02-11T10:45:42Z</time>
      </trkpt>
      <trkpt lat="43.75033" lon="3.55032">
        <ele>313.53</ele>
        <time>2015-02-11T10:45:54Z</time>
      </trkpt>
      <trkpt lat="43.75037" lon="3.55032">
        <ele>313.53</ele>
        <time>2015-02-11T10:46:11Z</time>
      </trkpt>
      <trkpt lat="43.75042" lon="3.55033">
        <ele>316.41</ele>
        <time>2015-02-11T10:46:23Z</time>
      </trkpt>
      <trkpt lat="43.75047" lon="3.55037">
        <ele>318.81</ele>
        <time>2015-02-11T10:46:36Z</time>
      </trkpt>
      <trkpt lat="43.75049" lon="3.55037">
        <ele>319.78</ele>
        <time>2015-02-11T10:46:52Z</time>
      </trkpt>
      <trkpt lat="43.7505" lon="3.55038">
        <ele>320.26</ele>
        <time>2015-02-11T10:46:54Z</time>
      </trkpt>
      <trkpt lat="43.75052" lon="3.55038">
        <ele>321.22</ele>
        <time>2015-02-11T10:47:00Z</time>
      </trkpt>
      <trkpt lat="43.75053" lon="3.55036">
        <ele>321.7</ele>
        <time>2015-02-11T10:47:11Z</time>
      </trkpt>
      <trkpt lat="43.75056" lon="3.55039">
        <ele>322.66</ele>
        <time>2015-02-11T10:47:20Z</time>
      </trkpt>
      <trkpt lat="43.7506" lon="3.55037">
        <ele>324.1</ele>
        <time>2015-02-11T10:47:34Z</time>
      </trkpt>
      <trkpt lat="43.75064" lon="3.55037">
        <ele>325.54</ele>
        <time>2015-02-11T10:47:43Z</time>
      </trkpt>
      <trkpt lat="43.75067" lon="3.55033">
        <ele>325.54</ele>
        <time>2015-02-11T10:47:53Z</time>
      </trkpt>
      <trkpt lat="43.7507" lon="3.5503">
        <ele>325.06</ele>
        <time>2015-02-11T10:48:05Z</time>
      </trkpt>
      <trkpt lat="43.75073" lon="3.55031">
        <ele>325.54</ele>
        <time>2015-02-11T10:48:09Z</time>
      </trkpt>
      <trkpt lat="43.75078" lon="3.55038">
        <ele>328.43</ele>
        <time>2015-02-11T10:48:23Z</time>
      </trkpt>
      <trkpt lat="43.75083" lon="3.55045">
        <ele>331.31</ele>
        <time>2015-02-11T10:48:36Z</time>
      </trkpt>
      <trkpt lat="43.75083" lon="3.55043">
        <ele>331.31</ele>
        <time>2015-02-11T10:48:59Z</time>
      </trkpt>
      <trkpt lat="43.75084" lon="3.55045">
        <ele>330.83</ele>
        <time>2015-02-11T10:49:01Z</time>
      </trkpt>
      <trkpt lat="43.75088" lon="3.55038">
        <ele>331.31</ele>
        <time>2015-02-11T10:49:13Z</time>
      </trkpt>
      <trkpt lat="43.75088" lon="3.55035">
        <ele>330.83</ele>
        <time>2015-02-11T10:49:24Z</time>
      </trkpt>
      <trkpt lat="43.75088" lon="3.55043">
        <ele>332.75</ele>
        <time>2015-02-11T10:49:33Z</time>
      </trkpt>
      <trkpt lat="43.75088" lon="3.55043">
        <ele>332.27</ele>
        <time>2015-02-11T10:49:35Z</time>
      </trkpt>
      <trkpt lat="43.75086" lon="3.55048">
        <ele>331.79</ele>
        <time>2015-02-11T10:49:39Z</time>
      </trkpt>
      <trkpt lat="43.7509" lon="3.55056">
        <ele>334.2</ele>
        <time>2015-02-11T10:49:51Z</time>
      </trkpt>
      <trkpt lat="43.75098" lon="3.55057">
        <ele>337.08</ele>
        <time>2015-02-11T10:50:04Z</time>
      </trkpt>
      <trkpt lat="43.75106" lon="3.55059">
        <ele>338.52</ele>
        <time>2015-02-11T10:50:17Z</time>
      </trkpt>
      <trkpt lat="43.75111" lon="3.55061">
        <ele>340.92</ele>
        <time>2015-02-11T10:50:28Z</time>
      </trkpt>
      <trkpt lat="43.75111" lon="3.55058">
        <ele>340.92</ele>
        <time>2015-02-11T10:50:41Z</time>
      </trkpt>
      <trkpt lat="43.75112" lon="3.55057">
        <ele>340.92</ele>
        <time>2015-02-11T10:50:44Z</time>
      </trkpt>
      <trkpt lat="43.75114" lon="3.55056">
        <ele>341.41</ele>
        <time>2015-02-11T10:50:48Z</time>
      </trkpt>
      <trkpt lat="43.75121" lon="3.55053">
        <ele>342.85</ele>
        <time>2015-02-11T10:51:00Z</time>
      </trkpt>
      <trkpt lat="43.75124" lon="3.55053">
        <ele>344.77</ele>
        <time>2015-02-11T10:51:12Z</time>
      </trkpt>
      <trkpt lat="43.75126" lon="3.55056">
        <ele>344.77</ele>
        <time>2015-02-11T10:51:24Z</time>
      </trkpt>
      <trkpt lat="43.7513" lon="3.55054">
        <ele>345.25</ele>
        <time>2015-02-11T10:51:36Z</time>
      </trkpt>
      <trkpt lat="43.75132" lon="3.55056">
        <ele>345.25</ele>
        <time>2015-02-11T10:51:55Z</time>
      </trkpt>
      <trkpt lat="43.75137" lon="3.55053">
        <ele>347.17</ele>
        <time>2015-02-11T10:52:06Z</time>
      </trkpt>
      <trkpt lat="43.75143" lon="3.5505">
        <ele>348.62</ele>
        <time>2015-02-11T10:52:18Z</time>
      </trkpt>
      <trkpt lat="43.75147" lon="3.55041">
        <ele>350.06</ele>
        <time>2015-02-11T10:52:29Z</time>
      </trkpt>
      <trkpt lat="43.75153" lon="3.55041">
        <ele>351.02</ele>
        <time>2015-02-11T10:52:39Z</time>
      </trkpt>
      <trkpt lat="43.75156" lon="3.55034">
        <ele>353.42</ele>
        <time>2015-02-11T10:52:52Z</time>
      </trkpt>
      <trkpt lat="43.75161" lon="3.55024">
        <ele>355.34</ele>
        <time>2015-02-11T10:53:07Z</time>
      </trkpt>
      <trkpt lat="43.75165" lon="3.55014">
        <ele>357.75</ele>
        <time>2015-02-11T10:53:23Z</time>
      </trkpt>
      <trkpt lat="43.75166" lon="3.55012">
        <ele>358.23</ele>
        <time>2015-02-11T10:53:26Z</time>
      </trkpt>
      <trkpt lat="43.75174" lon="3.55008">
        <ele>359.19</ele>
        <time>2015-02-11T10:53:42Z</time>
      </trkpt>
      <trkpt lat="43.75179" lon="3.55004">
        <ele>360.63</ele>
        <time>2015-02-11T10:53:55Z</time>
      </trkpt>
      <trkpt lat="43.75184" lon="3.54997">
        <ele>361.59</ele>
        <time>2015-02-11T10:54:12Z</time>
      </trkpt>
      <trkpt lat="43.75189" lon="3.5499">
        <ele>363.04</ele>
        <time>2015-02-11T10:54:25Z</time>
      </trkpt>
      <trkpt lat="43.75194" lon="3.54986">
        <ele>364.96</ele>
        <time>2015-02-11T10:54:36Z</time>
      </trkpt>
      <trkpt lat="43.75201" lon="3.54986">
        <ele>365.44</ele>
        <time>2015-02-11T10:54:48Z</time>
      </trkpt>
      <trkpt lat="43.75204" lon="3.54984">
        <ele>365.44</ele>
        <time>2015-02-11T10:54:58Z</time>
      </trkpt>
      <trkpt lat="43.75209" lon="3.54986">
        <ele>366.4</ele>
        <time>2015-02-11T10:55:13Z</time>
      </trkpt>
      <trkpt lat="43.75213" lon="3.54978">
        <ele>367.36</ele>
        <time>2015-02-11T10:55:24Z</time>
      </trkpt>
      <trkpt lat="43.75219" lon="3.54967">
        <ele>369.28</ele>
        <time>2015-02-11T10:55:36Z</time>
      </trkpt>
      <trkpt lat="43.75219" lon="3.54967">
        <ele>369.28</ele>
        <time>2015-02-11T10:55:37Z</time>
      </trkpt>
      <trkpt lat="43.75224" lon="3.54958">
        <ele>370.24</ele>
        <time>2015-02-11T10:55:49Z</time>
      </trkpt>
      <trkpt lat="43.75228" lon="3.54958">
        <ele>371.21</ele>
        <time>2015-02-11T10:55:58Z</time>
      </trkpt>
      <trkpt lat="43.75235" lon="3.5496">
        <ele>372.17</ele>
        <time>2015-02-11T10:56:11Z</time>
      </trkpt>
      <trkpt lat="43.75242" lon="3.54957">
        <ele>372.65</ele>
        <time>2015-02-11T10:56:21Z</time>
      </trkpt>
      <trkpt lat="43.75247" lon="3.54949">
        <ele>374.57</ele>
        <time>2015-02-11T10:56:33Z</time>
      </trkpt>
      <trkpt lat="43.7525" lon="3.54945">
        <ele>376.49</ele>
        <time>2015-02-11T10:56:46Z</time>
      </trkpt>
      <trkpt lat="43.75255" lon="3.54946">
        <ele>378.42</ele>
        <time>2015-02-11T10:56:57Z</time>
      </trkpt>
      <trkpt lat="43.7526" lon="3.54941">
        <ele>380.82</ele>
        <time>2015-02-11T10:57:10Z</time>
      </trkpt>
      <trkpt lat="43.75261" lon="3.54938">
        <ele>381.78</ele>
        <time>2015-02-11T10:57:20Z</time>
      </trkpt>
      <trkpt lat="43.7526" lon="3.54934">
        <ele>381.3</ele>
        <time>2015-02-11T10:57:46Z</time>
      </trkpt>
      <trkpt lat="43.7526" lon="3.54935">
        <ele>381.78</ele>
        <time>2015-02-11T10:57:58Z</time>
      </trkpt>
      <trkpt lat="43.7526" lon="3.54936">
        <ele>381.78</ele>
        <time>2015-02-11T10:58:10Z</time>
      </trkpt>
      <trkpt lat="43.7526" lon="3.54935">
        <ele>381.3</ele>
        <time>2015-02-11T10:58:21Z</time>
      </trkpt>
      <trkpt lat="43.7526" lon="3.54936">
        <ele>380.82</ele>
        <time>2015-02-11T10:58:35Z</time>
      </trkpt>
      <trkpt lat="43.75259" lon="3.54935">
        <ele>380.82</ele>
        <time>2015-02-11T10:58:45Z</time>
      </trkpt>
      <trkpt lat="43.7526" lon="3.54935">
        <ele>380.82</ele>
        <time>2015-02-11T10:58:56Z</time>
      </trkpt>
      <trkpt lat="43.7526" lon="3.54936">
        <ele>380.82</ele>
        <time>2015-02-11T10:59:06Z</time>
      </trkpt>
      <trkpt lat="43.75261" lon="3.54936">
        <ele>380.82</ele>
        <time>2015-02-11T10:59:07Z</time>
      </trkpt>
      <trkpt lat="43.75267" lon="3.54935">
        <ele>382.74</ele>
        <time>2015-02-11T10:59:18Z</time>
      </trkpt>
      <trkpt lat="43.75273" lon="3.54929">
        <ele>384.66</ele>
        <time>2015-02-11T10:59:29Z</time>
      </trkpt>
      <trkpt lat="43.75277" lon="3.5493">
        <ele>386.59</ele>
        <time>2015-02-11T10:59:38Z</time>
      </trkpt>
      <trkpt lat="43.75284" lon="3.54928">
        <ele>388.99</ele>
        <time>2015-02-11T10:59:52Z</time>
      </trkpt>
      <trkpt lat="43.75287" lon="3.54927">
        <ele>389.95</ele>
        <time>2015-02-11T11:00:07Z</time>
      </trkpt>
      <trkpt lat="43.75293" lon="3.54925">
        <ele>393.8</ele>
        <time>2015-02-11T11:00:20Z</time>
      </trkpt>
      <trkpt lat="43.75296" lon="3.54924">
        <ele>394.28</ele>
        <time>2015-02-11T11:00:32Z</time>
      </trkpt>
      <trkpt lat="43.75299" lon="3.54925">
        <ele>399.57</ele>
        <time>2015-02-11T11:00:46Z</time>
      </trkpt>
      <trkpt lat="43.75299" lon="3.54925">
        <ele>394.28</ele>
        <time>2015-02-11T11:00:47Z</time>
      </trkpt>
      <trkpt lat="43.75299" lon="3.54925">
        <ele>400.05</ele>
        <time>2015-02-11T11:00:48Z</time>
      </trkpt>
      <trkpt lat="43.753" lon="3.54924">
        <ele>397.64</ele>
        <time>2015-02-11T11:00:51Z</time>
      </trkpt>
      <trkpt lat="43.75302" lon="3.54923">
        <ele>400.05</ele>
        <time>2015-02-11T11:01:06Z</time>
      </trkpt>
      <trkpt lat="43.75302" lon="3.54922">
        <ele>395.72</ele>
        <time>2015-02-11T11:01:07Z</time>
      </trkpt>
      <trkpt lat="43.75302" lon="3.54922">
        <ele>401.97</ele>
        <time>2015-02-11T11:01:08Z</time>
      </trkpt>
      <trkpt lat="43.75303" lon="3.54915">
        <ele>402.45</ele>
        <time>2015-02-11T11:01:20Z</time>
      </trkpt>
      <trkpt lat="43.75302" lon="3.54912">
        <ele>403.41</ele>
        <time>2015-02-11T11:01:38Z</time>
      </trkpt>
      <trkpt lat="43.75301" lon="3.54912">
        <ele>403.41</ele>
        <time>2015-02-11T11:01:59Z</time>
      </trkpt>
      <trkpt lat="43.75304" lon="3.54909">
        <ele>404.85</ele>
        <time>2015-02-11T11:02:29Z</time>
      </trkpt>
      <trkpt lat="43.75307" lon="3.54909">
        <ele>405.81</ele>
        <time>2015-02-11T11:02:40Z</time>
      </trkpt>
      <trkpt lat="43.75311" lon="3.54904">
        <ele>408.22</ele>
        <time>2015-02-11T11:02:52Z</time>
      </trkpt>
      <trkpt lat="43.75314" lon="3.54901">
        <ele>410.14</ele>
        <time>2015-02-11T11:03:05Z</time>
      </trkpt>
      <trkpt lat="43.75316" lon="3.54898">
        <ele>410.62</ele>
        <time>2015-02-11T11:03:10Z</time>
      </trkpt>
      <trkpt lat="43.75321" lon="3.54895">
        <ele>413.02</ele>
        <time>2015-02-11T11:03:23Z</time>
      </trkpt>
      <trkpt lat="43.75325" lon="3.54893">
        <ele>414.47</ele>
        <time>2015-02-11T11:03:37Z</time>
      </trkpt>
      <trkpt lat="43.75329" lon="3.54891">
        <ele>415.91</ele>
        <time>2015-02-11T11:03:51Z</time>
      </trkpt>
      <trkpt lat="43.75336" lon="3.54885">
        <ele>417.83</ele>
        <time>2015-02-11T11:04:04Z</time>
      </trkpt>
      <trkpt lat="43.75341" lon="3.54885">
        <ele>420.23</ele>
        <time>2015-02-11T11:04:17Z</time>
      </trkpt>
      <trkpt lat="43.75347" lon="3.54884">
        <ele>422.64</ele>
        <time>2015-02-11T11:04:29Z</time>
      </trkpt>
      <trkpt lat="43.7535" lon="3.54883">
        <ele>424.08</ele>
        <time>2015-02-11T11:04:40Z</time>
      </trkpt>
      <trkpt lat="43.75351" lon="3.54883">
        <ele>425.52</ele>
        <time>2015-02-11T11:04:50Z</time>
      </trkpt>
      <trkpt lat="43.7535" lon="3.54881">
        <ele>426</ele>
        <time>2015-02-11T11:05:11Z</time>
      </trkpt>
      <trkpt lat="43.75353" lon="3.54883">
        <ele>426</ele>
        <time>2015-02-11T11:05:28Z</time>
      </trkpt>
      <trkpt lat="43.75356" lon="3.54881">
        <ele>427.44</ele>
        <time>2015-02-11T11:05:43Z</time>
      </trkpt>
      <trkpt lat="43.75364" lon="3.5488">
        <ele>429.37</ele>
        <time>2015-02-11T11:05:58Z</time>
      </trkpt>
      <trkpt lat="43.75368" lon="3.54878">
        <ele>432.25</ele>
        <time>2015-02-11T11:06:10Z</time>
      </trkpt>
      <trkpt lat="43.75374" lon="3.54873">
        <ele>431.77</ele>
        <time>2015-02-11T11:06:25Z</time>
      </trkpt>
      <trkpt lat="43.75377" lon="3.54867">
        <ele>429.85</ele>
        <time>2015-02-11T11:06:36Z</time>
      </trkpt>
      <trkpt lat="43.75383" lon="3.54864">
        <ele>431.29</ele>
        <time>2015-02-11T11:06:48Z</time>
      </trkpt>
      <trkpt lat="43.75385" lon="3.54868">
        <ele>434.17</ele>
        <time>2015-02-11T11:07:02Z</time>
      </trkpt>
      <trkpt lat="43.75388" lon="3.54867">
        <ele>436.1</ele>
        <time>2015-02-11T11:07:17Z</time>
      </trkpt>
      <trkpt lat="43.75388" lon="3.54867">
        <ele>435.13</ele>
        <time>2015-02-11T11:07:34Z</time>
      </trkpt>
      <trkpt lat="43.75388" lon="3.54869">
        <ele>438.02</ele>
        <time>2015-02-11T11:07:49Z</time>
      </trkpt>
      <trkpt lat="43.75386" lon="3.54868">
        <ele>438.98</ele>
        <time>2015-02-11T11:08:03Z</time>
      </trkpt>
      <trkpt lat="43.75384" lon="3.54868">
        <ele>440.9</ele>
        <time>2015-02-11T11:08:11Z</time>
      </trkpt>
      <trkpt lat="43.75386" lon="3.54871">
        <ele>443.31</ele>
        <time>2015-02-11T11:08:23Z</time>
      </trkpt>
      <trkpt lat="43.75388" lon="3.5487">
        <ele>444.27</ele>
        <time>2015-02-11T11:08:33Z</time>
      </trkpt>
      <trkpt lat="43.75388" lon="3.54868">
        <ele>444.75</ele>
        <time>2015-02-11T11:08:52Z</time>
      </trkpt>
      <trkpt lat="43.75388" lon="3.54867">
        <ele>445.23</ele>
        <time>2015-02-11T11:09:13Z</time>
      </trkpt>
      <trkpt lat="43.75388" lon="3.54868">
        <ele>445.23</ele>
        <time>2015-02-11T11:09:40Z</time>
      </trkpt>
      <trkpt lat="43.75388" lon="3.54869">
        <ele>445.23</ele>
        <time>2015-02-11T11:10:12Z</time>
      </trkpt>
      <trkpt lat="43.75392" lon="3.54871">
        <ele>447.63</ele>
        <time>2015-02-11T11:10:23Z</time>
      </trkpt>
      <trkpt lat="43.75395" lon="3.5487">
        <ele>449.07</ele>
        <time>2015-02-11T11:10:34Z</time>
      </trkpt>
      <trkpt lat="43.75397" lon="3.54868">
        <ele>449.55</ele>
        <time>2015-02-11T11:10:52Z</time>
      </trkpt>
      <trkpt lat="43.754" lon="3.54868">
        <ele>451</ele>
        <time>2015-02-11T11:11:04Z</time>
      </trkpt>
      <trkpt lat="43.754" lon="3.54865">
        <ele>451</ele>
        <time>2015-02-11T11:11:16Z</time>
      </trkpt>
      <trkpt lat="43.75406" lon="3.54863">
        <ele>452.44</ele>
        <time>2015-02-11T11:11:28Z</time>
      </trkpt>
      <trkpt lat="43.75408" lon="3.54863">
        <ele>454.36</ele>
        <time>2015-02-11T11:11:39Z</time>
      </trkpt>
      <trkpt lat="43.75411" lon="3.54865">
        <ele>455.8</ele>
        <time>2015-02-11T11:11:50Z</time>
      </trkpt>
      <trkpt lat="43.75409" lon="3.54868">
        <ele>457.72</ele>
        <time>2015-02-11T11:12:05Z</time>
      </trkpt>
      <trkpt lat="43.7541" lon="3.54869">
        <ele>459.17</ele>
        <time>2015-02-11T11:12:20Z</time>
      </trkpt>
      <trkpt lat="43.75413" lon="3.54868">
        <ele>459.17</ele>
        <time>2015-02-11T11:12:32Z</time>
      </trkpt>
      <trkpt lat="43.75415" lon="3.5487">
        <ele>460.61</ele>
        <time>2015-02-11T11:12:43Z</time>
      </trkpt>
      <trkpt lat="43.75414" lon="3.54868">
        <ele>460.61</ele>
        <time>2015-02-11T11:12:58Z</time>
      </trkpt>
      <trkpt lat="43.75418" lon="3.54869">
        <ele>462.05</ele>
        <time>2015-02-11T11:13:12Z</time>
      </trkpt>
      <trkpt lat="43.75424" lon="3.54865">
        <ele>462.53</ele>
        <time>2015-02-11T11:13:23Z</time>
      </trkpt>
      <trkpt lat="43.7543" lon="3.54866">
        <ele>464.45</ele>
        <time>2015-02-11T11:13:36Z</time>
      </trkpt>
      <trkpt lat="43.75432" lon="3.54863">
        <ele>464.93</ele>
        <time>2015-02-11T11:13:55Z</time>
      </trkpt>
      <trkpt lat="43.75433" lon="3.54862">
        <ele>464.45</ele>
        <time>2015-02-11T11:14:28Z</time>
      </trkpt>
      <trkpt lat="43.75437" lon="3.54856">
        <ele>463.01</ele>
        <time>2015-02-11T11:14:43Z</time>
      </trkpt>
      <trkpt lat="43.75444" lon="3.54857">
        <ele>463.97</ele>
        <time>2015-02-11T11:14:54Z</time>
      </trkpt>
      <trkpt lat="43.75446" lon="3.54856">
        <ele>463.97</ele>
        <time>2015-02-11T11:14:57Z</time>
      </trkpt>
      <trkpt lat="43.75449" lon="3.54855">
        <ele>463.97</ele>
        <time>2015-02-11T11:15:03Z</time>
      </trkpt>
      <trkpt lat="43.75454" lon="3.5485">
        <ele>463.49</ele>
        <time>2015-02-11T11:15:15Z</time>
      </trkpt>
      <trkpt lat="43.75456" lon="3.54847">
        <ele>463.97</ele>
        <time>2015-02-11T11:15:21Z</time>
      </trkpt>
      <trkpt lat="43.7546" lon="3.54844">
        <ele>463.01</ele>
        <time>2015-02-11T11:15:29Z</time>
      </trkpt>
      <trkpt lat="43.75462" lon="3.54843">
        <ele>462.53</ele>
        <time>2015-02-11T11:15:40Z</time>
      </trkpt>
      <trkpt lat="43.75462" lon="3.54844">
        <ele>463.01</ele>
        <time>2015-02-11T11:15:45Z</time>
      </trkpt>
      <trkpt lat="43.75465" lon="3.54843">
        <ele>463.01</ele>
        <time>2015-02-11T11:15:50Z</time>
      </trkpt>
      <trkpt lat="43.75469" lon="3.54841">
        <ele>462.05</ele>
        <time>2015-02-11T11:15:57Z</time>
      </trkpt>
      <trkpt lat="43.75475" lon="3.5484">
        <ele>460.61</ele>
        <time>2015-02-11T11:16:08Z</time>
      </trkpt>
      <trkpt lat="43.75476" lon="3.54841">
        <ele>460.61</ele>
        <time>2015-02-11T11:16:10Z</time>
      </trkpt>
      <trkpt lat="43.75486" lon="3.5484">
        <ele>461.09</ele>
        <time>2015-02-11T11:16:22Z</time>
      </trkpt>
      <trkpt lat="43.75497" lon="3.54839">
        <ele>463.01</ele>
        <time>2015-02-11T11:16:36Z</time>
      </trkpt>
      <trkpt lat="43.75503" lon="3.5484">
        <ele>464.93</ele>
        <time>2015-02-11T11:16:47Z</time>
      </trkpt>
      <trkpt lat="43.75509" lon="3.54838">
        <ele>466.38</ele>
        <time>2015-02-11T11:17:00Z</time>
      </trkpt>
      <trkpt lat="43.75518" lon="3.54839">
        <ele>467.34</ele>
        <time>2015-02-11T11:17:13Z</time>
      </trkpt>
      <trkpt lat="43.75523" lon="3.54838">
        <ele>469.74</ele>
        <time>2015-02-11T11:17:25Z</time>
      </trkpt>
      <trkpt lat="43.75526" lon="3.5484">
        <ele>469.74</ele>
        <time>2015-02-11T11:17:41Z</time>
      </trkpt>
      <trkpt lat="43.75527" lon="3.54836">
        <ele>470.22</ele>
        <time>2015-02-11T11:17:55Z</time>
      </trkpt>
      <trkpt lat="43.7553" lon="3.54835">
        <ele>470.7</ele>
        <time>2015-02-11T11:18:01Z</time>
      </trkpt>
      <trkpt lat="43.75533" lon="3.54836">
        <ele>470.22</ele>
        <time>2015-02-11T11:18:12Z</time>
      </trkpt>
      <trkpt lat="43.75535" lon="3.54835">
        <ele>470.7</ele>
        <time>2015-02-11T11:18:27Z</time>
      </trkpt>
      <trkpt lat="43.75534" lon="3.54833">
        <ele>470.7</ele>
        <time>2015-02-11T11:18:54Z</time>
      </trkpt>
      <trkpt lat="43.75533" lon="3.54834">
        <ele>470.22</ele>
        <time>2015-02-11T11:19:10Z</time>
      </trkpt>
      <trkpt lat="43.75534" lon="3.54834">
        <ele>470.7</ele>
        <time>2015-02-11T11:19:30Z</time>
      </trkpt>
      <trkpt lat="43.75534" lon="3.54834">
        <ele>470.7</ele>
        <time>2015-02-11T11:19:56Z</time>
      </trkpt>
      <trkpt lat="43.75535" lon="3.54835">
        <ele>470.22</ele>
        <time>2015-02-11T11:20:25Z</time>
      </trkpt>
      <trkpt lat="43.75535" lon="3.54837">
        <ele>470.7</ele>
        <time>2015-02-11T11:20:48Z</time>
      </trkpt>
      <trkpt lat="43.75533" lon="3.54835">
        <ele>470.7</ele>
        <time>2015-02-11T11:21:14Z</time>
      </trkpt>
      <trkpt lat="43.75533" lon="3.54835">
        <ele>471.18</ele>
        <time>2015-02-11T11:21:40Z</time>
      </trkpt>
      <trkpt lat="43.75533" lon="3.54836">
        <ele>470.7</ele>
        <time>2015-02-11T11:22:03Z</time>
      </trkpt>
      <trkpt lat="43.75537" lon="3.54839">
        <ele>469.26</ele>
        <time>2015-02-11T11:22:34Z</time>
      </trkpt>
      <trkpt lat="43.75536" lon="3.54841">
        <ele>469.26</ele>
        <time>2015-02-11T11:22:52Z</time>
      </trkpt>
      <trkpt lat="43.75537" lon="3.54843">
        <ele>468.78</ele>
        <time>2015-02-11T11:23:24Z</time>
      </trkpt>
      <trkpt lat="43.75539" lon="3.54842">
        <ele>467.34</ele>
        <time>2015-02-11T11:23:30Z</time>
      </trkpt>
      <trkpt lat="43.75544" lon="3.54841">
        <ele>467.82</ele>
        <time>2015-02-11T11:23:41Z</time>
      </trkpt>
      <trkpt lat="43.75547" lon="3.54842">
        <ele>468.78</ele>
        <time>2015-02-11T11:23:52Z</time>
      </trkpt>
      <trkpt lat="43.75554" lon="3.54842">
        <ele>468.78</ele>
        <time>2015-02-11T11:24:05Z</time>
      </trkpt>
      <trkpt lat="43.75557" lon="3.54838">
        <ele>467.82</ele>
        <time>2015-02-11T11:24:13Z</time>
      </trkpt>
      <trkpt lat="43.75562" lon="3.54832">
        <ele>467.34</ele>
        <time>2015-02-11T11:24:24Z</time>
      </trkpt>
      <trkpt lat="43.75569" lon="3.54829">
        <ele>467.34</ele>
        <time>2015-02-11T11:24:37Z</time>
      </trkpt>
      <trkpt lat="43.75575" lon="3.54828">
        <ele>468.3</ele>
        <time>2015-02-11T11:24:51Z</time>
      </trkpt>
      <trkpt lat="43.75579" lon="3.5483">
        <ele>470.22</ele>
        <time>2015-02-11T11:25:03Z</time>
      </trkpt>
      <trkpt lat="43.75584" lon="3.54829">
        <ele>470.7</ele>
        <time>2015-02-11T11:25:14Z</time>
      </trkpt>
      <trkpt lat="43.75585" lon="3.54828">
        <ele>472.14</ele>
        <time>2015-02-11T11:25:17Z</time>
      </trkpt>
      <trkpt lat="43.75587" lon="3.54828">
        <ele>473.59</ele>
        <time>2015-02-11T11:25:30Z</time>
      </trkpt>
      <trkpt lat="43.75588" lon="3.54829">
        <ele>475.03</ele>
        <time>2015-02-11T11:25:36Z</time>
      </trkpt>
      <trkpt lat="43.75589" lon="3.54826">
        <ele>474.55</ele>
        <time>2015-02-11T11:25:39Z</time>
      </trkpt>
      <trkpt lat="43.75592" lon="3.54833">
        <ele>475.03</ele>
        <time>2015-02-11T11:25:52Z</time>
      </trkpt>
      <trkpt lat="43.75592" lon="3.54834">
        <ele>475.51</ele>
        <time>2015-02-11T11:26:05Z</time>
      </trkpt>
      <trkpt lat="43.75594" lon="3.54831">
        <ele>475.99</ele>
        <time>2015-02-11T11:26:16Z</time>
      </trkpt>
      <trkpt lat="43.75595" lon="3.54831">
        <ele>476.95</ele>
        <time>2015-02-11T11:26:22Z</time>
      </trkpt>
      <trkpt lat="43.75597" lon="3.54835">
        <ele>478.39</ele>
        <time>2015-02-11T11:26:35Z</time>
      </trkpt>
      <trkpt lat="43.756" lon="3.54836">
        <ele>480.32</ele>
        <time>2015-02-11T11:26:48Z</time>
      </trkpt>
      <trkpt lat="43.75604" lon="3.54838">
        <ele>481.28</ele>
        <time>2015-02-11T11:26:59Z</time>
      </trkpt>
      <trkpt lat="43.75607" lon="3.54839">
        <ele>482.24</ele>
        <time>2015-02-11T11:27:10Z</time>
      </trkpt>
      <trkpt lat="43.75608" lon="3.54839">
        <ele>482.24</ele>
        <time>2015-02-11T11:27:29Z</time>
      </trkpt>
      <trkpt lat="43.75608" lon="3.54837">
        <ele>481.76</ele>
        <time>2015-02-11T11:28:01Z</time>
      </trkpt>
      <trkpt lat="43.75606" lon="3.54837">
        <ele>482.24</ele>
        <time>2015-02-11T11:28:15Z</time>
      </trkpt>
      <trkpt lat="43.75608" lon="3.54836">
        <ele>482.72</ele>
        <time>2015-02-11T11:28:34Z</time>
      </trkpt>
      <trkpt lat="43.75615" lon="3.54836">
        <ele>483.2</ele>
        <time>2015-02-11T11:28:47Z</time>
      </trkpt>
      <trkpt lat="43.75621" lon="3.5484">
        <ele>485.12</ele>
        <time>2015-02-11T11:29:01Z</time>
      </trkpt>
      <trkpt lat="43.75626" lon="3.54841">
        <ele>487.53</ele>
        <time>2015-02-11T11:29:13Z</time>
      </trkpt>
      <trkpt lat="43.75627" lon="3.5484">
        <ele>488.49</ele>
        <time>2015-02-11T11:29:21Z</time>
      </trkpt>
      <trkpt lat="43.75631" lon="3.54841">
        <ele>490.89</ele>
        <time>2015-02-11T11:29:32Z</time>
      </trkpt>
      <trkpt lat="43.75636" lon="3.54841">
        <ele>492.81</ele>
        <time>2015-02-11T11:29:46Z</time>
      </trkpt>
      <trkpt lat="43.75637" lon="3.54839">
        <ele>492.33</ele>
        <time>2015-02-11T11:30:00Z</time>
      </trkpt>
      <trkpt lat="43.75638" lon="3.54839">
        <ele>492.81</ele>
        <time>2015-02-11T11:30:16Z</time>
      </trkpt>
      <trkpt lat="43.75636" lon="3.54839">
        <ele>492.33</ele>
        <time>2015-02-11T11:30:34Z</time>
      </trkpt>
      <trkpt lat="43.7564" lon="3.54842">
        <ele>493.29</ele>
        <time>2015-02-11T11:30:44Z</time>
      </trkpt>
      <trkpt lat="43.75644" lon="3.54841">
        <ele>494.26</ele>
        <time>2015-02-11T11:30:56Z</time>
      </trkpt>
      <trkpt lat="43.75646" lon="3.54835">
        <ele>495.22</ele>
        <time>2015-02-11T11:31:11Z</time>
      </trkpt>
      <trkpt lat="43.75651" lon="3.54838">
        <ele>497.14</ele>
        <time>2015-02-11T11:31:22Z</time>
      </trkpt>
      <trkpt lat="43.75654" lon="3.54836">
        <ele>499.06</ele>
        <time>2015-02-11T11:31:31Z</time>
      </trkpt>
      <trkpt lat="43.75656" lon="3.54837">
        <ele>501.46</ele>
        <time>2015-02-11T11:31:43Z</time>
      </trkpt>
      <trkpt lat="43.75658" lon="3.54838">
        <ele>503.39</ele>
        <time>2015-02-11T11:31:59Z</time>
      </trkpt>
      <trkpt lat="43.75662" lon="3.54841">
        <ele>505.79</ele>
        <time>2015-02-11T11:32:14Z</time>
      </trkpt>
      <trkpt lat="43.75664" lon="3.5484">
        <ele>506.75</ele>
        <time>2015-02-11T11:32:34Z</time>
      </trkpt>
      <trkpt lat="43.75667" lon="3.54841">
        <ele>509.64</ele>
        <time>2015-02-11T11:32:49Z</time>
      </trkpt>
      <trkpt lat="43.75672" lon="3.54838">
        <ele>512.52</ele>
        <time>2015-02-11T11:33:06Z</time>
      </trkpt>
      <trkpt lat="43.75674" lon="3.54839">
        <ele>513.48</ele>
        <time>2015-02-11T11:33:15Z</time>
      </trkpt>
      <trkpt lat="43.75674" lon="3.54838">
        <ele>513.96</ele>
        <time>2015-02-11T11:33:26Z</time>
      </trkpt>
      <trkpt lat="43.75674" lon="3.54835">
        <ele>513.96</ele>
        <time>2015-02-11T11:33:40Z</time>
      </trkpt>
      <trkpt lat="43.75673" lon="3.54835">
        <ele>513.96</ele>
        <time>2015-02-11T11:33:54Z</time>
      </trkpt>
      <trkpt lat="43.75673" lon="3.54835">
        <ele>513.96</ele>
        <time>2015-02-11T11:34:03Z</time>
      </trkpt>
      <trkpt lat="43.75676" lon="3.54833">
        <ele>515.4</ele>
        <time>2015-02-11T11:34:13Z</time>
      </trkpt>
      <trkpt lat="43.75678" lon="3.54828">
        <ele>517.33</ele>
        <time>2015-02-11T11:34:23Z</time>
      </trkpt>
      <trkpt lat="43.75679" lon="3.54824">
        <ele>518.77</ele>
        <time>2015-02-11T11:34:35Z</time>
      </trkpt>
      <trkpt lat="43.75681" lon="3.54827">
        <ele>519.25</ele>
        <time>2015-02-11T11:34:57Z</time>
      </trkpt>
      <trkpt lat="43.75684" lon="3.54827">
        <ele>522.13</ele>
        <time>2015-02-11T11:35:10Z</time>
      </trkpt>
      <trkpt lat="43.75688" lon="3.54828">
        <ele>524.54</ele>
        <time>2015-02-11T11:35:24Z</time>
      </trkpt>
      <trkpt lat="43.75692" lon="3.54826">
        <ele>526.94</ele>
        <time>2015-02-11T11:35:38Z</time>
      </trkpt>
      <trkpt lat="43.75693" lon="3.54817">
        <ele>526.94</ele>
        <time>2015-02-11T11:36:00Z</time>
      </trkpt>
      <trkpt lat="43.7569" lon="3.54827">
        <ele>526.94</ele>
        <time>2015-02-11T11:36:26Z</time>
      </trkpt>
      <trkpt lat="43.75691" lon="3.54829">
        <ele>526.94</ele>
        <time>2015-02-11T11:36:53Z</time>
      </trkpt>
      <trkpt lat="43.75691" lon="3.54827">
        <ele>526.46</ele>
        <time>2015-02-11T11:37:25Z</time>
      </trkpt>
      <trkpt lat="43.75694" lon="3.54826">
        <ele>527.42</ele>
        <time>2015-02-11T11:37:30Z</time>
      </trkpt>
      <trkpt lat="43.75698" lon="3.54825">
        <ele>529.34</ele>
        <time>2015-02-11T11:37:38Z</time>
      </trkpt>
      <trkpt lat="43.75697" lon="3.54828">
        <ele>530.3</ele>
        <time>2015-02-11T11:37:53Z</time>
      </trkpt>
      <trkpt lat="43.75697" lon="3.54827">
        <ele>531.27</ele>
        <time>2015-02-11T11:37:54Z</time>
      </trkpt>
      <trkpt lat="43.75701" lon="3.54828">
        <ele>530.79</ele>
        <time>2015-02-11T11:38:02Z</time>
      </trkpt>
      <trkpt lat="43.75703" lon="3.54829">
        <ele>531.27</ele>
        <time>2015-02-11T11:38:04Z</time>
      </trkpt>
      <trkpt lat="43.75708" lon="3.54832">
        <ele>532.23</ele>
        <time>2015-02-11T11:38:16Z</time>
      </trkpt>
      <trkpt lat="43.75713" lon="3.54833">
        <ele>532.71</ele>
        <time>2015-02-11T11:38:28Z</time>
      </trkpt>
      <trkpt lat="43.75709" lon="3.5484">
        <ele>534.15</ele>
        <time>2015-02-11T11:38:43Z</time>
      </trkpt>
      <trkpt lat="43.75713" lon="3.54849">
        <ele>534.63</ele>
        <time>2015-02-11T11:38:55Z</time>
      </trkpt>
      <trkpt lat="43.75723" lon="3.54848">
        <ele>537.03</ele>
        <time>2015-02-11T11:39:14Z</time>
      </trkpt>
      <trkpt lat="43.75732" lon="3.54845">
        <ele>537.99</ele>
        <time>2015-02-11T11:39:27Z</time>
      </trkpt>
      <trkpt lat="43.75735" lon="3.54842">
        <ele>538.48</ele>
        <time>2015-02-11T11:39:40Z</time>
      </trkpt>
      <trkpt lat="43.7574" lon="3.54833">
        <ele>537.51</ele>
        <time>2015-02-11T11:39:54Z</time>
      </trkpt>
      <trkpt lat="43.75746" lon="3.54827">
        <ele>537.03</ele>
        <time>2015-02-11T11:40:06Z</time>
      </trkpt>
      <trkpt lat="43.75755" lon="3.54822">
        <ele>538.48</ele>
        <time>2015-02-11T11:40:21Z</time>
      </trkpt>
      <trkpt lat="43.7576" lon="3.54816">
        <ele>539.92</ele>
        <time>2015-02-11T11:40:34Z</time>
      </trkpt>
      <trkpt lat="43.75763" lon="3.54813">
        <ele>540.4</ele>
        <time>2015-02-11T11:40:49Z</time>
      </trkpt>
      <trkpt lat="43.75764" lon="3.54812">
        <ele>540.4</ele>
        <time>2015-02-11T11:41:05Z</time>
      </trkpt>
      <trkpt lat="43.75763" lon="3.54811">
        <ele>540.4</ele>
        <time>2015-02-11T11:41:28Z</time>
      </trkpt>
      <trkpt lat="43.75764" lon="3.54815">
        <ele>541.36</ele>
        <time>2015-02-11T11:41:51Z</time>
      </trkpt>
      <trkpt lat="43.75764" lon="3.54812">
        <ele>542.32</ele>
        <time>2015-02-11T11:42:14Z</time>
      </trkpt>
      <trkpt lat="43.75768" lon="3.54811">
        <ele>543.28</ele>
        <time>2015-02-11T11:42:32Z</time>
      </trkpt>
      <trkpt lat="43.75773" lon="3.54812">
        <ele>544.72</ele>
        <time>2015-02-11T11:42:51Z</time>
      </trkpt>
      <trkpt lat="43.75773" lon="3.54811">
        <ele>546.17</ele>
        <time>2015-02-11T11:43:14Z</time>
      </trkpt>
      <trkpt lat="43.75773" lon="3.54809">
        <ele>546.17</ele>
        <time>2015-02-11T11:43:36Z</time>
      </trkpt>
      <trkpt lat="43.7578" lon="3.54809">
        <ele>547.61</ele>
        <time>2015-02-11T11:43:50Z</time>
      </trkpt>
      <trkpt lat="43.75783" lon="3.54808">
        <ele>548.57</ele>
        <time>2015-02-11T11:44:04Z</time>
      </trkpt>
      <trkpt lat="43.75786" lon="3.5481">
        <ele>550.01</ele>
        <time>2015-02-11T11:44:19Z</time>
      </trkpt>
      <trkpt lat="43.75788" lon="3.54809">
        <ele>550.49</ele>
        <time>2015-02-11T11:44:33Z</time>
      </trkpt>
      <trkpt lat="43.75789" lon="3.54808">
        <ele>550.97</ele>
        <time>2015-02-11T11:44:52Z</time>
      </trkpt>
      <trkpt lat="43.75791" lon="3.54809">
        <ele>551.93</ele>
        <time>2015-02-11T11:45:09Z</time>
      </trkpt>
      <trkpt lat="43.75793" lon="3.54811">
        <ele>553.38</ele>
        <time>2015-02-11T11:45:22Z</time>
      </trkpt>
      <trkpt lat="43.75793" lon="3.54809">
        <ele>554.34</ele>
        <time>2015-02-11T11:45:39Z</time>
      </trkpt>
      <trkpt lat="43.75794" lon="3.54809">
        <ele>554.82</ele>
        <time>2015-02-11T11:45:41Z</time>
      </trkpt>
      <trkpt lat="43.75798" lon="3.5481">
        <ele>555.3</ele>
        <time>2015-02-11T11:45:51Z</time>
      </trkpt>
      <trkpt lat="43.75799" lon="3.54809">
        <ele>554.82</ele>
        <time>2015-02-11T11:46:09Z</time>
      </trkpt>
      <trkpt lat="43.75807" lon="3.5481">
        <ele>556.74</ele>
        <time>2015-02-11T11:46:25Z</time>
      </trkpt>
      <trkpt lat="43.75811" lon="3.5481">
        <ele>557.7</ele>
        <time>2015-02-11T11:46:42Z</time>
      </trkpt>
      <trkpt lat="43.75814" lon="3.54812">
        <ele>557.22</ele>
        <time>2015-02-11T11:46:59Z</time>
      </trkpt>
      <trkpt lat="43.75814" lon="3.54812">
        <ele>559.14</ele>
        <time>2015-02-11T11:47:08Z</time>
      </trkpt>
      <trkpt lat="43.7582" lon="3.54811">
        <ele>559.62</ele>
        <time>2015-02-11T11:47:21Z</time>
      </trkpt>
      <trkpt lat="43.7583" lon="3.54814">
        <ele>559.14</ele>
        <time>2015-02-11T11:47:39Z</time>
      </trkpt>
      <trkpt lat="43.75834" lon="3.54814">
        <ele>560.11</ele>
        <time>2015-02-11T11:47:51Z</time>
      </trkpt>
      <trkpt lat="43.75834" lon="3.54816">
        <ele>559.62</ele>
        <time>2015-02-11T11:48:02Z</time>
      </trkpt>
      <trkpt lat="43.75832" lon="3.54812">
        <ele>560.59</ele>
        <time>2015-02-11T11:48:13Z</time>
      </trkpt>
      <trkpt lat="43.75834" lon="3.54806">
        <ele>562.51</ele>
        <time>2015-02-11T11:48:28Z</time>
      </trkpt>
      <trkpt lat="43.75834" lon="3.54803">
        <ele>562.99</ele>
        <time>2015-02-11T11:48:40Z</time>
      </trkpt>
      <trkpt lat="43.75837" lon="3.54796">
        <ele>564.43</ele>
        <time>2015-02-11T11:48:53Z</time>
      </trkpt>
      <trkpt lat="43.75837" lon="3.54786">
        <ele>566.35</ele>
        <time>2015-02-11T11:49:07Z</time>
      </trkpt>
      <trkpt lat="43.75838" lon="3.54778">
        <ele>566.35</ele>
        <time>2015-02-11T11:49:19Z</time>
      </trkpt>
      <trkpt lat="43.75839" lon="3.54775">
        <ele>565.87</ele>
        <time>2015-02-11T11:49:30Z</time>
      </trkpt>
      <trkpt lat="43.75843" lon="3.5477">
        <ele>564.91</ele>
        <time>2015-02-11T11:49:45Z</time>
      </trkpt>
      <trkpt lat="43.75845" lon="3.54773">
        <ele>564.91</ele>
        <time>2015-02-11T11:49:59Z</time>
      </trkpt>
      <trkpt lat="43.7585" lon="3.54778">
        <ele>567.8</ele>
        <time>2015-02-11T11:50:11Z</time>
      </trkpt>
      <trkpt lat="43.75853" lon="3.54776">
        <ele>568.76</ele>
        <time>2015-02-11T11:50:24Z</time>
      </trkpt>
      <trkpt lat="43.75856" lon="3.54772">
        <ele>567.32</ele>
        <time>2015-02-11T11:50:37Z</time>
      </trkpt>
      <trkpt lat="43.75858" lon="3.54769">
        <ele>567.32</ele>
        <time>2015-02-11T11:50:52Z</time>
      </trkpt>
      <trkpt lat="43.75859" lon="3.54768">
        <ele>565.39</ele>
        <time>2015-02-11T11:51:04Z</time>
      </trkpt>
      <trkpt lat="43.75861" lon="3.54766">
        <ele>564.91</ele>
        <time>2015-02-11T11:51:17Z</time>
      </trkpt>
      <trkpt lat="43.75865" lon="3.54762">
        <ele>564.43</ele>
        <time>2015-02-11T11:51:30Z</time>
      </trkpt>
      <trkpt lat="43.75869" lon="3.54759">
        <ele>564.91</ele>
        <time>2015-02-11T11:51:40Z</time>
      </trkpt>
      <trkpt lat="43.75875" lon="3.54753">
        <ele>565.39</ele>
        <time>2015-02-11T11:51:51Z</time>
      </trkpt>
      <trkpt lat="43.75879" lon="3.54743">
        <ele>565.39</ele>
        <time>2015-02-11T11:52:04Z</time>
      </trkpt>
      <trkpt lat="43.75882" lon="3.54736">
        <ele>564.91</ele>
        <time>2015-02-11T11:52:16Z</time>
      </trkpt>
      <trkpt lat="43.75882" lon="3.5473">
        <ele>564.91</ele>
        <time>2015-02-11T11:52:28Z</time>
      </trkpt>
      <trkpt lat="43.75887" lon="3.54723">
        <ele>565.39</ele>
        <time>2015-02-11T11:52:40Z</time>
      </trkpt>
      <trkpt lat="43.75889" lon="3.54717">
        <ele>566.83</ele>
        <time>2015-02-11T11:52:54Z</time>
      </trkpt>
      <trkpt lat="43.7589" lon="3.54712">
        <ele>565.87</ele>
        <time>2015-02-11T11:53:07Z</time>
      </trkpt>
      <trkpt lat="43.7589" lon="3.54712">
        <ele>565.87</ele>
        <time>2015-02-11T11:53:15Z</time>
      </trkpt>
      <trkpt lat="43.75893" lon="3.54712">
        <ele>565.87</ele>
        <time>2015-02-11T11:53:19Z</time>
      </trkpt>
      <trkpt lat="43.75899" lon="3.54705">
        <ele>565.39</ele>
        <time>2015-02-11T11:53:32Z</time>
      </trkpt>
      <trkpt lat="43.75896" lon="3.54708">
        <ele>564.91</ele>
        <time>2015-02-11T11:53:44Z</time>
      </trkpt>
      <trkpt lat="43.75894" lon="3.54705">
        <ele>564.91</ele>
        <time>2015-02-11T11:53:56Z</time>
      </trkpt>
      <trkpt lat="43.75896" lon="3.54696">
        <ele>566.35</ele>
        <time>2015-02-11T11:54:07Z</time>
      </trkpt>
      <trkpt lat="43.75897" lon="3.54689">
        <ele>568.76</ele>
        <time>2015-02-11T11:54:22Z</time>
      </trkpt>
      <trkpt lat="43.75898" lon="3.54681">
        <ele>568.76</ele>
        <time>2015-02-11T11:54:35Z</time>
      </trkpt>
      <trkpt lat="43.75905" lon="3.54671">
        <ele>571.16</ele>
        <time>2015-02-11T11:54:51Z</time>
      </trkpt>
      <trkpt lat="43.75903" lon="3.54668">
        <ele>571.64</ele>
        <time>2015-02-11T11:55:04Z</time>
      </trkpt>
      <trkpt lat="43.75901" lon="3.54671">
        <ele>571.64</ele>
        <time>2015-02-11T11:55:21Z</time>
      </trkpt>
      <trkpt lat="43.759" lon="3.54667">
        <ele>571.64</ele>
        <time>2015-02-11T11:55:33Z</time>
      </trkpt>
      <trkpt lat="43.75898" lon="3.54664">
        <ele>570.68</ele>
        <time>2015-02-11T11:55:51Z</time>
      </trkpt>
      <trkpt lat="43.75894" lon="3.54658">
        <ele>570.68</ele>
        <time>2015-02-11T11:56:02Z</time>
      </trkpt>
      <trkpt lat="43.75894" lon="3.54651">
        <ele>572.12</ele>
        <time>2015-02-11T11:56:13Z</time>
      </trkpt>
      <trkpt lat="43.75893" lon="3.54648">
        <ele>572.12</ele>
        <time>2015-02-11T11:56:25Z</time>
      </trkpt>
      <trkpt lat="43.75894" lon="3.54647">
        <ele>572.12</ele>
        <time>2015-02-11T11:56:44Z</time>
      </trkpt>
      <trkpt lat="43.75892" lon="3.5465">
        <ele>572.12</ele>
        <time>2015-02-11T11:56:49Z</time>
      </trkpt>
      <trkpt lat="43.75898" lon="3.54656">
        <ele>572.12</ele>
        <time>2015-02-11T11:57:05Z</time>
      </trkpt>
      <trkpt lat="43.75907" lon="3.54677">
        <ele>571.64</ele>
        <time>2015-02-11T11:57:28Z</time>
      </trkpt>
      <trkpt lat="43.75905" lon="3.54674">
        <ele>572.12</ele>
        <time>2015-02-11T11:57:32Z</time>
      </trkpt>
      <trkpt lat="43.75889" lon="3.54649">
        <ele>571.64</ele>
        <time>2015-02-11T11:57:52Z</time>
      </trkpt>
      <trkpt lat="43.75889" lon="3.54649">
        <ele>571.64</ele>
        <time>2015-02-11T11:58:13Z</time>
      </trkpt>
      <trkpt lat="43.75893" lon="3.54648">
        <ele>571.64</ele>
        <time>2015-02-11T11:58:28Z</time>
      </trkpt>
      <trkpt lat="43.75895" lon="3.54653">
        <ele>572.12</ele>
        <time>2015-02-11T11:58:33Z</time>
      </trkpt>
      <trkpt lat="43.7589" lon="3.54651">
        <ele>572.6</ele>
        <time>2015-02-11T11:58:45Z</time>
      </trkpt>
      <trkpt lat="43.7589" lon="3.54651">
        <ele>571.64</ele>
        <time>2015-02-11T11:59:01Z</time>
      </trkpt>
      <trkpt lat="43.75889" lon="3.54651">
        <ele>572.12</ele>
        <time>2015-02-11T11:59:15Z</time>
      </trkpt>
      <trkpt lat="43.75889" lon="3.5465">
        <ele>572.12</ele>
        <time>2015-02-11T11:59:32Z</time>
      </trkpt>
      <trkpt lat="43.75887" lon="3.54649">
        <ele>572.12</ele>
        <time>2015-02-11T11:59:47Z</time>
      </trkpt>
      <trkpt lat="43.75888" lon="3.54648">
        <ele>572.12</ele>
        <time>2015-02-11T12:00:08Z</time>
      </trkpt>
      <trkpt lat="43.75888" lon="3.5465">
        <ele>572.12</ele>
        <time>2015-02-11T12:00:29Z</time>
      </trkpt>
      <trkpt lat="43.75888" lon="3.5465">
        <ele>571.64</ele>
        <time>2015-02-11T12:00:42Z</time>
      </trkpt>
      <trkpt lat="43.75888" lon="3.5465">
        <ele>572.12</ele>
        <time>2015-02-11T12:01:00Z</time>
      </trkpt>
      <trkpt lat="43.75888" lon="3.5465">
        <ele>572.12</ele>
        <time>2015-02-11T12:01:28Z</time>
      </trkpt>
      <trkpt lat="43.75889" lon="3.54649">
        <ele>571.64</ele>
        <time>2015-02-11T12:02:08Z</time>
      </trkpt>
      <trkpt lat="43.75889" lon="3.5465">
        <ele>571.64</ele>
        <time>2015-02-11T12:02:47Z</time>
      </trkpt>
      <trkpt lat="43.75888" lon="3.5465">
        <ele>571.64</ele>
        <time>2015-02-11T12:03:09Z</time>
      </trkpt>
      <trkpt lat="43.75888" lon="3.54649">
        <ele>571.64</ele>
        <time>2015-02-11T12:03:45Z</time>
      </trkpt>
      <trkpt lat="43.75888" lon="3.5465">
        <ele>572.12</ele>
        <time>2015-02-11T12:04:12Z</time>
      </trkpt>
      <trkpt lat="43.75889" lon="3.5465">
        <ele>572.12</ele>
        <time>2015-02-11T12:04:56Z</time>
      </trkpt>
      <trkpt lat="43.7589" lon="3.54651">
        <ele>572.12</ele>
        <time>2015-02-11T12:05:39Z</time>
      </trkpt>
      <trkpt lat="43.7589" lon="3.5465">
        <ele>572.6</ele>
        <time>2015-02-11T12:06:11Z</time>
      </trkpt>
      <trkpt lat="43.7589" lon="3.5465">
        <ele>572.12</ele>
        <time>2015-02-11T12:06:45Z</time>
      </trkpt>
      <trkpt lat="43.75891" lon="3.5465">
        <ele>572.6</ele>
        <time>2015-02-11T12:07:16Z</time>
      </trkpt>
      <trkpt lat="43.75891" lon="3.54651">
        <ele>572.6</ele>
        <time>2015-02-11T12:07:47Z</time>
      </trkpt>
      <trkpt lat="43.75891" lon="3.54651">
        <ele>572.6</ele>
        <time>2015-02-11T12:08:16Z</time>
      </trkpt>
      <trkpt lat="43.7589" lon="3.54653">
        <ele>572.6</ele>
        <time>2015-02-11T12:08:48Z</time>
      </trkpt>
      <trkpt lat="43.7589" lon="3.54652">
        <ele>573.08</ele>
        <time>2015-02-11T12:09:17Z</time>
      </trkpt>
      <trkpt lat="43.75889" lon="3.54651">
        <ele>572.6</ele>
        <time>2015-02-11T12:09:41Z</time>
      </trkpt>
      <trkpt lat="43.7589" lon="3.54651">
        <ele>572.12</ele>
        <time>2015-02-11T12:10:07Z</time>
      </trkpt>
      <trkpt lat="43.75891" lon="3.54654">
        <ele>572.6</ele>
        <time>2015-02-11T12:10:33Z</time>
      </trkpt>
      <trkpt lat="43.75891" lon="3.54655">
        <ele>572.6</ele>
        <time>2015-02-11T12:11:04Z</time>
      </trkpt>
      <trkpt lat="43.75889" lon="3.54655">
        <ele>572.6</ele>
        <time>2015-02-11T12:11:34Z</time>
      </trkpt>
      <trkpt lat="43.7589" lon="3.54653">
        <ele>572.6</ele>
        <time>2015-02-11T12:12:12Z</time>
      </trkpt>
      <trkpt lat="43.75888" lon="3.54655">
        <ele>572.6</ele>
        <time>2015-02-11T12:12:45Z</time>
      </trkpt>
      <trkpt lat="43.75888" lon="3.54654">
        <ele>572.6</ele>
        <time>2015-02-11T12:13:28Z</time>
      </trkpt>
      <trkpt lat="43.75887" lon="3.54655">
        <ele>572.12</ele>
        <time>2015-02-11T12:13:58Z</time>
      </trkpt>
      <trkpt lat="43.75887" lon="3.54655">
        <ele>572.6</ele>
        <time>2015-02-11T12:14:27Z</time>
      </trkpt>
      <trkpt lat="43.75887" lon="3.54655">
        <ele>572.6</ele>
        <time>2015-02-11T12:15:00Z</time>
      </trkpt>
      <trkpt lat="43.75887" lon="3.54655">
        <ele>572.6</ele>
        <time>2015-02-11T12:15:30Z</time>
      </trkpt>
      <trkpt lat="43.75887" lon="3.54655">
        <ele>572.12</ele>
        <time>2015-02-11T12:16:03Z</time>
      </trkpt>
      <trkpt lat="43.75887" lon="3.54655">
        <ele>572.12</ele>
        <time>2015-02-11T12:16:34Z</time>
      </trkpt>
      <trkpt lat="43.75886" lon="3.54656">
        <ele>572.12</ele>
        <time>2015-02-11T12:17:05Z</time>
      </trkpt>
      <trkpt lat="43.75887" lon="3.54656">
        <ele>572.12</ele>
        <time>2015-02-11T12:17:39Z</time>
      </trkpt>
      <trkpt lat="43.75887" lon="3.54656">
        <ele>572.12</ele>
        <time>2015-02-11T12:18:05Z</time>
      </trkpt>
      <trkpt lat="43.75886" lon="3.54655">
        <ele>572.6</ele>
        <time>2015-02-11T12:18:36Z</time>
      </trkpt>
      <trkpt lat="43.75885" lon="3.54655">
        <ele>572.12</ele>
        <time>2015-02-11T12:19:11Z</time>
      </trkpt>
      <trkpt lat="43.75886" lon="3.54656">
        <ele>572.12</ele>
        <time>2015-02-11T12:19:47Z</time>
      </trkpt>
      <trkpt lat="43.75886" lon="3.54655">
        <ele>572.12</ele>
        <time>2015-02-11T12:20:25Z</time>
      </trkpt>
      <trkpt lat="43.75886" lon="3.54654">
        <ele>572.12</ele>
        <time>2015-02-11T12:21:04Z</time>
      </trkpt>
      <trkpt lat="43.75886" lon="3.54655">
        <ele>571.64</ele>
        <time>2015-02-11T12:21:39Z</time>
      </trkpt>
      <trkpt lat="43.75886" lon="3.54654">
        <ele>571.64</ele>
        <time>2015-02-11T12:22:12Z</time>
      </trkpt>
      <trkpt lat="43.75886" lon="3.54653">
        <ele>571.64</ele>
        <time>2015-02-11T12:22:52Z</time>
      </trkpt>
      <trkpt lat="43.75887" lon="3.54653">
        <ele>571.64</ele>
        <time>2015-02-11T12:23:31Z</time>
      </trkpt>
      <trkpt lat="43.75888" lon="3.54652">
        <ele>571.64</ele>
        <time>2015-02-11T12:24:13Z</time>
      </trkpt>
      <trkpt lat="43.75888" lon="3.54652">
        <ele>571.16</ele>
        <time>2015-02-11T12:24:56Z</time>
      </trkpt>
      <trkpt lat="43.75888" lon="3.54651">
        <ele>571.16</ele>
        <time>2015-02-11T12:25:36Z</time>
      </trkpt>
      <trkpt lat="43.75889" lon="3.54651">
        <ele>571.16</ele>
        <time>2015-02-11T12:26:11Z</time>
      </trkpt>
      <trkpt lat="43.75887" lon="3.54652">
        <ele>570.68</ele>
        <time>2015-02-11T12:26:48Z</time>
      </trkpt>
      <trkpt lat="43.75889" lon="3.5465">
        <ele>571.16</ele>
        <time>2015-02-11T12:27:28Z</time>
      </trkpt>
      <trkpt lat="43.75889" lon="3.5465">
        <ele>571.16</ele>
        <time>2015-02-11T12:27:58Z</time>
      </trkpt>
      <trkpt lat="43.7589" lon="3.5465">
        <ele>571.64</ele>
        <time>2015-02-11T12:28:30Z</time>
      </trkpt>
      <trkpt lat="43.75889" lon="3.54651">
        <ele>571.64</ele>
        <time>2015-02-11T12:29:08Z</time>
      </trkpt>
      <trkpt lat="43.75889" lon="3.54652">
        <ele>571.16</ele>
        <time>2015-02-11T12:29:42Z</time>
      </trkpt>
      <trkpt lat="43.75887" lon="3.54653">
        <ele>571.64</ele>
        <time>2015-02-11T12:30:16Z</time>
      </trkpt>
      <trkpt lat="43.75887" lon="3.54653">
        <ele>571.16</ele>
        <time>2015-02-11T12:30:49Z</time>
      </trkpt>
      <trkpt lat="43.75887" lon="3.54654">
        <ele>571.16</ele>
        <time>2015-02-11T12:31:26Z</time>
      </trkpt>
      <trkpt lat="43.75886" lon="3.54656">
        <ele>571.16</ele>
        <time>2015-02-11T12:32:04Z</time>
      </trkpt>
      <trkpt lat="43.75886" lon="3.54657">
        <ele>571.16</ele>
        <time>2015-02-11T12:32:39Z</time>
      </trkpt>
      <trkpt lat="43.75887" lon="3.54654">
        <ele>572.12</ele>
        <time>2015-02-11T12:33:20Z</time>
      </trkpt>
      <trkpt lat="43.75891" lon="3.54649">
        <ele>572.6</ele>
        <time>2015-02-11T12:33:40Z</time>
      </trkpt>
      <trkpt lat="43.75889" lon="3.5465">
        <ele>572.6</ele>
        <time>2015-02-11T12:34:10Z</time>
      </trkpt>
      <trkpt lat="43.75889" lon="3.5465">
        <ele>572.6</ele>
        <time>2015-02-11T12:34:32Z</time>
      </trkpt>
      <trkpt lat="43.75889" lon="3.5465">
        <ele>572.12</ele>
        <time>2015-02-11T12:34:52Z</time>
      </trkpt>
      <trkpt lat="43.75889" lon="3.5465">
        <ele>571.64</ele>
        <time>2015-02-11T12:35:13Z</time>
      </trkpt>
      <trkpt lat="43.75889" lon="3.54651">
        <ele>572.12</ele>
        <time>2015-02-11T12:35:49Z</time>
      </trkpt>
      <trkpt lat="43.75889" lon="3.54651">
        <ele>571.64</ele>
        <time>2015-02-11T12:36:15Z</time>
      </trkpt>
      <trkpt lat="43.75889" lon="3.54652">
        <ele>571.64</ele>
        <time>2015-02-11T12:36:45Z</time>
      </trkpt>
      <trkpt lat="43.7589" lon="3.54652">
        <ele>571.16</ele>
        <time>2015-02-11T12:37:18Z</time>
      </trkpt>
      <trkpt lat="43.7589" lon="3.54652">
        <ele>571.64</ele>
        <time>2015-02-11T12:37:50Z</time>
      </trkpt>
      <trkpt lat="43.75889" lon="3.54651">
        <ele>571.64</ele>
        <time>2015-02-11T12:38:24Z</time>
      </trkpt>
      <trkpt lat="43.75889" lon="3.54651">
        <ele>571.64</ele>
        <time>2015-02-11T12:38:53Z</time>
      </trkpt>
      <trkpt lat="43.7589" lon="3.54652">
        <ele>572.6</ele>
        <time>2015-02-11T12:39:18Z</time>
      </trkpt>
      <trkpt lat="43.7589" lon="3.54652">
        <ele>573.08</ele>
        <time>2015-02-11T12:39:53Z</time>
      </trkpt>
      <trkpt lat="43.7589" lon="3.54652">
        <ele>572.6</ele>
        <time>2015-02-11T12:40:14Z</time>
      </trkpt>
      <trkpt lat="43.7589" lon="3.54653">
        <ele>572.6</ele>
        <time>2015-02-11T12:40:42Z</time>
      </trkpt>
      <trkpt lat="43.7589" lon="3.54653">
        <ele>572.6</ele>
        <time>2015-02-11T12:41:09Z</time>
      </trkpt>
      <trkpt lat="43.75891" lon="3.54653">
        <ele>572.12</ele>
        <time>2015-02-11T12:41:41Z</time>
      </trkpt>
      <trkpt lat="43.7589" lon="3.54653">
        <ele>572.6</ele>
        <time>2015-02-11T12:42:03Z</time>
      </trkpt>
      <trkpt lat="43.75889" lon="3.54654">
        <ele>572.6</ele>
        <time>2015-02-11T12:42:18Z</time>
      </trkpt>
      <trkpt lat="43.75889" lon="3.54654">
        <ele>572.6</ele>
        <time>2015-02-11T12:42:44Z</time>
      </trkpt>
      <trkpt lat="43.75892" lon="3.54655">
        <ele>572.6</ele>
        <time>2015-02-11T12:42:59Z</time>
      </trkpt>
      <trkpt lat="43.75897" lon="3.54661">
        <ele>570.2</ele>
        <time>2015-02-11T12:43:12Z</time>
      </trkpt>
      <trkpt lat="43.75902" lon="3.54667">
        <ele>571.64</ele>
        <time>2015-02-11T12:43:25Z</time>
      </trkpt>
      <trkpt lat="43.75909" lon="3.54674">
        <ele>570.2</ele>
        <time>2015-02-11T12:43:39Z</time>
      </trkpt>
      <trkpt lat="43.75911" lon="3.54681">
        <ele>566.83</ele>
        <time>2015-02-11T12:43:51Z</time>
      </trkpt>
      <trkpt lat="43.75913" lon="3.54681">
        <ele>566.83</ele>
        <time>2015-02-11T12:44:06Z</time>
      </trkpt>
      <trkpt lat="43.75912" lon="3.54683">
        <ele>566.35</ele>
        <time>2015-02-11T12:44:18Z</time>
      </trkpt>
      <trkpt lat="43.75911" lon="3.54692">
        <ele>564.43</ele>
        <time>2015-02-11T12:44:33Z</time>
      </trkpt>
      <trkpt lat="43.75914" lon="3.54696">
        <ele>561.55</ele>
        <time>2015-02-11T12:44:45Z</time>
      </trkpt>
      <trkpt lat="43.75915" lon="3.54703">
        <ele>558.66</ele>
        <time>2015-02-11T12:44:59Z</time>
      </trkpt>
      <trkpt lat="43.75918" lon="3.5471">
        <ele>555.78</ele>
        <time>2015-02-11T12:45:14Z</time>
      </trkpt>
      <trkpt lat="43.75917" lon="3.54719">
        <ele>552.9</ele>
        <time>2015-02-11T12:45:29Z</time>
      </trkpt>
      <trkpt lat="43.75921" lon="3.54721">
        <ele>550.97</ele>
        <time>2015-02-11T12:45:39Z</time>
      </trkpt>
      <trkpt lat="43.75922" lon="3.54723">
        <ele>550.01</ele>
        <time>2015-02-11T12:45:41Z</time>
      </trkpt>
      <trkpt lat="43.75922" lon="3.54732">
        <ele>548.09</ele>
        <time>2015-02-11T12:45:56Z</time>
      </trkpt>
      <trkpt lat="43.75929" lon="3.54739">
        <ele>545.69</ele>
        <time>2015-02-11T12:46:11Z</time>
      </trkpt>
      <trkpt lat="43.75929" lon="3.54739">
        <ele>545.69</ele>
        <time>2015-02-11T12:46:26Z</time>
      </trkpt>
      <trkpt lat="43.75932" lon="3.54743">
        <ele>545.2</ele>
        <time>2015-02-11T12:46:54Z</time>
      </trkpt>
      <trkpt lat="43.75934" lon="3.5475">
        <ele>543.76</ele>
        <time>2015-02-11T12:47:09Z</time>
      </trkpt>
      <trkpt lat="43.7594" lon="3.54755">
        <ele>541.84</ele>
        <time>2015-02-11T12:47:24Z</time>
      </trkpt>
      <trkpt lat="43.7595" lon="3.54757">
        <ele>539.92</ele>
        <time>2015-02-11T12:47:37Z</time>
      </trkpt>
      <trkpt lat="43.75959" lon="3.54768">
        <ele>539.44</ele>
        <time>2015-02-11T12:47:50Z</time>
      </trkpt>
      <trkpt lat="43.75959" lon="3.54773">
        <ele>538.96</ele>
        <time>2015-02-11T12:47:55Z</time>
      </trkpt>
      <trkpt lat="43.75953" lon="3.54784">
        <ele>537.99</ele>
        <time>2015-02-11T12:48:08Z</time>
      </trkpt>
      <trkpt lat="43.75949" lon="3.54798">
        <ele>537.03</ele>
        <time>2015-02-11T12:48:21Z</time>
      </trkpt>
      <trkpt lat="43.75949" lon="3.548">
        <ele>537.03</ele>
        <time>2015-02-11T12:48:24Z</time>
      </trkpt>
      <trkpt lat="43.7595" lon="3.54815">
        <ele>535.59</ele>
        <time>2015-02-11T12:48:41Z</time>
      </trkpt>
      <trkpt lat="43.75948" lon="3.54817">
        <ele>533.67</ele>
        <time>2015-02-11T12:48:53Z</time>
      </trkpt>
      <trkpt lat="43.75946" lon="3.5482">
        <ele>533.19</ele>
        <time>2015-02-11T12:49:12Z</time>
      </trkpt>
      <trkpt lat="43.75944" lon="3.54829">
        <ele>531.27</ele>
        <time>2015-02-11T12:49:25Z</time>
      </trkpt>
      <trkpt lat="43.75944" lon="3.5483">
        <ele>530.79</ele>
        <time>2015-02-11T12:49:26Z</time>
      </trkpt>
      <trkpt lat="43.75941" lon="3.54841">
        <ele>531.27</ele>
        <time>2015-02-11T12:49:37Z</time>
      </trkpt>
      <trkpt lat="43.75935" lon="3.54849">
        <ele>531.27</ele>
        <time>2015-02-11T12:49:49Z</time>
      </trkpt>
      <trkpt lat="43.75935" lon="3.54849">
        <ele>531.27</ele>
        <time>2015-02-11T12:49:50Z</time>
      </trkpt>
      <trkpt lat="43.75929" lon="3.54862">
        <ele>529.82</ele>
        <time>2015-02-11T12:50:03Z</time>
      </trkpt>
      <trkpt lat="43.75925" lon="3.54866">
        <ele>528.86</ele>
        <time>2015-02-11T12:50:08Z</time>
      </trkpt>
      <trkpt lat="43.75922" lon="3.54881">
        <ele>527.9</ele>
        <time>2015-02-11T12:50:20Z</time>
      </trkpt>
      <trkpt lat="43.75924" lon="3.54889">
        <ele>527.9</ele>
        <time>2015-02-11T12:50:36Z</time>
      </trkpt>
      <trkpt lat="43.75927" lon="3.54892">
        <ele>529.82</ele>
        <time>2015-02-11T12:50:50Z</time>
      </trkpt>
      <trkpt lat="43.75929" lon="3.54892">
        <ele>530.3</ele>
        <time>2015-02-11T12:51:03Z</time>
      </trkpt>
      <trkpt lat="43.75932" lon="3.54884">
        <ele>531.75</ele>
        <time>2015-02-11T12:51:18Z</time>
      </trkpt>
      <trkpt lat="43.75932" lon="3.54883">
        <ele>531.75</ele>
        <time>2015-02-11T12:51:35Z</time>
      </trkpt>
      <trkpt lat="43.75935" lon="3.54885">
        <ele>534.63</ele>
        <time>2015-02-11T12:51:49Z</time>
      </trkpt>
      <trkpt lat="43.75937" lon="3.54887">
        <ele>536.07</ele>
        <time>2015-02-11T12:51:58Z</time>
      </trkpt>
      <trkpt lat="43.7594" lon="3.54887">
        <ele>537.51</ele>
        <time>2015-02-11T12:52:11Z</time>
      </trkpt>
      <trkpt lat="43.75942" lon="3.54887">
        <ele>538.48</ele>
        <time>2015-02-11T12:52:26Z</time>
      </trkpt>
      <trkpt lat="43.75944" lon="3.54886">
        <ele>537.51</ele>
        <time>2015-02-11T12:52:35Z</time>
      </trkpt>
      <trkpt lat="43.75951" lon="3.54889">
        <ele>539.44</ele>
        <time>2015-02-11T12:52:47Z</time>
      </trkpt>
      <trkpt lat="43.75953" lon="3.54889">
        <ele>540.88</ele>
        <time>2015-02-11T12:52:57Z</time>
      </trkpt>
      <trkpt lat="43.75959" lon="3.54892">
        <ele>542.8</ele>
        <time>2015-02-11T12:53:12Z</time>
      </trkpt>
      <trkpt lat="43.75965" lon="3.54889">
        <ele>544.24</ele>
        <time>2015-02-11T12:53:24Z</time>
      </trkpt>
      <trkpt lat="43.75971" lon="3.54891">
        <ele>546.17</ele>
        <time>2015-02-11T12:53:37Z</time>
      </trkpt>
      <trkpt lat="43.75972" lon="3.54892">
        <ele>547.13</ele>
        <time>2015-02-11T12:53:41Z</time>
      </trkpt>
      <trkpt lat="43.7598" lon="3.54898">
        <ele>548.57</ele>
        <time>2015-02-11T12:53:53Z</time>
      </trkpt>
      <trkpt lat="43.7598" lon="3.54898">
        <ele>548.57</ele>
        <time>2015-02-11T12:53:54Z</time>
      </trkpt>
      <trkpt lat="43.75984" lon="3.54903">
        <ele>548.57</ele>
        <time>2015-02-11T12:54:00Z</time>
      </trkpt>
      <trkpt lat="43.75992" lon="3.54906">
        <ele>549.53</ele>
        <time>2015-02-11T12:54:14Z</time>
      </trkpt>
      <trkpt lat="43.76" lon="3.5491">
        <ele>550.49</ele>
        <time>2015-02-11T12:54:26Z</time>
      </trkpt>
      <trkpt lat="43.76007" lon="3.54915">
        <ele>551.93</ele>
        <time>2015-02-11T12:54:39Z</time>
      </trkpt>
      <trkpt lat="43.76009" lon="3.54917">
        <ele>552.41</ele>
        <time>2015-02-11T12:54:55Z</time>
      </trkpt>
      <trkpt lat="43.76018" lon="3.54925">
        <ele>554.34</ele>
        <time>2015-02-11T12:55:10Z</time>
      </trkpt>
      <trkpt lat="43.76025" lon="3.54929">
        <ele>555.78</ele>
        <time>2015-02-11T12:55:22Z</time>
      </trkpt>
      <trkpt lat="43.76028" lon="3.54932">
        <ele>557.7</ele>
        <time>2015-02-11T12:55:35Z</time>
      </trkpt>
      <trkpt lat="43.76029" lon="3.54935">
        <ele>557.22</ele>
        <time>2015-02-11T12:55:46Z</time>
      </trkpt>
      <trkpt lat="43.76029" lon="3.54933">
        <ele>557.7</ele>
        <time>2015-02-11T12:56:00Z</time>
      </trkpt>
      <trkpt lat="43.76032" lon="3.54936">
        <ele>557.22</ele>
        <time>2015-02-11T12:56:13Z</time>
      </trkpt>
      <trkpt lat="43.76036" lon="3.54942">
        <ele>557.7</ele>
        <time>2015-02-11T12:56:22Z</time>
      </trkpt>
      <trkpt lat="43.76044" lon="3.54958">
        <ele>558.18</ele>
        <time>2015-02-11T12:56:38Z</time>
      </trkpt>
      <trkpt lat="43.76048" lon="3.54963">
        <ele>558.66</ele>
        <time>2015-02-11T12:56:44Z</time>
      </trkpt>
      <trkpt lat="43.76056" lon="3.54967">
        <ele>559.62</ele>
        <time>2015-02-11T12:56:56Z</time>
      </trkpt>
      <trkpt lat="43.76064" lon="3.54975">
        <ele>559.14</ele>
        <time>2015-02-11T12:57:11Z</time>
      </trkpt>
      <trkpt lat="43.76071" lon="3.54975">
        <ele>559.62</ele>
        <time>2015-02-11T12:57:25Z</time>
      </trkpt>
      <trkpt lat="43.76077" lon="3.54984">
        <ele>560.11</ele>
        <time>2015-02-11T12:57:37Z</time>
      </trkpt>
      <trkpt lat="43.76079" lon="3.54996">
        <ele>562.03</ele>
        <time>2015-02-11T12:57:50Z</time>
      </trkpt>
      <trkpt lat="43.76077" lon="3.55006">
        <ele>563.95</ele>
        <time>2015-02-11T12:58:05Z</time>
      </trkpt>
      <trkpt lat="43.76081" lon="3.55012">
        <ele>565.87</ele>
        <time>2015-02-11T12:58:20Z</time>
      </trkpt>
      <trkpt lat="43.7608" lon="3.5502">
        <ele>567.8</ele>
        <time>2015-02-11T12:58:33Z</time>
      </trkpt>
      <trkpt lat="43.76081" lon="3.55023">
        <ele>568.28</ele>
        <time>2015-02-11T12:58:47Z</time>
      </trkpt>
      <trkpt lat="43.76083" lon="3.55024">
        <ele>570.2</ele>
        <time>2015-02-11T12:59:00Z</time>
      </trkpt>
      <trkpt lat="43.76084" lon="3.55035">
        <ele>571.64</ele>
        <time>2015-02-11T12:59:13Z</time>
      </trkpt>
      <trkpt lat="43.76086" lon="3.5504">
        <ele>573.08</ele>
        <time>2015-02-11T12:59:23Z</time>
      </trkpt>
      <trkpt lat="43.76088" lon="3.55037">
        <ele>574.04</ele>
        <time>2015-02-11T12:59:36Z</time>
      </trkpt>
      <trkpt lat="43.76088" lon="3.55037">
        <ele>574.53</ele>
        <time>2015-02-11T12:59:50Z</time>
      </trkpt>
      <trkpt lat="43.76089" lon="3.55038">
        <ele>574.53</ele>
        <time>2015-02-11T13:00:12Z</time>
      </trkpt>
      <trkpt lat="43.7609" lon="3.55037">
        <ele>574.53</ele>
        <time>2015-02-11T13:00:43Z</time>
      </trkpt>
      <trkpt lat="43.76091" lon="3.55037">
        <ele>574.04</ele>
        <time>2015-02-11T13:01:14Z</time>
      </trkpt>
      <trkpt lat="43.76097" lon="3.55034">
        <ele>577.41</ele>
        <time>2015-02-11T13:01:28Z</time>
      </trkpt>
      <trkpt lat="43.76101" lon="3.55038">
        <ele>579.81</ele>
        <time>2015-02-11T13:01:40Z</time>
      </trkpt>
      <trkpt lat="43.76104" lon="3.55045">
        <ele>581.73</ele>
        <time>2015-02-11T13:01:53Z</time>
      </trkpt>
      <trkpt lat="43.76108" lon="3.55054">
        <ele>583.18</ele>
        <time>2015-02-11T13:02:07Z</time>
      </trkpt>
      <trkpt lat="43.76112" lon="3.55055">
        <ele>584.62</ele>
        <time>2015-02-11T13:02:21Z</time>
      </trkpt>
      <trkpt lat="43.76117" lon="3.55056">
        <ele>586.54</ele>
        <time>2015-02-11T13:02:31Z</time>
      </trkpt>
      <trkpt lat="43.76117" lon="3.55056">
        <ele>587.02</ele>
        <time>2015-02-11T13:02:51Z</time>
      </trkpt>
      <trkpt lat="43.76117" lon="3.55059">
        <ele>587.02</ele>
        <time>2015-02-11T13:03:15Z</time>
      </trkpt>
      <trkpt lat="43.76119" lon="3.55061">
        <ele>587.5</ele>
        <time>2015-02-11T13:03:36Z</time>
      </trkpt>
      <trkpt lat="43.76121" lon="3.5506">
        <ele>587.98</ele>
        <time>2015-02-11T13:04:02Z</time>
      </trkpt>
      <trkpt lat="43.76122" lon="3.5506">
        <ele>588.95</ele>
        <time>2015-02-11T13:04:04Z</time>
      </trkpt>
      <trkpt lat="43.76125" lon="3.55063">
        <ele>588.95</ele>
        <time>2015-02-11T13:04:11Z</time>
      </trkpt>
      <trkpt lat="43.76124" lon="3.55062">
        <ele>589.43</ele>
        <time>2015-02-11T13:04:13Z</time>
      </trkpt>
      <trkpt lat="43.76124" lon="3.55058">
        <ele>588.95</ele>
        <time>2015-02-11T13:04:17Z</time>
      </trkpt>
      <trkpt lat="43.76126" lon="3.55058">
        <ele>590.87</ele>
        <time>2015-02-11T13:04:20Z</time>
      </trkpt>
      <trkpt lat="43.76128" lon="3.55059">
        <ele>591.83</ele>
        <time>2015-02-11T13:04:25Z</time>
      </trkpt>
      <trkpt lat="43.76129" lon="3.55059">
        <ele>591.35</ele>
        <time>2015-02-11T13:04:26Z</time>
      </trkpt>
      <trkpt lat="43.76137" lon="3.55065">
        <ele>591.83</ele>
        <time>2015-02-11T13:04:40Z</time>
      </trkpt>
      <trkpt lat="43.76142" lon="3.5507">
        <ele>592.31</ele>
        <time>2015-02-11T13:04:54Z</time>
      </trkpt>
      <trkpt lat="43.76147" lon="3.55073">
        <ele>593.27</ele>
        <time>2015-02-11T13:05:05Z</time>
      </trkpt>
      <trkpt lat="43.76152" lon="3.55072">
        <ele>592.31</ele>
        <time>2015-02-11T13:05:14Z</time>
      </trkpt>
      <trkpt lat="43.76161" lon="3.55075">
        <ele>591.35</ele>
        <time>2015-02-11T13:05:27Z</time>
      </trkpt>
      <trkpt lat="43.76169" lon="3.55077">
        <ele>592.31</ele>
        <time>2015-02-11T13:05:39Z</time>
      </trkpt>
      <trkpt lat="43.76178" lon="3.55081">
        <ele>592.31</ele>
        <time>2015-02-11T13:05:49Z</time>
      </trkpt>
      <trkpt lat="43.76179" lon="3.55087">
        <ele>592.79</ele>
        <time>2015-02-11T13:06:00Z</time>
      </trkpt>
      <trkpt lat="43.76179" lon="3.55086">
        <ele>591.83</ele>
        <time>2015-02-11T13:06:23Z</time>
      </trkpt>
      <trkpt lat="43.76178" lon="3.55088">
        <ele>592.79</ele>
        <time>2015-02-11T13:06:41Z</time>
      </trkpt>
      <trkpt lat="43.76178" lon="3.55087">
        <ele>592.79</ele>
        <time>2015-02-11T13:07:16Z</time>
      </trkpt>
      <trkpt lat="43.76178" lon="3.55088">
        <ele>592.31</ele>
        <time>2015-02-11T13:07:45Z</time>
      </trkpt>
      <trkpt lat="43.76178" lon="3.55089">
        <ele>592.79</ele>
        <time>2015-02-11T13:07:58Z</time>
      </trkpt>
      <trkpt lat="43.76178" lon="3.55092">
        <ele>592.79</ele>
        <time>2015-02-11T13:08:09Z</time>
      </trkpt>
      <trkpt lat="43.76177" lon="3.55092">
        <ele>592.31</ele>
        <time>2015-02-11T13:08:20Z</time>
      </trkpt>
      <trkpt lat="43.76177" lon="3.55093">
        <ele>592.31</ele>
        <time>2015-02-11T13:08:24Z</time>
      </trkpt>
      <trkpt lat="43.76174" lon="3.55102">
        <ele>593.27</ele>
        <time>2015-02-11T13:08:37Z</time>
      </trkpt>
      <trkpt lat="43.76174" lon="3.55103">
        <ele>593.27</ele>
        <time>2015-02-11T13:08:47Z</time>
      </trkpt>
      <trkpt lat="43.7618" lon="3.55106">
        <ele>592.79</ele>
        <time>2015-02-11T13:08:59Z</time>
      </trkpt>
      <trkpt lat="43.76181" lon="3.55108">
        <ele>592.79</ele>
        <time>2015-02-11T13:09:01Z</time>
      </trkpt>
      <trkpt lat="43.76187" lon="3.55124">
        <ele>592.79</ele>
        <time>2015-02-11T13:09:13Z</time>
      </trkpt>
      <trkpt lat="43.76189" lon="3.55129">
        <ele>592.79</ele>
        <time>2015-02-11T13:09:17Z</time>
      </trkpt>
      <trkpt lat="43.76194" lon="3.55142">
        <ele>592.79</ele>
        <time>2015-02-11T13:09:27Z</time>
      </trkpt>
      <trkpt lat="43.76203" lon="3.5516">
        <ele>593.27</ele>
        <time>2015-02-11T13:09:41Z</time>
      </trkpt>
      <trkpt lat="43.76208" lon="3.55178">
        <ele>593.75</ele>
        <time>2015-02-11T13:09:53Z</time>
      </trkpt>
      <trkpt lat="43.76214" lon="3.55195">
        <ele>594.71</ele>
        <time>2015-02-11T13:10:07Z</time>
      </trkpt>
      <trkpt lat="43.7622" lon="3.55201">
        <ele>594.71</ele>
        <time>2015-02-11T13:10:18Z</time>
      </trkpt>
      <trkpt lat="43.76219" lon="3.55205">
        <ele>595.19</ele>
        <time>2015-02-11T13:10:33Z</time>
      </trkpt>
      <trkpt lat="43.76219" lon="3.55209">
        <ele>594.23</ele>
        <time>2015-02-11T13:10:43Z</time>
      </trkpt>
      <trkpt lat="43.7621" lon="3.55214">
        <ele>594.71</ele>
        <time>2015-02-11T13:10:56Z</time>
      </trkpt>
      <trkpt lat="43.76209" lon="3.55216">
        <ele>594.71</ele>
        <time>2015-02-11T13:11:04Z</time>
      </trkpt>
      <trkpt lat="43.76204" lon="3.55223">
        <ele>593.75</ele>
        <time>2015-02-11T13:11:16Z</time>
      </trkpt>
      <trkpt lat="43.76202" lon="3.55224">
        <ele>594.23</ele>
        <time>2015-02-11T13:11:34Z</time>
      </trkpt>
      <trkpt lat="43.76194" lon="3.55226">
        <ele>592.79</ele>
        <time>2015-02-11T13:11:48Z</time>
      </trkpt>
      <trkpt lat="43.76188" lon="3.55229">
        <ele>593.27</ele>
        <time>2015-02-11T13:11:55Z</time>
      </trkpt>
      <trkpt lat="43.7618" lon="3.55232">
        <ele>592.79</ele>
        <time>2015-02-11T13:12:04Z</time>
      </trkpt>
      <trkpt lat="43.76176" lon="3.55234">
        <ele>592.79</ele>
        <time>2015-02-11T13:12:08Z</time>
      </trkpt>
      <trkpt lat="43.76165" lon="3.5524">
        <ele>592.31</ele>
        <time>2015-02-11T13:12:21Z</time>
      </trkpt>
      <trkpt lat="43.76157" lon="3.55245">
        <ele>590.87</ele>
        <time>2015-02-11T13:12:34Z</time>
      </trkpt>
      <trkpt lat="43.76156" lon="3.55246">
        <ele>590.39</ele>
        <time>2015-02-11T13:12:37Z</time>
      </trkpt>
      <trkpt lat="43.7615" lon="3.55254">
        <ele>589.43</ele>
        <time>2015-02-11T13:12:48Z</time>
      </trkpt>
      <trkpt lat="43.76148" lon="3.55255">
        <ele>588.95</ele>
        <time>2015-02-11T13:12:51Z</time>
      </trkpt>
      <trkpt lat="43.76141" lon="3.55266">
        <ele>588.46</ele>
        <time>2015-02-11T13:13:02Z</time>
      </trkpt>
      <trkpt lat="43.76137" lon="3.55276">
        <ele>587.02</ele>
        <time>2015-02-11T13:13:15Z</time>
      </trkpt>
      <trkpt lat="43.76133" lon="3.55277">
        <ele>585.1</ele>
        <time>2015-02-11T13:13:27Z</time>
      </trkpt>
      <trkpt lat="43.76131" lon="3.55277">
        <ele>584.14</ele>
        <time>2015-02-11T13:13:30Z</time>
      </trkpt>
      <trkpt lat="43.76126" lon="3.55281">
        <ele>583.18</ele>
        <time>2015-02-11T13:13:42Z</time>
      </trkpt>
      <trkpt lat="43.76122" lon="3.55277">
        <ele>580.77</ele>
        <time>2015-02-11T13:13:54Z</time>
      </trkpt>
      <trkpt lat="43.76121" lon="3.55277">
        <ele>578.85</ele>
        <time>2015-02-11T13:14:03Z</time>
      </trkpt>
      <trkpt lat="43.7612" lon="3.55275">
        <ele>576.93</ele>
        <time>2015-02-11T13:14:14Z</time>
      </trkpt>
      <trkpt lat="43.76116" lon="3.55274">
        <ele>574.04</ele>
        <time>2015-02-11T13:14:26Z</time>
      </trkpt>
      <trkpt lat="43.76113" lon="3.55275">
        <ele>572.12</ele>
        <time>2015-02-11T13:14:35Z</time>
      </trkpt>
      <trkpt lat="43.76108" lon="3.55273">
        <ele>569.24</ele>
        <time>2015-02-11T13:14:49Z</time>
      </trkpt>
      <trkpt lat="43.76106" lon="3.55274">
        <ele>568.28</ele>
        <time>2015-02-11T13:14:53Z</time>
      </trkpt>
      <trkpt lat="43.76104" lon="3.55273">
        <ele>567.8</ele>
        <time>2015-02-11T13:14:56Z</time>
      </trkpt>
      <trkpt lat="43.76096" lon="3.55279">
        <ele>566.83</ele>
        <time>2015-02-11T13:15:08Z</time>
      </trkpt>
      <trkpt lat="43.76091" lon="3.55284">
        <ele>565.39</ele>
        <time>2015-02-11T13:15:20Z</time>
      </trkpt>
      <trkpt lat="43.76085" lon="3.55289">
        <ele>565.87</ele>
        <time>2015-02-11T13:15:32Z</time>
      </trkpt>
      <trkpt lat="43.76081" lon="3.55292">
        <ele>565.39</ele>
        <time>2015-02-11T13:15:48Z</time>
      </trkpt>
      <trkpt lat="43.76074" lon="3.55297">
        <ele>562.99</ele>
        <time>2015-02-11T13:16:01Z</time>
      </trkpt>
      <trkpt lat="43.76074" lon="3.55297">
        <ele>562.99</ele>
        <time>2015-02-11T13:16:02Z</time>
      </trkpt>
      <trkpt lat="43.76073" lon="3.55298">
        <ele>562.51</ele>
        <time>2015-02-11T13:16:12Z</time>
      </trkpt>
      <trkpt lat="43.76071" lon="3.55298">
        <ele>562.03</ele>
        <time>2015-02-11T13:16:16Z</time>
      </trkpt>
      <trkpt lat="43.76068" lon="3.553">
        <ele>561.55</ele>
        <time>2015-02-11T13:16:18Z</time>
      </trkpt>
      <trkpt lat="43.76068" lon="3.55303">
        <ele>561.07</ele>
        <time>2015-02-11T13:16:29Z</time>
      </trkpt>
      <trkpt lat="43.76071" lon="3.55306">
        <ele>561.55</ele>
        <time>2015-02-11T13:16:39Z</time>
      </trkpt>
      <trkpt lat="43.76073" lon="3.55312">
        <ele>559.62</ele>
        <time>2015-02-11T13:16:51Z</time>
      </trkpt>
      <trkpt lat="43.76073" lon="3.55315">
        <ele>556.26</ele>
        <time>2015-02-11T13:16:58Z</time>
      </trkpt>
      <trkpt lat="43.76073" lon="3.55315">
        <ele>559.62</ele>
        <time>2015-02-11T13:16:59Z</time>
      </trkpt>
      <trkpt lat="43.76074" lon="3.55316">
        <ele>556.74</ele>
        <time>2015-02-11T13:17:13Z</time>
      </trkpt>
      <trkpt lat="43.76075" lon="3.55317">
        <ele>556.26</ele>
        <time>2015-02-11T13:17:18Z</time>
      </trkpt>
      <trkpt lat="43.76079" lon="3.5532">
        <ele>554.82</ele>
        <time>2015-02-11T13:17:33Z</time>
      </trkpt>
      <trkpt lat="43.76081" lon="3.55324">
        <ele>555.3</ele>
        <time>2015-02-11T13:17:50Z</time>
      </trkpt>
      <trkpt lat="43.76078" lon="3.55326">
        <ele>554.82</ele>
        <time>2015-02-11T13:18:03Z</time>
      </trkpt>
      <trkpt lat="43.76079" lon="3.5533">
        <ele>553.86</ele>
        <time>2015-02-11T13:18:14Z</time>
      </trkpt>
      <trkpt lat="43.76079" lon="3.55332">
        <ele>553.86</ele>
        <time>2015-02-11T13:18:30Z</time>
      </trkpt>
      <trkpt lat="43.76078" lon="3.55335">
        <ele>553.86</ele>
        <time>2015-02-11T13:18:33Z</time>
      </trkpt>
      <trkpt lat="43.76077" lon="3.55336">
        <ele>553.86</ele>
        <time>2015-02-11T13:18:45Z</time>
      </trkpt>
      <trkpt lat="43.76072" lon="3.55337">
        <ele>552.9</ele>
        <time>2015-02-11T13:18:55Z</time>
      </trkpt>
      <trkpt lat="43.76072" lon="3.55339">
        <ele>552.9</ele>
        <time>2015-02-11T13:19:17Z</time>
      </trkpt>
      <trkpt lat="43.76074" lon="3.55338">
        <ele>553.38</ele>
        <time>2015-02-11T13:19:26Z</time>
      </trkpt>
      <trkpt lat="43.76069" lon="3.55336">
        <ele>550.01</ele>
        <time>2015-02-11T13:19:40Z</time>
      </trkpt>
      <trkpt lat="43.76068" lon="3.55335">
        <ele>550.01</ele>
        <time>2015-02-11T13:19:57Z</time>
      </trkpt>
      <trkpt lat="43.76067" lon="3.55338">
        <ele>550.01</ele>
        <time>2015-02-11T13:20:16Z</time>
      </trkpt>
      <trkpt lat="43.76061" lon="3.55337">
        <ele>548.09</ele>
        <time>2015-02-11T13:20:30Z</time>
      </trkpt>
      <trkpt lat="43.7606" lon="3.55339">
        <ele>548.57</ele>
        <time>2015-02-11T13:20:36Z</time>
      </trkpt>
      <trkpt lat="43.76058" lon="3.55343">
        <ele>546.65</ele>
        <time>2015-02-11T13:20:47Z</time>
      </trkpt>
      <trkpt lat="43.76055" lon="3.55345">
        <ele>545.2</ele>
        <time>2015-02-11T13:20:56Z</time>
      </trkpt>
      <trkpt lat="43.76051" lon="3.55344">
        <ele>543.28</ele>
        <time>2015-02-11T13:21:08Z</time>
      </trkpt>
      <trkpt lat="43.76048" lon="3.55352">
        <ele>542.32</ele>
        <time>2015-02-11T13:21:19Z</time>
      </trkpt>
      <trkpt lat="43.76047" lon="3.55357">
        <ele>541.36</ele>
        <time>2015-02-11T13:21:31Z</time>
      </trkpt>
      <trkpt lat="43.76045" lon="3.55358">
        <ele>540.4</ele>
        <time>2015-02-11T13:21:36Z</time>
      </trkpt>
      <trkpt lat="43.76041" lon="3.55366">
        <ele>538.48</ele>
        <time>2015-02-11T13:21:47Z</time>
      </trkpt>
      <trkpt lat="43.76037" lon="3.55365">
        <ele>537.51</ele>
        <time>2015-02-11T13:21:58Z</time>
      </trkpt>
      <trkpt lat="43.76035" lon="3.55373">
        <ele>536.07</ele>
        <time>2015-02-11T13:22:10Z</time>
      </trkpt>
      <trkpt lat="43.76034" lon="3.55375">
        <ele>536.07</ele>
        <time>2015-02-11T13:22:13Z</time>
      </trkpt>
      <trkpt lat="43.76029" lon="3.55379">
        <ele>536.07</ele>
        <time>2015-02-11T13:22:27Z</time>
      </trkpt>
      <trkpt lat="43.76026" lon="3.55381">
        <ele>535.11</ele>
        <time>2015-02-11T13:22:38Z</time>
      </trkpt>
      <trkpt lat="43.76019" lon="3.55383">
        <ele>533.19</ele>
        <time>2015-02-11T13:22:51Z</time>
      </trkpt>
      <trkpt lat="43.76018" lon="3.55385">
        <ele>532.23</ele>
        <time>2015-02-11T13:22:57Z</time>
      </trkpt>
      <trkpt lat="43.76013" lon="3.55387">
        <ele>530.79</ele>
        <time>2015-02-11T13:23:11Z</time>
      </trkpt>
      <trkpt lat="43.76011" lon="3.55388">
        <ele>527.9</ele>
        <time>2015-02-11T13:23:24Z</time>
      </trkpt>
      <trkpt lat="43.76005" lon="3.55389">
        <ele>525.5</ele>
        <time>2015-02-11T13:23:36Z</time>
      </trkpt>
      <trkpt lat="43.75998" lon="3.55391">
        <ele>523.09</ele>
        <time>2015-02-11T13:23:49Z</time>
      </trkpt>
      <trkpt lat="43.75992" lon="3.55391">
        <ele>521.17</ele>
        <time>2015-02-11T13:24:01Z</time>
      </trkpt>
      <trkpt lat="43.7599" lon="3.55393">
        <ele>520.69</ele>
        <time>2015-02-11T13:24:11Z</time>
      </trkpt>
      <trkpt lat="43.75987" lon="3.55397">
        <ele>519.25</ele>
        <time>2015-02-11T13:24:24Z</time>
      </trkpt>
      <trkpt lat="43.75987" lon="3.55398">
        <ele>519.25</ele>
        <time>2015-02-11T13:24:29Z</time>
      </trkpt>
      <trkpt lat="43.75983" lon="3.55404">
        <ele>517.81</ele>
        <time>2015-02-11T13:24:42Z</time>
      </trkpt>
      <trkpt lat="43.75983" lon="3.55405">
        <ele>517.81</ele>
        <time>2015-02-11T13:24:45Z</time>
      </trkpt>
      <trkpt lat="43.75983" lon="3.55412">
        <ele>517.33</ele>
        <time>2015-02-11T13:24:54Z</time>
      </trkpt>
      <trkpt lat="43.75983" lon="3.55414">
        <ele>517.33</ele>
        <time>2015-02-11T13:25:09Z</time>
      </trkpt>
      <trkpt lat="43.75982" lon="3.55414">
        <ele>517.81</ele>
        <time>2015-02-11T13:25:26Z</time>
      </trkpt>
      <trkpt lat="43.75981" lon="3.55413">
        <ele>517.33</ele>
        <time>2015-02-11T13:25:45Z</time>
      </trkpt>
      <trkpt lat="43.75982" lon="3.55414">
        <ele>517.33</ele>
        <time>2015-02-11T13:25:51Z</time>
      </trkpt>
      <trkpt lat="43.75985" lon="3.55418">
        <ele>516.37</ele>
        <time>2015-02-11T13:26:05Z</time>
      </trkpt>
      <trkpt lat="43.75986" lon="3.55424">
        <ele>516.85</ele>
        <time>2015-02-11T13:26:16Z</time>
      </trkpt>
      <trkpt lat="43.75985" lon="3.55427">
        <ele>515.88</ele>
        <time>2015-02-11T13:26:26Z</time>
      </trkpt>
      <trkpt lat="43.75985" lon="3.55428">
        <ele>515.4</ele>
        <time>2015-02-11T13:26:48Z</time>
      </trkpt>
      <trkpt lat="43.75984" lon="3.55428">
        <ele>515.4</ele>
        <time>2015-02-11T13:27:09Z</time>
      </trkpt>
      <trkpt lat="43.75984" lon="3.55428">
        <ele>515.4</ele>
        <time>2015-02-11T13:27:22Z</time>
      </trkpt>
      <trkpt lat="43.75984" lon="3.55428">
        <ele>515.4</ele>
        <time>2015-02-11T13:27:39Z</time>
      </trkpt>
      <trkpt lat="43.75984" lon="3.55427">
        <ele>515.88</ele>
        <time>2015-02-11T13:27:58Z</time>
      </trkpt>
      <trkpt lat="43.75984" lon="3.55426">
        <ele>515.88</ele>
        <time>2015-02-11T13:28:23Z</time>
      </trkpt>
      <trkpt lat="43.75985" lon="3.55426">
        <ele>515.88</ele>
        <time>2015-02-11T13:28:44Z</time>
      </trkpt>
      <trkpt lat="43.75983" lon="3.55427">
        <ele>514.92</ele>
        <time>2015-02-11T13:29:02Z</time>
      </trkpt>
      <trkpt lat="43.75983" lon="3.55432">
        <ele>513.96</ele>
        <time>2015-02-11T13:29:22Z</time>
      </trkpt>
      <trkpt lat="43.75982" lon="3.55435">
        <ele>512.04</ele>
        <time>2015-02-11T13:29:38Z</time>
      </trkpt>
      <trkpt lat="43.75984" lon="3.55432">
        <ele>512.52</ele>
        <time>2015-02-11T13:30:05Z</time>
      </trkpt>
      <trkpt lat="43.75984" lon="3.55434">
        <ele>512.52</ele>
        <time>2015-02-11T13:30:33Z</time>
      </trkpt>
      <trkpt lat="43.75984" lon="3.55431">
        <ele>512.52</ele>
        <time>2015-02-11T13:31:05Z</time>
      </trkpt>
      <trkpt lat="43.75983" lon="3.55432">
        <ele>512.52</ele>
        <time>2015-02-11T13:31:33Z</time>
      </trkpt>
      <trkpt lat="43.75983" lon="3.55432">
        <ele>513</ele>
        <time>2015-02-11T13:32:01Z</time>
      </trkpt>
      <trkpt lat="43.75984" lon="3.55431">
        <ele>513</ele>
        <time>2015-02-11T13:32:20Z</time>
      </trkpt>
      <trkpt lat="43.75984" lon="3.5543">
        <ele>513</ele>
        <time>2015-02-11T13:32:53Z</time>
      </trkpt>
      <trkpt lat="43.75984" lon="3.5543">
        <ele>513</ele>
        <time>2015-02-11T13:33:18Z</time>
      </trkpt>
      <trkpt lat="43.75983" lon="3.5543">
        <ele>513</ele>
        <time>2015-02-11T13:33:43Z</time>
      </trkpt>
      <trkpt lat="43.75984" lon="3.5543">
        <ele>513.48</ele>
        <time>2015-02-11T13:34:16Z</time>
      </trkpt>
      <trkpt lat="43.75986" lon="3.55429">
        <ele>513.48</ele>
        <time>2015-02-11T13:34:47Z</time>
      </trkpt>
      <trkpt lat="43.75986" lon="3.55429">
        <ele>513.48</ele>
        <time>2015-02-11T13:35:12Z</time>
      </trkpt>
      <trkpt lat="43.75985" lon="3.55428">
        <ele>513.48</ele>
        <time>2015-02-11T13:35:37Z</time>
      </trkpt>
      <trkpt lat="43.75984" lon="3.55431">
        <ele>513</ele>
        <time>2015-02-11T13:35:56Z</time>
      </trkpt>
      <trkpt lat="43.75984" lon="3.55431">
        <ele>513.48</ele>
        <time>2015-02-11T13:36:14Z</time>
      </trkpt>
      <trkpt lat="43.75983" lon="3.55432">
        <ele>513.48</ele>
        <time>2015-02-11T13:36:37Z</time>
      </trkpt>
      <trkpt lat="43.75983" lon="3.55437">
        <ele>513.48</ele>
        <time>2015-02-11T13:37:00Z</time>
      </trkpt>
      <trkpt lat="43.75984" lon="3.55435">
        <ele>513</ele>
        <time>2015-02-11T13:37:16Z</time>
      </trkpt>
      <trkpt lat="43.75985" lon="3.55435">
        <ele>512.52</ele>
        <time>2015-02-11T13:37:42Z</time>
      </trkpt>
      <trkpt lat="43.75983" lon="3.55439">
        <ele>511.56</ele>
        <time>2015-02-11T13:37:55Z</time>
      </trkpt>
      <trkpt lat="43.75985" lon="3.55439">
        <ele>512.04</ele>
        <time>2015-02-11T13:38:16Z</time>
      </trkpt>
      <trkpt lat="43.75986" lon="3.5544">
        <ele>512.52</ele>
        <time>2015-02-11T13:38:50Z</time>
      </trkpt>
      <trkpt lat="43.75984" lon="3.55443">
        <ele>512.04</ele>
        <time>2015-02-11T13:39:05Z</time>
      </trkpt>
      <trkpt lat="43.7598" lon="3.55448">
        <ele>510.6</ele>
        <time>2015-02-11T13:39:14Z</time>
      </trkpt>
      <trkpt lat="43.75977" lon="3.55456">
        <ele>509.64</ele>
        <time>2015-02-11T13:39:25Z</time>
      </trkpt>
      <trkpt lat="43.75973" lon="3.55459">
        <ele>510.12</ele>
        <time>2015-02-11T13:39:33Z</time>
      </trkpt>
      <trkpt lat="43.75966" lon="3.5547">
        <ele>509.64</ele>
        <time>2015-02-11T13:39:46Z</time>
      </trkpt>
      <trkpt lat="43.75965" lon="3.5547">
        <ele>509.16</ele>
        <time>2015-02-11T13:39:49Z</time>
      </trkpt>
      <trkpt lat="43.75962" lon="3.55475">
        <ele>507.71</ele>
        <time>2015-02-11T13:39:56Z</time>
      </trkpt>
      <trkpt lat="43.75958" lon="3.55478">
        <ele>505.79</ele>
        <time>2015-02-11T13:40:08Z</time>
      </trkpt>
      <trkpt lat="43.75958" lon="3.55478">
        <ele>504.35</ele>
        <time>2015-02-11T13:40:18Z</time>
      </trkpt>
      <trkpt lat="43.75958" lon="3.55479">
        <ele>503.39</ele>
        <time>2015-02-11T13:40:38Z</time>
      </trkpt>
      <trkpt lat="43.75957" lon="3.55481">
        <ele>501.95</ele>
        <time>2015-02-11T13:40:49Z</time>
      </trkpt>
      <trkpt lat="43.7596" lon="3.55488">
        <ele>501.46</ele>
        <time>2015-02-11T13:41:01Z</time>
      </trkpt>
      <trkpt lat="43.75958" lon="3.55498">
        <ele>499.06</ele>
        <time>2015-02-11T13:41:15Z</time>
      </trkpt>
      <trkpt lat="43.75952" lon="3.55507">
        <ele>496.66</ele>
        <time>2015-02-11T13:41:29Z</time>
      </trkpt>
      <trkpt lat="43.75949" lon="3.55512">
        <ele>496.18</ele>
        <time>2015-02-11T13:41:38Z</time>
      </trkpt>
      <trkpt lat="43.75944" lon="3.55518">
        <ele>494.74</ele>
        <time>2015-02-11T13:41:47Z</time>
      </trkpt>
      <trkpt lat="43.7594" lon="3.55527">
        <ele>493.77</ele>
        <time>2015-02-11T13:41:56Z</time>
      </trkpt>
      <trkpt lat="43.7594" lon="3.55534">
        <ele>493.29</ele>
        <time>2015-02-11T13:42:06Z</time>
      </trkpt>
      <trkpt lat="43.75939" lon="3.55536">
        <ele>492.81</ele>
        <time>2015-02-11T13:42:16Z</time>
      </trkpt>
      <trkpt lat="43.75938" lon="3.55536">
        <ele>492.81</ele>
        <time>2015-02-11T13:42:20Z</time>
      </trkpt>
      <trkpt lat="43.75938" lon="3.55539">
        <ele>491.85</ele>
        <time>2015-02-11T13:42:26Z</time>
      </trkpt>
      <trkpt lat="43.75934" lon="3.55549">
        <ele>491.85</ele>
        <time>2015-02-11T13:42:37Z</time>
      </trkpt>
      <trkpt lat="43.75934" lon="3.5555">
        <ele>491.85</ele>
        <time>2015-02-11T13:42:50Z</time>
      </trkpt>
      <trkpt lat="43.75937" lon="3.55553">
        <ele>491.37</ele>
        <time>2015-02-11T13:42:58Z</time>
      </trkpt>
      <trkpt lat="43.75937" lon="3.55552">
        <ele>491.85</ele>
        <time>2015-02-11T13:43:05Z</time>
      </trkpt>
      <trkpt lat="43.75934" lon="3.55546">
        <ele>491.37</ele>
        <time>2015-02-11T13:43:17Z</time>
      </trkpt>
      <trkpt lat="43.75934" lon="3.55552">
        <ele>490.89</ele>
        <time>2015-02-11T13:43:28Z</time>
      </trkpt>
      <trkpt lat="43.75937" lon="3.55552">
        <ele>490.89</ele>
        <time>2015-02-11T13:43:39Z</time>
      </trkpt>
      <trkpt lat="43.75939" lon="3.55555">
        <ele>488.97</ele>
        <time>2015-02-11T13:43:49Z</time>
      </trkpt>
      <trkpt lat="43.75938" lon="3.55556">
        <ele>487.53</ele>
        <time>2015-02-11T13:43:58Z</time>
      </trkpt>
      <trkpt lat="43.75938" lon="3.55555">
        <ele>488.49</ele>
        <time>2015-02-11T13:44:03Z</time>
      </trkpt>
      <trkpt lat="43.75939" lon="3.55555">
        <ele>487.53</ele>
        <time>2015-02-11T13:44:07Z</time>
      </trkpt>
      <trkpt lat="43.75939" lon="3.55558">
        <ele>487.05</ele>
        <time>2015-02-11T13:44:10Z</time>
      </trkpt>
      <trkpt lat="43.75938" lon="3.55566">
        <ele>486.08</ele>
        <time>2015-02-11T13:44:22Z</time>
      </trkpt>
      <trkpt lat="43.75937" lon="3.55567">
        <ele>486.56</ele>
        <time>2015-02-11T13:44:35Z</time>
      </trkpt>
      <trkpt lat="43.75937" lon="3.55565">
        <ele>486.08</ele>
        <time>2015-02-11T13:44:59Z</time>
      </trkpt>
      <trkpt lat="43.75936" lon="3.55561">
        <ele>485.6</ele>
        <time>2015-02-11T13:45:18Z</time>
      </trkpt>
      <trkpt lat="43.75937" lon="3.55563">
        <ele>484.64</ele>
        <time>2015-02-11T13:45:49Z</time>
      </trkpt>
      <trkpt lat="43.75934" lon="3.55564">
        <ele>482.72</ele>
        <time>2015-02-11T13:46:00Z</time>
      </trkpt>
      <trkpt lat="43.75931" lon="3.55559">
        <ele>481.76</ele>
        <time>2015-02-11T13:46:12Z</time>
      </trkpt>
      <trkpt lat="43.75929" lon="3.55557">
        <ele>481.28</ele>
        <time>2015-02-11T13:46:25Z</time>
      </trkpt>
      <trkpt lat="43.75924" lon="3.55562">
        <ele>478.39</ele>
        <time>2015-02-11T13:46:40Z</time>
      </trkpt>
      <trkpt lat="43.75924" lon="3.55567">
        <ele>477.91</ele>
        <time>2015-02-11T13:46:52Z</time>
      </trkpt>
      <trkpt lat="43.75923" lon="3.55565">
        <ele>477.91</ele>
        <time>2015-02-11T13:46:56Z</time>
      </trkpt>
      <trkpt lat="43.75918" lon="3.55562">
        <ele>475.99</ele>
        <time>2015-02-11T13:47:07Z</time>
      </trkpt>
      <trkpt lat="43.75918" lon="3.55567">
        <ele>473.59</ele>
        <time>2015-02-11T13:47:19Z</time>
      </trkpt>
      <trkpt lat="43.75915" lon="3.55568">
        <ele>472.14</ele>
        <time>2015-02-11T13:47:28Z</time>
      </trkpt>
      <trkpt lat="43.75914" lon="3.55567">
        <ele>471.66</ele>
        <time>2015-02-11T13:47:31Z</time>
      </trkpt>
      <trkpt lat="43.75912" lon="3.55568">
        <ele>469.74</ele>
        <time>2015-02-11T13:47:45Z</time>
      </trkpt>
      <trkpt lat="43.75911" lon="3.55569">
        <ele>468.78</ele>
        <time>2015-02-11T13:47:56Z</time>
      </trkpt>
      <trkpt lat="43.75908" lon="3.55564">
        <ele>466.38</ele>
        <time>2015-02-11T13:48:08Z</time>
      </trkpt>
      <trkpt lat="43.75907" lon="3.55557">
        <ele>463.49</ele>
        <time>2015-02-11T13:48:21Z</time>
      </trkpt>
      <trkpt lat="43.75907" lon="3.55557">
        <ele>464.45</ele>
        <time>2015-02-11T13:48:35Z</time>
      </trkpt>
      <trkpt lat="43.75907" lon="3.55553">
        <ele>462.05</ele>
        <time>2015-02-11T13:48:54Z</time>
      </trkpt>
      <trkpt lat="43.75904" lon="3.55552">
        <ele>460.13</ele>
        <time>2015-02-11T13:49:09Z</time>
      </trkpt>
      <trkpt lat="43.75903" lon="3.55553">
        <ele>460.13</ele>
        <time>2015-02-11T13:49:20Z</time>
      </trkpt>
      <trkpt lat="43.75902" lon="3.55552">
        <ele>458.21</ele>
        <time>2015-02-11T13:49:35Z</time>
      </trkpt>
      <trkpt lat="43.75905" lon="3.55552">
        <ele>458.69</ele>
        <time>2015-02-11T13:49:49Z</time>
      </trkpt>
      <trkpt lat="43.75906" lon="3.55545">
        <ele>459.65</ele>
        <time>2015-02-11T13:50:04Z</time>
      </trkpt>
      <trkpt lat="43.75903" lon="3.5554">
        <ele>458.21</ele>
        <time>2015-02-11T13:50:23Z</time>
      </trkpt>
      <trkpt lat="43.75899" lon="3.55535">
        <ele>455.8</ele>
        <time>2015-02-11T13:50:34Z</time>
      </trkpt>
      <trkpt lat="43.75895" lon="3.55538">
        <ele>453.88</ele>
        <time>2015-02-11T13:50:44Z</time>
      </trkpt>
      <trkpt lat="43.75895" lon="3.55535">
        <ele>451.96</ele>
        <time>2015-02-11T13:50:56Z</time>
      </trkpt>
      <trkpt lat="43.75892" lon="3.5554">
        <ele>451</ele>
        <time>2015-02-11T13:51:06Z</time>
      </trkpt>
      <trkpt lat="43.75889" lon="3.55546">
        <ele>449.55</ele>
        <time>2015-02-11T13:51:19Z</time>
      </trkpt>
      <trkpt lat="43.75887" lon="3.55552">
        <ele>447.63</ele>
        <time>2015-02-11T13:51:34Z</time>
      </trkpt>
      <trkpt lat="43.75886" lon="3.55555">
        <ele>446.19</ele>
        <time>2015-02-11T13:51:41Z</time>
      </trkpt>
      <trkpt lat="43.75886" lon="3.55556">
        <ele>445.23</ele>
        <time>2015-02-11T13:51:53Z</time>
      </trkpt>
      <trkpt lat="43.75884" lon="3.55563">
        <ele>443.79</ele>
        <time>2015-02-11T13:52:05Z</time>
      </trkpt>
      <trkpt lat="43.75882" lon="3.55572">
        <ele>441.38</ele>
        <time>2015-02-11T13:52:18Z</time>
      </trkpt>
      <trkpt lat="43.7588" lon="3.55579">
        <ele>438.98</ele>
        <time>2015-02-11T13:52:28Z</time>
      </trkpt>
      <trkpt lat="43.75878" lon="3.55584">
        <ele>438.02</ele>
        <time>2015-02-11T13:52:37Z</time>
      </trkpt>
      <trkpt lat="43.75878" lon="3.55585">
        <ele>437.54</ele>
        <time>2015-02-11T13:52:48Z</time>
      </trkpt>
      <trkpt lat="43.75877" lon="3.55585">
        <ele>437.54</ele>
        <time>2015-02-11T13:53:00Z</time>
      </trkpt>
      <trkpt lat="43.75875" lon="3.55585">
        <ele>435.61</ele>
        <time>2015-02-11T13:53:20Z</time>
      </trkpt>
      <trkpt lat="43.75872" lon="3.55585">
        <ele>434.17</ele>
        <time>2015-02-11T13:53:37Z</time>
      </trkpt>
      <trkpt lat="43.75868" lon="3.55586">
        <ele>430.81</ele>
        <time>2015-02-11T13:53:48Z</time>
      </trkpt>
      <trkpt lat="43.75865" lon="3.55585">
        <ele>428.89</ele>
        <time>2015-02-11T13:53:58Z</time>
      </trkpt>
      <trkpt lat="43.75861" lon="3.55587">
        <ele>425.52</ele>
        <time>2015-02-11T13:54:12Z</time>
      </trkpt>
      <trkpt lat="43.75857" lon="3.55583">
        <ele>424.08</ele>
        <time>2015-02-11T13:54:22Z</time>
      </trkpt>
      <trkpt lat="43.75853" lon="3.55584">
        <ele>421.68</ele>
        <time>2015-02-11T13:54:33Z</time>
      </trkpt>
      <trkpt lat="43.75852" lon="3.55586">
        <ele>420.71</ele>
        <time>2015-02-11T13:54:36Z</time>
      </trkpt>
      <trkpt lat="43.75848" lon="3.55595">
        <ele>418.31</ele>
        <time>2015-02-11T13:54:49Z</time>
      </trkpt>
      <trkpt lat="43.75845" lon="3.556">
        <ele>416.39</ele>
        <time>2015-02-11T13:55:05Z</time>
      </trkpt>
      <trkpt lat="43.75841" lon="3.55605">
        <ele>413.98</ele>
        <time>2015-02-11T13:55:18Z</time>
      </trkpt>
      <trkpt lat="43.75836" lon="3.55607">
        <ele>411.58</ele>
        <time>2015-02-11T13:55:28Z</time>
      </trkpt>
      <trkpt lat="43.75832" lon="3.55609">
        <ele>408.7</ele>
        <time>2015-02-11T13:55:42Z</time>
      </trkpt>
      <trkpt lat="43.75831" lon="3.5561">
        <ele>408.22</ele>
        <time>2015-02-11T13:55:49Z</time>
      </trkpt>
      <trkpt lat="43.75825" lon="3.55615">
        <ele>405.81</ele>
        <time>2015-02-11T13:56:00Z</time>
      </trkpt>
      <trkpt lat="43.75825" lon="3.55616">
        <ele>405.33</ele>
        <time>2015-02-11T13:56:02Z</time>
      </trkpt>
      <trkpt lat="43.75819" lon="3.55617">
        <ele>402.93</ele>
        <time>2015-02-11T13:56:14Z</time>
      </trkpt>
      <trkpt lat="43.75813" lon="3.55621">
        <ele>400.05</ele>
        <time>2015-02-11T13:56:26Z</time>
      </trkpt>
      <trkpt lat="43.75807" lon="3.55621">
        <ele>398.6</ele>
        <time>2015-02-11T13:56:39Z</time>
      </trkpt>
      <trkpt lat="43.75802" lon="3.55622">
        <ele>395.72</ele>
        <time>2015-02-11T13:56:47Z</time>
      </trkpt>
      <trkpt lat="43.75802" lon="3.55622">
        <ele>395.24</ele>
        <time>2015-02-11T13:56:48Z</time>
      </trkpt>
      <trkpt lat="43.75798" lon="3.55624">
        <ele>393.8</ele>
        <time>2015-02-11T13:56:56Z</time>
      </trkpt>
      <trkpt lat="43.75792" lon="3.5563">
        <ele>390.43</ele>
        <time>2015-02-11T13:57:08Z</time>
      </trkpt>
      <trkpt lat="43.75791" lon="3.5563">
        <ele>390.43</ele>
        <time>2015-02-11T13:57:10Z</time>
      </trkpt>
      <trkpt lat="43.75784" lon="3.55628">
        <ele>388.03</ele>
        <time>2015-02-11T13:57:25Z</time>
      </trkpt>
      <trkpt lat="43.75779" lon="3.55636">
        <ele>385.63</ele>
        <time>2015-02-11T13:57:38Z</time>
      </trkpt>
      <trkpt lat="43.75772" lon="3.55635">
        <ele>383.7</ele>
        <time>2015-02-11T13:57:52Z</time>
      </trkpt>
      <trkpt lat="43.75768" lon="3.55627">
        <ele>381.78</ele>
        <time>2015-02-11T13:58:04Z</time>
      </trkpt>
      <trkpt lat="43.75765" lon="3.55621">
        <ele>379.86</ele>
        <time>2015-02-11T13:58:17Z</time>
      </trkpt>
      <trkpt lat="43.7576" lon="3.55618">
        <ele>376.97</ele>
        <time>2015-02-11T13:58:31Z</time>
      </trkpt>
      <trkpt lat="43.75755" lon="3.55618">
        <ele>374.09</ele>
        <time>2015-02-11T13:58:45Z</time>
      </trkpt>
      <trkpt lat="43.75754" lon="3.55619">
        <ele>373.61</ele>
        <time>2015-02-11T13:58:47Z</time>
      </trkpt>
      <trkpt lat="43.75748" lon="3.55625">
        <ele>371.69</ele>
        <time>2015-02-11T13:59:00Z</time>
      </trkpt>
      <trkpt lat="43.75743" lon="3.55634">
        <ele>369.76</ele>
        <time>2015-02-11T13:59:12Z</time>
      </trkpt>
      <trkpt lat="43.75741" lon="3.55636">
        <ele>368.8</ele>
        <time>2015-02-11T13:59:18Z</time>
      </trkpt>
      <trkpt lat="43.75736" lon="3.55634">
        <ele>366.88</ele>
        <time>2015-02-11T13:59:32Z</time>
      </trkpt>
      <trkpt lat="43.75735" lon="3.5563">
        <ele>365.92</ele>
        <time>2015-02-11T13:59:45Z</time>
      </trkpt>
      <trkpt lat="43.75729" lon="3.55626">
        <ele>363.52</ele>
        <time>2015-02-11T13:59:58Z</time>
      </trkpt>
      <trkpt lat="43.75725" lon="3.55633">
        <ele>362.07</ele>
        <time>2015-02-11T14:00:12Z</time>
      </trkpt>
      <trkpt lat="43.75717" lon="3.5564">
        <ele>359.19</ele>
        <time>2015-02-11T14:00:26Z</time>
      </trkpt>
      <trkpt lat="43.75715" lon="3.55642">
        <ele>357.75</ele>
        <time>2015-02-11T14:00:39Z</time>
      </trkpt>
      <trkpt lat="43.7571" lon="3.55647">
        <ele>356.31</ele>
        <time>2015-02-11T14:00:51Z</time>
      </trkpt>
      <trkpt lat="43.75703" lon="3.55652">
        <ele>354.38</ele>
        <time>2015-02-11T14:01:04Z</time>
      </trkpt>
      <trkpt lat="43.75694" lon="3.55657">
        <ele>351.98</ele>
        <time>2015-02-11T14:01:17Z</time>
      </trkpt>
      <trkpt lat="43.75685" lon="3.55661">
        <ele>350.54</ele>
        <time>2015-02-11T14:01:31Z</time>
      </trkpt>
      <trkpt lat="43.75685" lon="3.5566">
        <ele>350.54</ele>
        <time>2015-02-11T14:01:54Z</time>
      </trkpt>
      <trkpt lat="43.75685" lon="3.5566">
        <ele>350.54</ele>
        <time>2015-02-11T14:02:10Z</time>
      </trkpt>
      <trkpt lat="43.75684" lon="3.55658">
        <ele>350.54</ele>
        <time>2015-02-11T14:02:33Z</time>
      </trkpt>
      <trkpt lat="43.75683" lon="3.55659">
        <ele>350.54</ele>
        <time>2015-02-11T14:03:03Z</time>
      </trkpt>
      <trkpt lat="43.75686" lon="3.55662">
        <ele>351.02</ele>
        <time>2015-02-11T14:03:16Z</time>
      </trkpt>
      <trkpt lat="43.75686" lon="3.55666">
        <ele>351.02</ele>
        <time>2015-02-11T14:03:43Z</time>
      </trkpt>
      <trkpt lat="43.75685" lon="3.55665">
        <ele>351.02</ele>
        <time>2015-02-11T14:04:15Z</time>
      </trkpt>
      <trkpt lat="43.75688" lon="3.55662">
        <ele>350.54</ele>
        <time>2015-02-11T14:04:33Z</time>
      </trkpt>
      <trkpt lat="43.75685" lon="3.5566">
        <ele>350.54</ele>
        <time>2015-02-11T14:05:03Z</time>
      </trkpt>
      <trkpt lat="43.75685" lon="3.55666">
        <ele>350.06</ele>
        <time>2015-02-11T14:05:14Z</time>
      </trkpt>
      <trkpt lat="43.75683" lon="3.55673">
        <ele>349.1</ele>
        <time>2015-02-11T14:05:19Z</time>
      </trkpt>
      <trkpt lat="43.75685" lon="3.55692">
        <ele>348.62</ele>
        <time>2015-02-11T14:05:29Z</time>
      </trkpt>
      <trkpt lat="43.75695" lon="3.55709">
        <ele>349.1</ele>
        <time>2015-02-11T14:05:42Z</time>
      </trkpt>
      <trkpt lat="43.75702" lon="3.55727">
        <ele>348.62</ele>
        <time>2015-02-11T14:05:54Z</time>
      </trkpt>
      <trkpt lat="43.75706" lon="3.5574">
        <ele>347.65</ele>
        <time>2015-02-11T14:06:03Z</time>
      </trkpt>
      <trkpt lat="43.75709" lon="3.55752">
        <ele>347.17</ele>
        <time>2015-02-11T14:06:10Z</time>
      </trkpt>
      <trkpt lat="43.75707" lon="3.55777">
        <ele>347.65</ele>
        <time>2015-02-11T14:06:23Z</time>
      </trkpt>
      <trkpt lat="43.75703" lon="3.55791">
        <ele>346.69</ele>
        <time>2015-02-11T14:06:34Z</time>
      </trkpt>
      <trkpt lat="43.75703" lon="3.55813">
        <ele>346.69</ele>
        <time>2015-02-11T14:06:47Z</time>
      </trkpt>
      <trkpt lat="43.75703" lon="3.55815">
        <ele>346.21</ele>
        <time>2015-02-11T14:06:48Z</time>
      </trkpt>
      <trkpt lat="43.75703" lon="3.55822">
        <ele>346.69</ele>
        <time>2015-02-11T14:06:53Z</time>
      </trkpt>
      <trkpt lat="43.75702" lon="3.55835">
        <ele>345.73</ele>
        <time>2015-02-11T14:07:01Z</time>
      </trkpt>
      <trkpt lat="43.75701" lon="3.55843">
        <ele>345.25</ele>
        <time>2015-02-11T14:07:06Z</time>
      </trkpt>
      <trkpt lat="43.75702" lon="3.55847">
        <ele>345.25</ele>
        <time>2015-02-11T14:07:09Z</time>
      </trkpt>
      <trkpt lat="43.75711" lon="3.55865">
        <ele>343.33</ele>
        <time>2015-02-11T14:07:23Z</time>
      </trkpt>
      <trkpt lat="43.75714" lon="3.55871">
        <ele>343.33</ele>
        <time>2015-02-11T14:07:29Z</time>
      </trkpt>
      <trkpt lat="43.7572" lon="3.55884">
        <ele>341.89</ele>
        <time>2015-02-11T14:07:39Z</time>
      </trkpt>
      <trkpt lat="43.75723" lon="3.55891">
        <ele>340.92</ele>
        <time>2015-02-11T14:07:45Z</time>
      </trkpt>
      <trkpt lat="43.75733" lon="3.55915">
        <ele>340.92</ele>
        <time>2015-02-11T14:07:57Z</time>
      </trkpt>
      <trkpt lat="43.75738" lon="3.55925">
        <ele>341.41</ele>
        <time>2015-02-11T14:08:04Z</time>
      </trkpt>
      <trkpt lat="43.75747" lon="3.55942">
        <ele>341.89</ele>
        <time>2015-02-11T14:08:17Z</time>
      </trkpt>
      <trkpt lat="43.75751" lon="3.55951">
        <ele>341.41</ele>
        <time>2015-02-11T14:08:24Z</time>
      </trkpt>
      <trkpt lat="43.75757" lon="3.55957">
        <ele>340.92</ele>
        <time>2015-02-11T14:08:31Z</time>
      </trkpt>
      <trkpt lat="43.75766" lon="3.55978">
        <ele>339.48</ele>
        <time>2015-02-11T14:08:44Z</time>
      </trkpt>
      <trkpt lat="43.75769" lon="3.55983">
        <ele>339</ele>
        <time>2015-02-11T14:08:48Z</time>
      </trkpt>
      <trkpt lat="43.75779" lon="3.55996">
        <ele>338.52</ele>
        <time>2015-02-11T14:08:59Z</time>
      </trkpt>
      <trkpt lat="43.7579" lon="3.56023">
        <ele>337.56</ele>
        <time>2015-02-11T14:09:16Z</time>
      </trkpt>
      <trkpt lat="43.75798" lon="3.56047">
        <ele>338.04</ele>
        <time>2015-02-11T14:09:32Z</time>
      </trkpt>
      <trkpt lat="43.75803" lon="3.56067">
        <ele>337.08</ele>
        <time>2015-02-11T14:09:46Z</time>
      </trkpt>
      <trkpt lat="43.75807" lon="3.56081">
        <ele>337.56</ele>
        <time>2015-02-11T14:09:57Z</time>
      </trkpt>
      <trkpt lat="43.75813" lon="3.56102">
        <ele>338.04</ele>
        <time>2015-02-11T14:10:12Z</time>
      </trkpt>
      <trkpt lat="43.75819" lon="3.56122">
        <ele>335.64</ele>
        <time>2015-02-11T14:10:25Z</time>
      </trkpt>
      <trkpt lat="43.75822" lon="3.56142">
        <ele>334.68</ele>
        <time>2015-02-11T14:10:35Z</time>
      </trkpt>
      <trkpt lat="43.75826" lon="3.56165">
        <ele>334.2</ele>
        <time>2015-02-11T14:10:49Z</time>
      </trkpt>
      <trkpt lat="43.75826" lon="3.56175">
        <ele>334.68</ele>
        <time>2015-02-11T14:10:55Z</time>
      </trkpt>
      <trkpt lat="43.75824" lon="3.56186">
        <ele>332.75</ele>
        <time>2015-02-11T14:11:03Z</time>
      </trkpt>
      <trkpt lat="43.75825" lon="3.56195">
        <ele>331.79</ele>
        <time>2015-02-11T14:11:09Z</time>
      </trkpt>
      <trkpt lat="43.75823" lon="3.56203">
        <ele>330.83</ele>
        <time>2015-02-11T14:11:14Z</time>
      </trkpt>
      <trkpt lat="43.75822" lon="3.56215">
        <ele>331.31</ele>
        <time>2015-02-11T14:11:24Z</time>
      </trkpt>
      <trkpt lat="43.75823" lon="3.56217">
        <ele>331.79</ele>
        <time>2015-02-11T14:11:43Z</time>
      </trkpt>
      <trkpt lat="43.75821" lon="3.56216">
        <ele>331.79</ele>
        <time>2015-02-11T14:11:59Z</time>
      </trkpt>
      <trkpt lat="43.75818" lon="3.5622">
        <ele>330.83</ele>
        <time>2015-02-11T14:12:05Z</time>
      </trkpt>
      <trkpt lat="43.7581" lon="3.56238">
        <ele>329.39</ele>
        <time>2015-02-11T14:12:18Z</time>
      </trkpt>
      <trkpt lat="43.75807" lon="3.56247">
        <ele>327.95</ele>
        <time>2015-02-11T14:12:25Z</time>
      </trkpt>
      <trkpt lat="43.75793" lon="3.56261">
        <ele>325.54</ele>
        <time>2015-02-11T14:12:38Z</time>
      </trkpt>
      <trkpt lat="43.75783" lon="3.56271">
        <ele>325.06</ele>
        <time>2015-02-11T14:12:48Z</time>
      </trkpt>
      <trkpt lat="43.75764" lon="3.56271">
        <ele>323.62</ele>
        <time>2015-02-11T14:13:03Z</time>
      </trkpt>
      <trkpt lat="43.75747" lon="3.56264">
        <ele>321.22</ele>
        <time>2015-02-11T14:13:16Z</time>
      </trkpt>
      <trkpt lat="43.75743" lon="3.56269">
        <ele>319.78</ele>
        <time>2015-02-11T14:13:23Z</time>
      </trkpt>
      <trkpt lat="43.75737" lon="3.56281">
        <ele>318.81</ele>
        <time>2015-02-11T14:13:32Z</time>
      </trkpt>
      <trkpt lat="43.75728" lon="3.56287">
        <ele>316.89</ele>
        <time>2015-02-11T14:13:42Z</time>
      </trkpt>
      <trkpt lat="43.75723" lon="3.56276">
        <ele>314.97</ele>
        <time>2015-02-11T14:13:51Z</time>
      </trkpt>
      <trkpt lat="43.75721" lon="3.56256">
        <ele>314.49</ele>
        <time>2015-02-11T14:14:03Z</time>
      </trkpt>
      <trkpt lat="43.7572" lon="3.5624">
        <ele>314.01</ele>
        <time>2015-02-11T14:14:11Z</time>
      </trkpt>
      <trkpt lat="43.75708" lon="3.56222">
        <ele>313.05</ele>
        <time>2015-02-11T14:14:24Z</time>
      </trkpt>
      <trkpt lat="43.75706" lon="3.56222">
        <ele>313.53</ele>
        <time>2015-02-11T14:14:26Z</time>
      </trkpt>
      <trkpt lat="43.75694" lon="3.56216">
        <ele>312.57</ele>
        <time>2015-02-11T14:14:37Z</time>
      </trkpt>
      <trkpt lat="43.75686" lon="3.5622">
        <ele>311.12</ele>
        <time>2015-02-11T14:14:46Z</time>
      </trkpt>
      <trkpt lat="43.7567" lon="3.56224">
        <ele>308.72</ele>
        <time>2015-02-11T14:14:59Z</time>
      </trkpt>
      <trkpt lat="43.75659" lon="3.56225">
        <ele>307.28</ele>
        <time>2015-02-11T14:15:09Z</time>
      </trkpt>
      <trkpt lat="43.75649" lon="3.56224">
        <ele>305.84</ele>
        <time>2015-02-11T14:15:16Z</time>
      </trkpt>
      <trkpt lat="43.75641" lon="3.56229">
        <ele>304.39</ele>
        <time>2015-02-11T14:15:24Z</time>
      </trkpt>
      <trkpt lat="43.7563" lon="3.56235">
        <ele>302.47</ele>
        <time>2015-02-11T14:15:35Z</time>
      </trkpt>
      <trkpt lat="43.75633" lon="3.5625">
        <ele>301.03</ele>
        <time>2015-02-11T14:15:47Z</time>
      </trkpt>
      <trkpt lat="43.75635" lon="3.56252">
        <ele>300.55</ele>
        <time>2015-02-11T14:15:49Z</time>
      </trkpt>
      <trkpt lat="43.75646" lon="3.56263">
        <ele>299.11</ele>
        <time>2015-02-11T14:16:01Z</time>
      </trkpt>
      <trkpt lat="43.75651" lon="3.56276">
        <ele>297.18</ele>
        <time>2015-02-11T14:16:13Z</time>
      </trkpt>
      <trkpt lat="43.75646" lon="3.56299">
        <ele>295.74</ele>
        <time>2015-02-11T14:16:30Z</time>
      </trkpt>
      <trkpt lat="43.75645" lon="3.56298">
        <ele>295.74</ele>
        <time>2015-02-11T14:16:41Z</time>
      </trkpt>
      <trkpt lat="43.75646" lon="3.563">
        <ele>295.74</ele>
        <time>2015-02-11T14:16:51Z</time>
      </trkpt>
      <trkpt lat="43.75647" lon="3.56302">
        <ele>295.74</ele>
        <time>2015-02-11T14:17:08Z</time>
      </trkpt>
      <trkpt lat="43.75644" lon="3.56302">
        <ele>295.26</ele>
        <time>2015-02-11T14:17:25Z</time>
      </trkpt>
      <trkpt lat="43.75646" lon="3.56302">
        <ele>295.74</ele>
        <time>2015-02-11T14:17:48Z</time>
      </trkpt>
      <trkpt lat="43.75648" lon="3.56301">
        <ele>295.74</ele>
        <time>2015-02-11T14:18:02Z</time>
      </trkpt>
      <trkpt lat="43.75648" lon="3.56301">
        <ele>295.26</ele>
        <time>2015-02-11T14:18:25Z</time>
      </trkpt>
      <trkpt lat="43.75648" lon="3.56302">
        <ele>295.74</ele>
        <time>2015-02-11T14:18:48Z</time>
      </trkpt>
      <trkpt lat="43.75646" lon="3.56301">
        <ele>295.74</ele>
        <time>2015-02-11T14:19:06Z</time>
      </trkpt>
      <trkpt lat="43.75644" lon="3.56306">
        <ele>295.26</ele>
        <time>2015-02-11T14:19:28Z</time>
      </trkpt>
      <trkpt lat="43.75632" lon="3.56318">
        <ele>294.3</ele>
        <time>2015-02-11T14:19:44Z</time>
      </trkpt>
      <trkpt lat="43.7563" lon="3.56321">
        <ele>294.3</ele>
        <time>2015-02-11T14:19:47Z</time>
      </trkpt>
      <trkpt lat="43.75623" lon="3.56347">
        <ele>292.86</ele>
        <time>2015-02-11T14:20:03Z</time>
      </trkpt>
      <trkpt lat="43.75616" lon="3.56364">
        <ele>289.97</ele>
        <time>2015-02-11T14:20:18Z</time>
      </trkpt>
      <trkpt lat="43.75616" lon="3.56376">
        <ele>288.53</ele>
        <time>2015-02-11T14:20:26Z</time>
      </trkpt>
      <trkpt lat="43.75619" lon="3.56384">
        <ele>287.57</ele>
        <time>2015-02-11T14:20:31Z</time>
      </trkpt>
      <trkpt lat="43.7562" lon="3.56391">
        <ele>287.57</ele>
        <time>2015-02-11T14:20:35Z</time>
      </trkpt>
      <trkpt lat="43.75612" lon="3.56386">
        <ele>285.17</ele>
        <time>2015-02-11T14:20:46Z</time>
      </trkpt>
      <trkpt lat="43.75606" lon="3.56382">
        <ele>283.25</ele>
        <time>2015-02-11T14:20:53Z</time>
      </trkpt>
      <trkpt lat="43.75591" lon="3.56371">
        <ele>280.36</ele>
        <time>2015-02-11T14:21:08Z</time>
      </trkpt>
      <trkpt lat="43.75587" lon="3.56365">
        <ele>277.96</ele>
        <time>2015-02-11T14:21:15Z</time>
      </trkpt>
      <trkpt lat="43.75584" lon="3.56366">
        <ele>277</ele>
        <time>2015-02-11T14:21:18Z</time>
      </trkpt>
      <trkpt lat="43.7558" lon="3.56378">
        <ele>274.11</ele>
        <time>2015-02-11T14:21:32Z</time>
      </trkpt>
      <trkpt lat="43.75579" lon="3.56379">
        <ele>273.63</ele>
        <time>2015-02-11T14:21:33Z</time>
      </trkpt>
      <trkpt lat="43.75575" lon="3.5638">
        <ele>272.67</ele>
        <time>2015-02-11T14:21:41Z</time>
      </trkpt>
      <trkpt lat="43.75573" lon="3.56379">
        <ele>272.19</ele>
        <time>2015-02-11T14:21:44Z</time>
      </trkpt>
      <trkpt lat="43.75569" lon="3.56373">
        <ele>270.75</ele>
        <time>2015-02-11T14:21:52Z</time>
      </trkpt>
      <trkpt lat="43.75568" lon="3.56381">
        <ele>268.35</ele>
        <time>2015-02-11T14:22:02Z</time>
      </trkpt>
      <trkpt lat="43.75579" lon="3.564">
        <ele>266.9</ele>
        <time>2015-02-11T14:22:15Z</time>
      </trkpt>
      <trkpt lat="43.75592" lon="3.56416">
        <ele>265.46</ele>
        <time>2015-02-11T14:22:30Z</time>
      </trkpt>
      <trkpt lat="43.75594" lon="3.56417">
        <ele>265.46</ele>
        <time>2015-02-11T14:22:31Z</time>
      </trkpt>
      <trkpt lat="43.75603" lon="3.56437">
        <ele>264.98</ele>
        <time>2015-02-11T14:22:46Z</time>
      </trkpt>
      <trkpt lat="43.75601" lon="3.56448">
        <ele>261.62</ele>
        <time>2015-02-11T14:22:58Z</time>
      </trkpt>
      <trkpt lat="43.75593" lon="3.56435">
        <ele>259.21</ele>
        <time>2015-02-11T14:23:12Z</time>
      </trkpt>
      <trkpt lat="43.75592" lon="3.56434">
        <ele>259.21</ele>
        <time>2015-02-11T14:23:13Z</time>
      </trkpt>
      <trkpt lat="43.75578" lon="3.56421">
        <ele>256.33</ele>
        <time>2015-02-11T14:23:28Z</time>
      </trkpt>
      <trkpt lat="43.75567" lon="3.56416">
        <ele>255.37</ele>
        <time>2015-02-11T14:23:40Z</time>
      </trkpt>
      <trkpt lat="43.75565" lon="3.56417">
        <ele>254.41</ele>
        <time>2015-02-11T14:23:43Z</time>
      </trkpt>
      <trkpt lat="43.75572" lon="3.56426">
        <ele>252.96</ele>
        <time>2015-02-11T14:23:53Z</time>
      </trkpt>
      <trkpt lat="43.7558" lon="3.56442">
        <ele>250.56</ele>
        <time>2015-02-11T14:24:08Z</time>
      </trkpt>
      <trkpt lat="43.75582" lon="3.56454">
        <ele>247.68</ele>
        <time>2015-02-11T14:24:21Z</time>
      </trkpt>
      <trkpt lat="43.75578" lon="3.5645">
        <ele>245.27</ele>
        <time>2015-02-11T14:24:33Z</time>
      </trkpt>
      <trkpt lat="43.75577" lon="3.56451">
        <ele>244.79</ele>
        <time>2015-02-11T14:24:35Z</time>
      </trkpt>
      <trkpt lat="43.75572" lon="3.56449">
        <ele>243.83</ele>
        <time>2015-02-11T14:24:41Z</time>
      </trkpt>
      <trkpt lat="43.75567" lon="3.56453">
        <ele>242.39</ele>
        <time>2015-02-11T14:24:50Z</time>
      </trkpt>
      <trkpt lat="43.7557" lon="3.56461">
        <ele>240.95</ele>
        <time>2015-02-11T14:24:54Z</time>
      </trkpt>
      <trkpt lat="43.75569" lon="3.56479">
        <ele>237.58</ele>
        <time>2015-02-11T14:25:08Z</time>
      </trkpt>
      <trkpt lat="43.75568" lon="3.56486">
        <ele>236.62</ele>
        <time>2015-02-11T14:25:16Z</time>
      </trkpt>
      <trkpt lat="43.75565" lon="3.56495">
        <ele>235.18</ele>
        <time>2015-02-11T14:25:25Z</time>
      </trkpt>
      <trkpt lat="43.75565" lon="3.56497">
        <ele>234.7</ele>
        <time>2015-02-11T14:25:27Z</time>
      </trkpt>
      <trkpt lat="43.75561" lon="3.56496">
        <ele>233.26</ele>
        <time>2015-02-11T14:25:36Z</time>
      </trkpt>
      <trkpt lat="43.7556" lon="3.56484">
        <ele>231.81</ele>
        <time>2015-02-11T14:25:43Z</time>
      </trkpt>
      <trkpt lat="43.75556" lon="3.56468">
        <ele>229.41</ele>
        <time>2015-02-11T14:25:54Z</time>
      </trkpt>
      <trkpt lat="43.75548" lon="3.56462">
        <ele>227.97</ele>
        <time>2015-02-11T14:26:04Z</time>
      </trkpt>
      <trkpt lat="43.75546" lon="3.56462">
        <ele>227.01</ele>
        <time>2015-02-11T14:26:07Z</time>
      </trkpt>
      <trkpt lat="43.75548" lon="3.56468">
        <ele>226.05</ele>
        <time>2015-02-11T14:26:12Z</time>
      </trkpt>
      <trkpt lat="43.75546" lon="3.56476">
        <ele>222.68</ele>
        <time>2015-02-11T14:26:27Z</time>
      </trkpt>
      <trkpt lat="43.75546" lon="3.56475">
        <ele>223.16</ele>
        <time>2015-02-11T14:26:28Z</time>
      </trkpt>
      <trkpt lat="43.75542" lon="3.56481">
        <ele>221.24</ele>
        <time>2015-02-11T14:26:40Z</time>
      </trkpt>
      <trkpt lat="43.75542" lon="3.56481">
        <ele>220.76</ele>
        <time>2015-02-11T14:26:58Z</time>
      </trkpt>
      <trkpt lat="43.75544" lon="3.56485">
        <ele>220.76</ele>
        <time>2015-02-11T14:27:17Z</time>
      </trkpt>
      <trkpt lat="43.75541" lon="3.5649">
        <ele>220.76</ele>
        <time>2015-02-11T14:27:37Z</time>
      </trkpt>
      <trkpt lat="43.75541" lon="3.56481">
        <ele>219.32</ele>
        <time>2015-02-11T14:27:56Z</time>
      </trkpt>
      <trkpt lat="43.75542" lon="3.56481">
        <ele>220.28</ele>
        <time>2015-02-11T14:28:00Z</time>
      </trkpt>
      <trkpt lat="43.75541" lon="3.56479">
        <ele>219.8</ele>
        <time>2015-02-11T14:28:02Z</time>
      </trkpt>
      <trkpt lat="43.75539" lon="3.56482">
        <ele>220.28</ele>
        <time>2015-02-11T14:28:10Z</time>
      </trkpt>
      <trkpt lat="43.75538" lon="3.56486">
        <ele>219.32</ele>
        <time>2015-02-11T14:28:24Z</time>
      </trkpt>
      <trkpt lat="43.75538" lon="3.56482">
        <ele>220.28</ele>
        <time>2015-02-11T14:28:42Z</time>
      </trkpt>
      <trkpt lat="43.75541" lon="3.56487">
        <ele>220.28</ele>
        <time>2015-02-11T14:29:02Z</time>
      </trkpt>
      <trkpt lat="43.75538" lon="3.56482">
        <ele>220.28</ele>
        <time>2015-02-11T14:29:22Z</time>
      </trkpt>
      <trkpt lat="43.7554" lon="3.56482">
        <ele>220.28</ele>
        <time>2015-02-11T14:29:56Z</time>
      </trkpt>
      <trkpt lat="43.75541" lon="3.56482">
        <ele>220.76</ele>
        <time>2015-02-11T14:30:25Z</time>
      </trkpt>
      <trkpt lat="43.7554" lon="3.56478">
        <ele>221.24</ele>
        <time>2015-02-11T14:31:03Z</time>
      </trkpt>
      <trkpt lat="43.75539" lon="3.56487">
        <ele>221.24</ele>
        <time>2015-02-11T14:31:27Z</time>
      </trkpt>
      <trkpt lat="43.75538" lon="3.56485">
        <ele>221.72</ele>
        <time>2015-02-11T14:31:56Z</time>
      </trkpt>
      <trkpt lat="43.7554" lon="3.56483">
        <ele>221.72</ele>
        <time>2015-02-11T14:32:30Z</time>
      </trkpt>
      <trkpt lat="43.7554" lon="3.56484">
        <ele>222.2</ele>
        <time>2015-02-11T14:32:49Z</time>
      </trkpt>
      <trkpt lat="43.7554" lon="3.56487">
        <ele>223.16</ele>
        <time>2015-02-11T14:33:02Z</time>
      </trkpt>
      <trkpt lat="43.7554" lon="3.56488">
        <ele>223.16</ele>
        <time>2015-02-11T14:33:20Z</time>
      </trkpt>
      <trkpt lat="43.75539" lon="3.5649">
        <ele>222.2</ele>
        <time>2015-02-11T14:33:33Z</time>
      </trkpt>
      <trkpt lat="43.75538" lon="3.56493">
        <ele>221.72</ele>
        <time>2015-02-11T14:33:36Z</time>
      </trkpt>
      <trkpt lat="43.75539" lon="3.56503">
        <ele>221.72</ele>
        <time>2015-02-11T14:33:50Z</time>
      </trkpt>
      <trkpt lat="43.7554" lon="3.56505">
        <ele>221.72</ele>
        <time>2015-02-11T14:33:52Z</time>
      </trkpt>
      <trkpt lat="43.75545" lon="3.56522">
        <ele>220.28</ele>
        <time>2015-02-11T14:34:04Z</time>
      </trkpt>
      <trkpt lat="43.75545" lon="3.56527">
        <ele>218.84</ele>
        <time>2015-02-11T14:34:10Z</time>
      </trkpt>
      <trkpt lat="43.75547" lon="3.56539">
        <ele>217.4</ele>
        <time>2015-02-11T14:34:21Z</time>
      </trkpt>
      <trkpt lat="43.75544" lon="3.56539">
        <ele>215.47</ele>
        <time>2015-02-11T14:34:31Z</time>
      </trkpt>
      <trkpt lat="43.75544" lon="3.56538">
        <ele>215.47</ele>
        <time>2015-02-11T14:34:39Z</time>
      </trkpt>
      <trkpt lat="43.75542" lon="3.56536">
        <ele>215.47</ele>
        <time>2015-02-11T14:34:41Z</time>
      </trkpt>
      <trkpt lat="43.75536" lon="3.56529">
        <ele>213.07</ele>
        <time>2015-02-11T14:34:47Z</time>
      </trkpt>
      <trkpt lat="43.75432" lon="3.56377">
        <ele>207.78</ele>
        <time>2015-02-11T14:37:11Z</time>
      </trkpt>
      <trkpt lat="43.75419" lon="3.56374">
        <ele>205.86</ele>
        <time>2015-02-11T14:37:22Z</time>
      </trkpt>
      <trkpt lat="43.75414" lon="3.56371">
        <ele>203.94</ele>
        <time>2015-02-11T14:37:32Z</time>
      </trkpt>
      <trkpt lat="43.75408" lon="3.56373">
        <ele>202.98</ele>
        <time>2015-02-11T14:37:36Z</time>
      </trkpt>
      <trkpt lat="43.75401" lon="3.56374">
        <ele>202.49</ele>
        <time>2015-02-11T14:37:44Z</time>
      </trkpt>
      <trkpt lat="43.75389" lon="3.56367">
        <ele>201.53</ele>
        <time>2015-02-11T14:37:58Z</time>
      </trkpt>
      <trkpt lat="43.75383" lon="3.5636">
        <ele>202.49</ele>
        <time>2015-02-11T14:38:07Z</time>
      </trkpt>
      <trkpt lat="43.7538" lon="3.56351">
        <ele>202.98</ele>
        <time>2015-02-11T14:38:14Z</time>
      </trkpt>
      <trkpt lat="43.75376" lon="3.56341">
        <ele>203.46</ele>
        <time>2015-02-11T14:38:22Z</time>
      </trkpt>
      <trkpt lat="43.75373" lon="3.56324">
        <ele>201.53</ele>
        <time>2015-02-11T14:38:34Z</time>
      </trkpt>
      <trkpt lat="43.75366" lon="3.5631">
        <ele>199.61</ele>
        <time>2015-02-11T14:38:44Z</time>
      </trkpt>
      <trkpt lat="43.75343" lon="3.56307">
        <ele>197.21</ele>
        <time>2015-02-11T14:38:59Z</time>
      </trkpt>
      <trkpt lat="43.75338" lon="3.5631">
        <ele>196.25</ele>
        <time>2015-02-11T14:39:03Z</time>
      </trkpt>
      <trkpt lat="43.75325" lon="3.56309">
        <ele>193.84</ele>
        <time>2015-02-11T14:39:17Z</time>
      </trkpt>
      <trkpt lat="43.75323" lon="3.56309">
        <ele>193.36</ele>
        <time>2015-02-11T14:39:19Z</time>
      </trkpt>
      <trkpt lat="43.75317" lon="3.5631">
        <ele>191.92</ele>
        <time>2015-02-11T14:39:24Z</time>
      </trkpt>
      <trkpt lat="43.75308" lon="3.5631">
        <ele>189.04</ele>
        <time>2015-02-11T14:39:38Z</time>
      </trkpt>
      <trkpt lat="43.75298" lon="3.5631">
        <ele>186.15</ele>
        <time>2015-02-11T14:39:49Z</time>
      </trkpt>
      <trkpt lat="43.75293" lon="3.56309">
        <ele>183.75</ele>
        <time>2015-02-11T14:39:57Z</time>
      </trkpt>
      <trkpt lat="43.75285" lon="3.56295">
        <ele>180.87</ele>
        <time>2015-02-11T14:40:12Z</time>
      </trkpt>
      <trkpt lat="43.75279" lon="3.56293">
        <ele>178.46</ele>
        <time>2015-02-11T14:40:23Z</time>
      </trkpt>
      <trkpt lat="43.75276" lon="3.56291">
        <ele>177.98</ele>
        <time>2015-02-11T14:40:26Z</time>
      </trkpt>
      <trkpt lat="43.75264" lon="3.56281">
        <ele>175.58</ele>
        <time>2015-02-11T14:40:40Z</time>
      </trkpt>
      <trkpt lat="43.75255" lon="3.56276">
        <ele>173.66</ele>
        <time>2015-02-11T14:40:50Z</time>
      </trkpt>
      <trkpt lat="43.75245" lon="3.56262">
        <ele>171.73</ele>
        <time>2015-02-11T14:41:01Z</time>
      </trkpt>
      <trkpt lat="43.75244" lon="3.56256">
        <ele>170.29</ele>
        <time>2015-02-11T14:41:05Z</time>
      </trkpt>
      <trkpt lat="43.75238" lon="3.56247">
        <ele>169.33</ele>
        <time>2015-02-11T14:41:12Z</time>
      </trkpt>
      <trkpt lat="43.75231" lon="3.56238">
        <ele>167.89</ele>
        <time>2015-02-11T14:41:22Z</time>
      </trkpt>
      <trkpt lat="43.75224" lon="3.56231">
        <ele>165.96</ele>
        <time>2015-02-11T14:41:31Z</time>
      </trkpt>
      <trkpt lat="43.75215" lon="3.56219">
        <ele>162.6</ele>
        <time>2015-02-11T14:41:45Z</time>
      </trkpt>
      <trkpt lat="43.75214" lon="3.56219">
        <ele>162.12</ele>
        <time>2015-02-11T14:41:47Z</time>
      </trkpt>
      <trkpt lat="43.75205" lon="3.56211">
        <ele>159.72</ele>
        <time>2015-02-11T14:41:56Z</time>
      </trkpt>
      <trkpt lat="43.75196" lon="3.56199">
        <ele>157.79</ele>
        <time>2015-02-11T14:42:09Z</time>
      </trkpt>
      <trkpt lat="43.75196" lon="3.56199">
        <ele>157.79</ele>
        <time>2015-02-11T14:42:10Z</time>
      </trkpt>
      <trkpt lat="43.75193" lon="3.56197">
        <ele>157.31</ele>
        <time>2015-02-11T14:42:12Z</time>
      </trkpt>
      <trkpt lat="43.75189" lon="3.56195">
        <ele>156.83</ele>
        <time>2015-02-11T14:42:15Z</time>
      </trkpt>
      <trkpt lat="43.75173" lon="3.56187">
        <ele>156.35</ele>
        <time>2015-02-11T14:42:28Z</time>
      </trkpt>
      <trkpt lat="43.75159" lon="3.56185">
        <ele>155.39</ele>
        <time>2015-02-11T14:42:39Z</time>
      </trkpt>
      <trkpt lat="43.75144" lon="3.56176">
        <ele>154.43</ele>
        <time>2015-02-11T14:42:52Z</time>
      </trkpt>
      <trkpt lat="43.75139" lon="3.56175">
        <ele>153.47</ele>
        <time>2015-02-11T14:42:57Z</time>
      </trkpt>
      <trkpt lat="43.75129" lon="3.56172">
        <ele>152.99</ele>
        <time>2015-02-11T14:43:11Z</time>
      </trkpt>
      <trkpt lat="43.75123" lon="3.56168">
        <ele>152.99</ele>
        <time>2015-02-11T14:43:36Z</time>
      </trkpt>
      <trkpt lat="43.75121" lon="3.56169">
        <ele>152.51</ele>
        <time>2015-02-11T14:44:00Z</time>
      </trkpt>
      <trkpt lat="43.75121" lon="3.56166">
        <ele>152.99</ele>
        <time>2015-02-11T14:44:13Z</time>
      </trkpt>
      <trkpt lat="43.75122" lon="3.56164">
        <ele>152.99</ele>
        <time>2015-02-11T14:44:37Z</time>
      </trkpt>
      <trkpt lat="43.75116" lon="3.56159">
        <ele>149.62</ele>
        <time>2015-02-11T14:45:06Z</time>
      </trkpt>
      <trkpt lat="43.75113" lon="3.56155">
        <ele>146.74</ele>
        <time>2015-02-11T14:45:15Z</time>
      </trkpt>
      <trkpt lat="43.75104" lon="3.56147">
        <ele>143.37</ele>
        <time>2015-02-11T14:45:30Z</time>
      </trkpt>
      <trkpt lat="43.75102" lon="3.56139">
        <ele>143.85</ele>
        <time>2015-02-11T14:45:58Z</time>
      </trkpt>
      <trkpt lat="43.75102" lon="3.56141">
        <ele>143.85</ele>
        <time>2015-02-11T14:46:30Z</time>
      </trkpt>
      <trkpt lat="43.75102" lon="3.56143">
        <ele>144.34</ele>
        <time>2015-02-11T14:46:53Z</time>
      </trkpt>
      <trkpt lat="43.75102" lon="3.56144">
        <ele>143.85</ele>
        <time>2015-02-11T14:47:05Z</time>
      </trkpt>
      <trkpt lat="43.75102" lon="3.56146">
        <ele>143.85</ele>
        <time>2015-02-11T14:47:33Z</time>
      </trkpt>
      <trkpt lat="43.751" lon="3.56143">
        <ele>143.85</ele>
        <time>2015-02-11T14:47:50Z</time>
      </trkpt>
      <trkpt lat="43.75096" lon="3.5614">
        <ele>142.89</ele>
        <time>2015-02-11T14:47:55Z</time>
      </trkpt>
      <trkpt lat="43.75083" lon="3.56134">
        <ele>140.49</ele>
        <time>2015-02-11T14:48:08Z</time>
      </trkpt>
      <trkpt lat="43.75078" lon="3.56133">
        <ele>139.53</ele>
        <time>2015-02-11T14:48:13Z</time>
      </trkpt>
      <trkpt lat="43.75074" lon="3.56132">
        <ele>138.57</ele>
        <time>2015-02-11T14:48:17Z</time>
      </trkpt>
      <trkpt lat="43.75063" lon="3.56133">
        <ele>137.13</ele>
        <time>2015-02-11T14:48:29Z</time>
      </trkpt>
      <trkpt lat="43.75062" lon="3.56134">
        <ele>136.64</ele>
        <time>2015-02-11T14:48:30Z</time>
      </trkpt>
      <trkpt lat="43.75055" lon="3.56146">
        <ele>134.24</ele>
        <time>2015-02-11T14:48:41Z</time>
      </trkpt>
      <trkpt lat="43.75054" lon="3.56148">
        <ele>133.76</ele>
        <time>2015-02-11T14:48:43Z</time>
      </trkpt>
      <trkpt lat="43.7505" lon="3.56136">
        <ele>131.36</ele>
        <time>2015-02-11T14:48:56Z</time>
      </trkpt>
      <trkpt lat="43.75049" lon="3.56134">
        <ele>130.88</ele>
        <time>2015-02-11T14:48:58Z</time>
      </trkpt>
      <trkpt lat="43.75048" lon="3.56124">
        <ele>128.95</ele>
        <time>2015-02-11T14:49:05Z</time>
      </trkpt>
      <trkpt lat="43.7505" lon="3.56111">
        <ele>126.55</ele>
        <time>2015-02-11T14:49:15Z</time>
      </trkpt>
      <trkpt lat="43.75052" lon="3.56103">
        <ele>125.11</ele>
        <time>2015-02-11T14:49:23Z</time>
      </trkpt>
      <trkpt lat="43.7505" lon="3.56104">
        <ele>125.11</ele>
        <time>2015-02-11T14:49:25Z</time>
      </trkpt>
      <trkpt lat="43.75043" lon="3.56116">
        <ele>123.19</ele>
        <time>2015-02-11T14:49:37Z</time>
      </trkpt>
      <trkpt lat="43.7504" lon="3.56113">
        <ele>121.74</ele>
        <time>2015-02-11T14:49:42Z</time>
      </trkpt>
      <trkpt lat="43.75042" lon="3.56097">
        <ele>120.78</ele>
        <time>2015-02-11T14:49:51Z</time>
      </trkpt>
      <trkpt lat="43.75043" lon="3.56095">
        <ele>119.82</ele>
        <time>2015-02-11T14:49:56Z</time>
      </trkpt>
      <trkpt lat="43.75041" lon="3.56097">
        <ele>118.38</ele>
        <time>2015-02-11T14:50:04Z</time>
      </trkpt>
      <trkpt lat="43.75037" lon="3.561">
        <ele>117.42</ele>
        <time>2015-02-11T14:50:08Z</time>
      </trkpt>
      <trkpt lat="43.75034" lon="3.56105">
        <ele>115.98</ele>
        <time>2015-02-11T14:50:14Z</time>
      </trkpt>
      <trkpt lat="43.75031" lon="3.56107">
        <ele>115.5</ele>
        <time>2015-02-11T14:50:16Z</time>
      </trkpt>
      <trkpt lat="43.7503" lon="3.56111">
        <ele>114.53</ele>
        <time>2015-02-11T14:50:23Z</time>
      </trkpt>
      <trkpt lat="43.75026" lon="3.56121">
        <ele>113.09</ele>
        <time>2015-02-11T14:50:33Z</time>
      </trkpt>
      <trkpt lat="43.75016" lon="3.56137">
        <ele>111.65</ele>
        <time>2015-02-11T14:50:45Z</time>
      </trkpt>
      <trkpt lat="43.75016" lon="3.56145">
        <ele>111.17</ele>
        <time>2015-02-11T14:50:51Z</time>
      </trkpt>
      <trkpt lat="43.7502" lon="3.56162">
        <ele>110.21</ele>
        <time>2015-02-11T14:51:02Z</time>
      </trkpt>
      <trkpt lat="43.75022" lon="3.56173">
        <ele>109.25</ele>
        <time>2015-02-11T14:51:09Z</time>
      </trkpt>
      <trkpt lat="43.7502" lon="3.56177">
        <ele>109.25</ele>
        <time>2015-02-11T14:51:13Z</time>
      </trkpt>
      <trkpt lat="43.75012" lon="3.56186">
        <ele>107.81</ele>
        <time>2015-02-11T14:51:23Z</time>
      </trkpt>
      <trkpt lat="43.75008" lon="3.56188">
        <ele>106.84</ele>
        <time>2015-02-11T14:51:27Z</time>
      </trkpt>
      <trkpt lat="43.75" lon="3.56196">
        <ele>105.88</ele>
        <time>2015-02-11T14:51:37Z</time>
      </trkpt>
      <trkpt lat="43.75" lon="3.56196">
        <ele>105.4</ele>
        <time>2015-02-11T14:51:38Z</time>
      </trkpt>
      <trkpt lat="43.7499" lon="3.562">
        <ele>105.4</ele>
        <time>2015-02-11T14:51:47Z</time>
      </trkpt>
      <trkpt lat="43.74988" lon="3.56199">
        <ele>105.4</ele>
        <time>2015-02-11T14:51:49Z</time>
      </trkpt>
      <trkpt lat="43.74983" lon="3.56201">
        <ele>105.4</ele>
        <time>2015-02-11T14:51:55Z</time>
      </trkpt>
      <trkpt lat="43.74967" lon="3.56205">
        <ele>104.92</ele>
        <time>2015-02-11T14:52:07Z</time>
      </trkpt>
      <trkpt lat="43.7496" lon="3.56207">
        <ele>103.96</ele>
        <time>2015-02-11T14:52:17Z</time>
      </trkpt>
      <trkpt lat="43.74959" lon="3.56207">
        <ele>103</ele>
        <time>2015-02-11T14:52:18Z</time>
      </trkpt>
      <trkpt lat="43.74949" lon="3.56204">
        <ele>102.04</ele>
        <time>2015-02-11T14:52:26Z</time>
      </trkpt>
      <trkpt lat="43.74939" lon="3.56196">
        <ele>101.56</ele>
        <time>2015-02-11T14:52:34Z</time>
      </trkpt>
      <trkpt lat="43.74931" lon="3.56193">
        <ele>101.56</ele>
        <time>2015-02-11T14:52:41Z</time>
      </trkpt>
      <trkpt lat="43.74913" lon="3.56189">
        <ele>100.11</ele>
        <time>2015-02-11T14:52:54Z</time>
      </trkpt>
      <trkpt lat="43.74913" lon="3.56189">
        <ele>100.11</ele>
        <time>2015-02-11T14:52:55Z</time>
      </trkpt>
      <trkpt lat="43.74901" lon="3.56177">
        <ele>98.67</ele>
        <time>2015-02-11T14:53:06Z</time>
      </trkpt>
      <trkpt lat="43.74896" lon="3.56173">
        <ele>98.67</ele>
        <time>2015-02-11T14:53:11Z</time>
      </trkpt>
      <trkpt lat="43.74886" lon="3.56161">
        <ele>97.71</ele>
        <time>2015-02-11T14:53:20Z</time>
      </trkpt>
      <trkpt lat="43.74883" lon="3.56156">
        <ele>97.71</ele>
        <time>2015-02-11T14:53:25Z</time>
      </trkpt>
      <trkpt lat="43.74881" lon="3.56154">
        <ele>97.71</ele>
        <time>2015-02-11T14:53:27Z</time>
      </trkpt>
      <trkpt lat="43.74876" lon="3.56148">
        <ele>97.23</ele>
        <time>2015-02-11T14:53:32Z</time>
      </trkpt>
      <trkpt lat="43.74871" lon="3.56141">
        <ele>96.75</ele>
        <time>2015-02-11T14:53:40Z</time>
      </trkpt>
      <trkpt lat="43.74867" lon="3.56136">
        <ele>96.75</ele>
        <time>2015-02-11T14:53:46Z</time>
      </trkpt>
      <trkpt lat="43.74862" lon="3.5613">
        <ele>95.79</ele>
        <time>2015-02-11T14:53:53Z</time>
      </trkpt>
      <trkpt lat="43.74853" lon="3.5612">
        <ele>94.83</ele>
        <time>2015-02-11T14:54:04Z</time>
      </trkpt>
      <trkpt lat="43.7484" lon="3.56112">
        <ele>94.35</ele>
        <time>2015-02-11T14:54:15Z</time>
      </trkpt>
      <trkpt lat="43.74835" lon="3.56107">
        <ele>94.35</ele>
        <time>2015-02-11T14:54:20Z</time>
      </trkpt>
      <trkpt lat="43.74831" lon="3.56105">
        <ele>94.35</ele>
        <time>2015-02-11T14:54:24Z</time>
      </trkpt>
      <trkpt lat="43.74822" lon="3.56098">
        <ele>93.87</ele>
        <time>2015-02-11T14:54:31Z</time>
      </trkpt>
      <trkpt lat="43.74808" lon="3.56087">
        <ele>92.9</ele>
        <time>2015-02-11T14:54:43Z</time>
      </trkpt>
      <trkpt lat="43.74805" lon="3.56084">
        <ele>92.42</ele>
        <time>2015-02-11T14:54:48Z</time>
      </trkpt>
      <trkpt lat="43.74798" lon="3.56083">
        <ele>91.94</ele>
        <time>2015-02-11T14:54:54Z</time>
      </trkpt>
      <trkpt lat="43.74785" lon="3.56082">
        <ele>91.46</ele>
        <time>2015-02-11T14:55:03Z</time>
      </trkpt>
      <trkpt lat="43.74782" lon="3.56083">
        <ele>91.46</ele>
        <time>2015-02-11T14:55:05Z</time>
      </trkpt>
      <trkpt lat="43.7478" lon="3.56084">
        <ele>90.98</ele>
        <time>2015-02-11T14:55:06Z</time>
      </trkpt>
      <trkpt lat="43.74778" lon="3.56085">
        <ele>90.98</ele>
        <time>2015-02-11T14:55:10Z</time>
      </trkpt>
      <trkpt lat="43.74776" lon="3.56086">
        <ele>90.5</ele>
        <time>2015-02-11T14:55:11Z</time>
      </trkpt>
      <trkpt lat="43.74774" lon="3.56086">
        <ele>90.5</ele>
        <time>2015-02-11T14:55:12Z</time>
      </trkpt>
      <trkpt lat="43.74769" lon="3.56087">
        <ele>90.5</ele>
        <time>2015-02-11T14:55:16Z</time>
      </trkpt>
      <trkpt lat="43.74768" lon="3.56087">
        <ele>90.5</ele>
        <time>2015-02-11T14:55:17Z</time>
      </trkpt>
      <trkpt lat="43.74766" lon="3.56088">
        <ele>90.5</ele>
        <time>2015-02-11T14:55:18Z</time>
      </trkpt>
      <trkpt lat="43.7476" lon="3.5609">
        <ele>90.5</ele>
        <time>2015-02-11T14:55:23Z</time>
      </trkpt>
      <trkpt lat="43.74759" lon="3.5609">
        <ele>90.98</ele>
        <time>2015-02-11T14:55:24Z</time>
      </trkpt>
      <trkpt lat="43.74746" lon="3.56097">
        <ele>90.5</ele>
        <time>2015-02-11T14:55:34Z</time>
      </trkpt>
      <trkpt lat="43.74744" lon="3.56097">
        <ele>90.98</ele>
        <time>2015-02-11T14:55:36Z</time>
      </trkpt>
      <trkpt lat="43.74743" lon="3.56098">
        <ele>90.5</ele>
        <time>2015-02-11T14:55:37Z</time>
      </trkpt>
      <trkpt lat="43.74741" lon="3.56099">
        <ele>90.5</ele>
        <time>2015-02-11T14:55:38Z</time>
      </trkpt>
      <trkpt lat="43.7474" lon="3.561">
        <ele>90.5</ele>
        <time>2015-02-11T14:55:39Z</time>
      </trkpt>
      <trkpt lat="43.74738" lon="3.56101">
        <ele>90.98</ele>
        <time>2015-02-11T14:55:40Z</time>
      </trkpt>
      <trkpt lat="43.74729" lon="3.56106">
        <ele>90.98</ele>
        <time>2015-02-11T14:55:50Z</time>
      </trkpt>
      <trkpt lat="43.74728" lon="3.56107">
        <ele>90.98</ele>
        <time>2015-02-11T14:55:51Z</time>
      </trkpt>
      <trkpt lat="43.74726" lon="3.56108">
        <ele>90.98</ele>
        <time>2015-02-11T14:55:52Z</time>
      </trkpt>
      <trkpt lat="43.74718" lon="3.56116">
        <ele>90.5</ele>
        <time>2015-02-11T14:56:00Z</time>
      </trkpt>
      <trkpt lat="43.74715" lon="3.56118">
        <ele>90.5</ele>
        <time>2015-02-11T14:56:04Z</time>
      </trkpt>
      <trkpt lat="43.74714" lon="3.56119">
        <ele>90.02</ele>
        <time>2015-02-11T14:56:05Z</time>
      </trkpt>
      <trkpt lat="43.74712" lon="3.56121">
        <ele>90.02</ele>
        <time>2015-02-11T14:56:06Z</time>
      </trkpt>
      <trkpt lat="43.74711" lon="3.56122">
        <ele>90.02</ele>
        <time>2015-02-11T14:56:07Z</time>
      </trkpt>
      <trkpt lat="43.74709" lon="3.56124">
        <ele>90.02</ele>
        <time>2015-02-11T14:56:08Z</time>
      </trkpt>
      <trkpt lat="43.74707" lon="3.56126">
        <ele>90.02</ele>
        <time>2015-02-11T14:56:12Z</time>
      </trkpt>
      <trkpt lat="43.74706" lon="3.56128">
        <ele>89.54</ele>
        <time>2015-02-11T14:56:13Z</time>
      </trkpt>
      <trkpt lat="43.74704" lon="3.56131">
        <ele>89.54</ele>
        <time>2015-02-11T14:56:14Z</time>
      </trkpt>
      <trkpt lat="43.74703" lon="3.56133">
        <ele>89.54</ele>
        <time>2015-02-11T14:56:15Z</time>
      </trkpt>
      <trkpt lat="43.74702" lon="3.56134">
        <ele>89.54</ele>
        <time>2015-02-11T14:56:16Z</time>
      </trkpt>
      <trkpt lat="43.74699" lon="3.56137">
        <ele>89.06</ele>
        <time>2015-02-11T14:56:20Z</time>
      </trkpt>
      <trkpt lat="43.74698" lon="3.56139">
        <ele>88.58</ele>
        <time>2015-02-11T14:56:21Z</time>
      </trkpt>
      <trkpt lat="43.74697" lon="3.56142">
        <ele>88.58</ele>
        <time>2015-02-11T14:56:22Z</time>
      </trkpt>
      <trkpt lat="43.74696" lon="3.56144">
        <ele>88.58</ele>
        <time>2015-02-11T14:56:23Z</time>
      </trkpt>
      <trkpt lat="43.74694" lon="3.56145">
        <ele>88.58</ele>
        <time>2015-02-11T14:56:24Z</time>
      </trkpt>
      <trkpt lat="43.74692" lon="3.56148">
        <ele>88.1</ele>
        <time>2015-02-11T14:56:29Z</time>
      </trkpt>
      <trkpt lat="43.74691" lon="3.56151">
        <ele>88.1</ele>
        <time>2015-02-11T14:56:30Z</time>
      </trkpt>
      <trkpt lat="43.7469" lon="3.56153">
        <ele>88.1</ele>
        <time>2015-02-11T14:56:31Z</time>
      </trkpt>
      <trkpt lat="43.74687" lon="3.56157">
        <ele>87.62</ele>
        <time>2015-02-11T14:56:36Z</time>
      </trkpt>
      <trkpt lat="43.74686" lon="3.56159">
        <ele>87.62</ele>
        <time>2015-02-11T14:56:37Z</time>
      </trkpt>
      <trkpt lat="43.74685" lon="3.56161">
        <ele>87.62</ele>
        <time>2015-02-11T14:56:38Z</time>
      </trkpt>
      <trkpt lat="43.74683" lon="3.56163">
        <ele>87.14</ele>
        <time>2015-02-11T14:56:39Z</time>
      </trkpt>
      <trkpt lat="43.74676" lon="3.56173">
        <ele>87.14</ele>
        <time>2015-02-11T14:56:48Z</time>
      </trkpt>
      <trkpt lat="43.74667" lon="3.56183">
        <ele>86.66</ele>
        <time>2015-02-11T14:56:58Z</time>
      </trkpt>
      <trkpt lat="43.74656" lon="3.56196">
        <ele>86.66</ele>
        <time>2015-02-11T14:57:08Z</time>
      </trkpt>
      <trkpt lat="43.74648" lon="3.56206">
        <ele>86.18</ele>
        <time>2015-02-11T14:57:17Z</time>
      </trkpt>
      <trkpt lat="43.74646" lon="3.56208">
        <ele>86.18</ele>
        <time>2015-02-11T14:57:20Z</time>
      </trkpt>
      <trkpt lat="43.74645" lon="3.5621">
        <ele>86.18</ele>
        <time>2015-02-11T14:57:21Z</time>
      </trkpt>
      <trkpt lat="43.74644" lon="3.56212">
        <ele>86.18</ele>
        <time>2015-02-11T14:57:22Z</time>
      </trkpt>
      <trkpt lat="43.74642" lon="3.56215">
        <ele>86.18</ele>
        <time>2015-02-11T14:57:23Z</time>
      </trkpt>
      <trkpt lat="43.74641" lon="3.56217">
        <ele>86.18</ele>
        <time>2015-02-11T14:57:24Z</time>
      </trkpt>
      <trkpt lat="43.74639" lon="3.56221">
        <ele>86.18</ele>
        <time>2015-02-11T14:57:29Z</time>
      </trkpt>
      <trkpt lat="43.74639" lon="3.56224">
        <ele>85.69</ele>
        <time>2015-02-11T14:57:30Z</time>
      </trkpt>
      <trkpt lat="43.74639" lon="3.56227">
        <ele>85.69</ele>
        <time>2015-02-11T14:57:31Z</time>
      </trkpt>
      <trkpt lat="43.74637" lon="3.56236">
        <ele>85.69</ele>
        <time>2015-02-11T14:57:40Z</time>
      </trkpt>
      <trkpt lat="43.74637" lon="3.56253">
        <ele>85.21</ele>
        <time>2015-02-11T14:57:49Z</time>
      </trkpt>
      <trkpt lat="43.74638" lon="3.56262">
        <ele>85.21</ele>
        <time>2015-02-11T14:57:56Z</time>
      </trkpt>
      <trkpt lat="43.74641" lon="3.56274">
        <ele>84.73</ele>
        <time>2015-02-11T14:58:04Z</time>
      </trkpt>
      <trkpt lat="43.74648" lon="3.56291">
        <ele>84.25</ele>
        <time>2015-02-11T14:58:14Z</time>
      </trkpt>
      <trkpt lat="43.74654" lon="3.5631">
        <ele>84.73</ele>
        <time>2015-02-11T14:58:24Z</time>
      </trkpt>
      <trkpt lat="43.74654" lon="3.56315">
        <ele>84.25</ele>
        <time>2015-02-11T14:58:28Z</time>
      </trkpt>
      <trkpt lat="43.74653" lon="3.56317">
        <ele>84.25</ele>
        <time>2015-02-11T14:58:29Z</time>
      </trkpt>
      <trkpt lat="43.74653" lon="3.5632">
        <ele>84.25</ele>
        <time>2015-02-11T14:58:30Z</time>
      </trkpt>
      <trkpt lat="43.74653" lon="3.56323">
        <ele>84.25</ele>
        <time>2015-02-11T14:58:31Z</time>
      </trkpt>
      <trkpt lat="43.74652" lon="3.56325">
        <ele>84.25</ele>
        <time>2015-02-11T14:58:32Z</time>
      </trkpt>
      <trkpt lat="43.74648" lon="3.56336">
        <ele>84.73</ele>
        <time>2015-02-11T14:58:41Z</time>
      </trkpt>
      <trkpt lat="43.74645" lon="3.56338">
        <ele>84.25</ele>
        <time>2015-02-11T14:58:44Z</time>
      </trkpt>
      <trkpt lat="43.74643" lon="3.56338">
        <ele>84.25</ele>
        <time>2015-02-11T14:58:45Z</time>
      </trkpt>
      <trkpt lat="43.7464" lon="3.56339">
        <ele>83.77</ele>
        <time>2015-02-11T14:58:46Z</time>
      </trkpt>
      <trkpt lat="43.74639" lon="3.56339">
        <ele>84.25</ele>
        <time>2015-02-11T14:58:47Z</time>
      </trkpt>
      <trkpt lat="43.74628" lon="3.56339">
        <ele>83.29</ele>
        <time>2015-02-11T14:58:56Z</time>
      </trkpt>
      <trkpt lat="43.74619" lon="3.56336">
        <ele>83.29</ele>
        <time>2015-02-11T14:59:01Z</time>
      </trkpt>
      <trkpt lat="43.74609" lon="3.56328">
        <ele>82.81</ele>
        <time>2015-02-11T14:59:09Z</time>
      </trkpt>
      <trkpt lat="43.74607" lon="3.56327">
        <ele>82.81</ele>
        <time>2015-02-11T14:59:13Z</time>
      </trkpt>
      <trkpt lat="43.74605" lon="3.56325">
        <ele>82.81</ele>
        <time>2015-02-11T14:59:14Z</time>
      </trkpt>
      <trkpt lat="43.74603" lon="3.56324">
        <ele>82.33</ele>
        <time>2015-02-11T14:59:15Z</time>
      </trkpt>
      <trkpt lat="43.74602" lon="3.56322">
        <ele>82.81</ele>
        <time>2015-02-11T14:59:16Z</time>
      </trkpt>
      <trkpt lat="43.74601" lon="3.56321">
        <ele>82.81</ele>
        <time>2015-02-11T14:59:17Z</time>
      </trkpt>
      <trkpt lat="43.74597" lon="3.56318">
        <ele>82.33</ele>
        <time>2015-02-11T14:59:21Z</time>
      </trkpt>
      <trkpt lat="43.74596" lon="3.56317">
        <ele>82.33</ele>
        <time>2015-02-11T14:59:22Z</time>
      </trkpt>
      <trkpt lat="43.74594" lon="3.56315">
        <ele>82.33</ele>
        <time>2015-02-11T14:59:23Z</time>
      </trkpt>
      <trkpt lat="43.74592" lon="3.56314">
        <ele>82.33</ele>
        <time>2015-02-11T14:59:24Z</time>
      </trkpt>
      <trkpt lat="43.74589" lon="3.56311">
        <ele>82.33</ele>
        <time>2015-02-11T14:59:28Z</time>
      </trkpt>
      <trkpt lat="43.74588" lon="3.56311">
        <ele>81.85</ele>
        <time>2015-02-11T14:59:29Z</time>
      </trkpt>
      <trkpt lat="43.74586" lon="3.5631">
        <ele>81.85</ele>
        <time>2015-02-11T14:59:30Z</time>
      </trkpt>
      <trkpt lat="43.74584" lon="3.56309">
        <ele>82.33</ele>
        <time>2015-02-11T14:59:31Z</time>
      </trkpt>
      <trkpt lat="43.74582" lon="3.56307">
        <ele>81.85</ele>
        <time>2015-02-11T14:59:32Z</time>
      </trkpt>
      <trkpt lat="43.74581" lon="3.56307">
        <ele>82.33</ele>
        <time>2015-02-11T14:59:33Z</time>
      </trkpt>
      <trkpt lat="43.74578" lon="3.56306">
        <ele>82.33</ele>
        <time>2015-02-11T14:59:37Z</time>
      </trkpt>
      <trkpt lat="43.74577" lon="3.56307">
        <ele>82.33</ele>
        <time>2015-02-11T14:59:38Z</time>
      </trkpt>
      <trkpt lat="43.74575" lon="3.56307">
        <ele>81.85</ele>
        <time>2015-02-11T14:59:39Z</time>
      </trkpt>
      <trkpt lat="43.74563" lon="3.56311">
        <ele>81.37</ele>
        <time>2015-02-11T14:59:49Z</time>
      </trkpt>
      <trkpt lat="43.74554" lon="3.56313">
        <ele>80.89</ele>
        <time>2015-02-11T14:59:58Z</time>
      </trkpt>
      <trkpt lat="43.74541" lon="3.56317">
        <ele>80.41</ele>
        <time>2015-02-11T15:00:07Z</time>
      </trkpt>
      <trkpt lat="43.74538" lon="3.56318">
        <ele>79.93</ele>
        <time>2015-02-11T15:00:10Z</time>
      </trkpt>
      <trkpt lat="43.74536" lon="3.56319">
        <ele>80.89</ele>
        <time>2015-02-11T15:00:11Z</time>
      </trkpt>
      <trkpt lat="43.74534" lon="3.56319">
        <ele>80.89</ele>
        <time>2015-02-11T15:00:12Z</time>
      </trkpt>
      <trkpt lat="43.74533" lon="3.56319">
        <ele>80.41</ele>
        <time>2015-02-11T15:00:13Z</time>
      </trkpt>
      <trkpt lat="43.74531" lon="3.56319">
        <ele>79.93</ele>
        <time>2015-02-11T15:00:14Z</time>
      </trkpt>
      <trkpt lat="43.74521" lon="3.5632">
        <ele>79.45</ele>
        <time>2015-02-11T15:00:21Z</time>
      </trkpt>
      <trkpt lat="43.7451" lon="3.5632">
        <ele>78.48</ele>
        <time>2015-02-11T15:00:30Z</time>
      </trkpt>
      <trkpt lat="43.74504" lon="3.5632">
        <ele>78.48</ele>
        <time>2015-02-11T15:00:35Z</time>
      </trkpt>
      <trkpt lat="43.74503" lon="3.5632">
        <ele>78</ele>
        <time>2015-02-11T15:00:36Z</time>
      </trkpt>
      <trkpt lat="43.74501" lon="3.5632">
        <ele>78</ele>
        <time>2015-02-11T15:00:37Z</time>
      </trkpt>
      <trkpt lat="43.74491" lon="3.5632">
        <ele>77.52</ele>
        <time>2015-02-11T15:00:45Z</time>
      </trkpt>
      <trkpt lat="43.74486" lon="3.5632">
        <ele>77.04</ele>
        <time>2015-02-11T15:00:50Z</time>
      </trkpt>
      <trkpt lat="43.74484" lon="3.56321">
        <ele>77.04</ele>
        <time>2015-02-11T15:00:51Z</time>
      </trkpt>
      <trkpt lat="43.74483" lon="3.56321">
        <ele>77.04</ele>
        <time>2015-02-11T15:00:52Z</time>
      </trkpt>
      <trkpt lat="43.74481" lon="3.56322">
        <ele>77.04</ele>
        <time>2015-02-11T15:00:53Z</time>
      </trkpt>
      <trkpt lat="43.74479" lon="3.56322">
        <ele>77.04</ele>
        <time>2015-02-11T15:00:54Z</time>
      </trkpt>
      <trkpt lat="43.74477" lon="3.56322">
        <ele>77.04</ele>
        <time>2015-02-11T15:00:55Z</time>
      </trkpt>
      <trkpt lat="43.74475" lon="3.56322">
        <ele>77.04</ele>
        <time>2015-02-11T15:00:56Z</time>
      </trkpt>
      <trkpt lat="43.74455" lon="3.56324">
        <ele>76.56</ele>
        <time>2015-02-11T15:01:12Z</time>
      </trkpt>
      <trkpt lat="43.74443" lon="3.56322">
        <ele>77.52</ele>
        <time>2015-02-11T15:01:23Z</time>
      </trkpt>
      <trkpt lat="43.74433" lon="3.56323">
        <ele>78.48</ele>
        <time>2015-02-11T15:01:36Z</time>
      </trkpt>
      <trkpt lat="43.74431" lon="3.56325">
        <ele>77.52</ele>
        <time>2015-02-11T15:01:47Z</time>
      </trkpt>
      <trkpt lat="43.7443" lon="3.56326">
        <ele>79.45</ele>
        <time>2015-02-11T15:02:00Z</time>
      </trkpt>
      <trkpt lat="43.74431" lon="3.56327">
        <ele>78.48</ele>
        <time>2015-02-11T15:02:12Z</time>
      </trkpt>
    </trkseg>
  </trk>
</gpx>